Wetterdaten: Mittwoch, 07.06.2017
Datum Zeit Temp. A. Pool Temp. Feuchte A. Luftdruck Regen Wind Richtung Richtung Sonnenschein ET UV Solar Taupunkt Windchill Windben Empfang
07.06.2017 00:00 10,9 C 22,2 C 92 % 1011,8 hPa 0,0 l/m 4,3 km/h (1 Bft) S 175 0 min 0,000 mm 0,0 UV-I 0 W/m 9,7 C 10,9 C 9,7 km/h (2 Bft) 97,37 %
07.06.2017 00:02 10,9 C 22,2 C 92 % 1011,8 hPa 0,0 l/m 2,9 km/h (1 Bft) S 170 0 min 0,000 mm 0,0 UV-I 0 W/m 9,7 C 10,9 C 8,0 km/h (2 Bft) 13,33 %
07.06.2017 00:04 10,9 C 22,2 C 91 % 1011,8 hPa 0,0 l/m 2,1 km/h (1 Bft) S 169 0 min 0,000 mm 0,0 UV-I 0 W/m 9,5 C 10,9 C 6,4 km/h (2 Bft) 78,12 %
07.06.2017 00:06 10,9 C 22,2 C 92 % 1011,8 hPa 0,0 l/m 3,5 km/h (1 Bft) SW 236 0 min 0,000 mm 0,0 UV-I 0 W/m 9,7 C 10,9 C 6,4 km/h (2 Bft) 95,45 %
07.06.2017 00:08 10,9 C 22,2 C 92 % 1011,8 hPa 0,0 l/m 3,9 km/h (1 Bft) SW 225 0 min 0,000 mm 0,0 UV-I 0 W/m 9,7 C 10,9 C 6,4 km/h (2 Bft) 93,62 %
07.06.2017 00:10 10,9 C 22,2 C 91 % 1011,9 hPa 0,0 l/m 4,9 km/h (1 Bft) W 268 0 min 0,000 mm 0,0 UV-I 0 W/m 9,5 C 10,9 C 9,7 km/h (2 Bft) 98,00 %
07.06.2017 00:12 10,9 C 22,2 C 91 % 1011,9 hPa 0,0 l/m 4,5 km/h (1 Bft) W 265 0 min 0,000 mm 0,0 UV-I 0 W/m 9,5 C 10,9 C 9,7 km/h (2 Bft) 97,87 %
07.06.2017 00:14 10,9 C 22,2 C 92 % 1011,8 hPa 0,0 l/m 4,5 km/h (1 Bft) W 261 0 min 0,000 mm 0,0 UV-I 0 W/m 9,7 C 10,9 C 6,4 km/h (2 Bft) 94,87 %
07.06.2017 00:16 10,9 C 22,2 C 92 % 1011,9 hPa 0,0 l/m 4,3 km/h (1 Bft) W 261 0 min 0,000 mm 0,0 UV-I 0 W/m 9,7 C 10,9 C 6,4 km/h (2 Bft) 94,23 %
07.06.2017 00:18 10,9 C 22,2 C 92 % 1011,9 hPa 0,0 l/m 3,6 km/h (1 Bft) SW 221 0 min 0,000 mm 0,0 UV-I 0 W/m 9,7 C 10,9 C 6,4 km/h (2 Bft) 97,92 %
07.06.2017 00:20 10,9 C 22,2 C 92 % 1011,9 hPa 0,0 l/m 2,1 km/h (1 Bft) S 180 0 min 0,000 mm 0,0 UV-I 0 W/m 9,7 C 10,9 C 4,8 km/h (1 Bft) 94,23 %
07.06.2017 00:22 10,9 C 22,2 C 92 % 1011,8 hPa 0,0 l/m 2,6 km/h (1 Bft) S 171 0 min 0,000 mm 0,0 UV-I 0 W/m 9,7 C 10,9 C 6,4 km/h (2 Bft) 94,00 %
07.06.2017 00:24 10,9 C 22,2 C 92 % 1011,8 hPa 0,0 l/m 4,2 km/h (1 Bft) S 172 0 min 0,000 mm 0,0 UV-I 0 W/m 9,7 C 10,9 C 8,0 km/h (2 Bft) 94,87 %
07.06.2017 00:26 10,9 C 22,2 C 92 % 1011,9 hPa 0,0 l/m 3,7 km/h (1 Bft) S 173 0 min 0,000 mm 0,0 UV-I 0 W/m 9,7 C 10,9 C 4,8 km/h (1 Bft) 97,56 %
07.06.2017 00:28 10,9 C 22,2 C 92 % 1011,9 hPa 0,0 l/m 3,2 km/h (1 Bft) S 173 0 min 0,000 mm 0,0 UV-I 0 W/m 9,7 C 10,9 C 4,8 km/h (1 Bft) 96,00 %
07.06.2017 00:30 10,9 C 22,2 C 92 % 1011,9 hPa 0,0 l/m 4,1 km/h (1 Bft) S 173 0 min 0,000 mm 0,0 UV-I 0 W/m 9,7 C 10,9 C 8,0 km/h (2 Bft) 98,21 %
07.06.2017 00:32 10,9 C 22,2 C 92 % 1011,9 hPa 0,0 l/m 4,3 km/h (1 Bft) S 173 0 min 0,000 mm 0,0 UV-I 0 W/m 9,7 C 10,9 C 8,0 km/h (2 Bft) 97,56 %
07.06.2017 00:34 10,9 C 22,2 C 92 % 1011,9 hPa 0,0 l/m 3,4 km/h (1 Bft) S 173 0 min 0,000 mm 0,0 UV-I 0 W/m 9,7 C 10,9 C 4,8 km/h (1 Bft) 98,00 %
07.06.2017 00:36 10,9 C 22,2 C 92 % 1011,9 hPa 0,0 l/m 5,0 km/h (1 Bft) S 174 0 min 0,000 mm 0,0 UV-I 0 W/m 9,7 C 10,9 C 8,0 km/h (2 Bft) 100,00 %
07.06.2017 00:38 10,9 C 22,2 C 92 % 1011,9 hPa 0,0 l/m 3,4 km/h (1 Bft) S-SW 205 0 min 0,000 mm 0,0 UV-I 0 W/m 9,7 C 10,9 C 6,4 km/h (2 Bft) 98,11 %
07.06.2017 00:40 10,9 C 22,2 C 92 % 1011,9 hPa 0,0 l/m 3,5 km/h (1 Bft) S-SW 205 0 min 0,000 mm 0,0 UV-I 0 W/m 9,7 C 10,9 C 4,8 km/h (1 Bft) 93,62 %
07.06.2017 00:42 11,0 C 22,2 C 92 % 1011,9 hPa 0,0 l/m 4,0 km/h (1 Bft) S-SW 213 0 min 0,000 mm 0,0 UV-I 0 W/m 9,8 C 11,0 C 6,4 km/h (2 Bft) 100,00 %
07.06.2017 00:44 11,0 C 22,2 C 92 % 1012,0 hPa 0,0 l/m 3,2 km/h (1 Bft) S-SW 213 0 min 0,000 mm 0,0 UV-I 0 W/m 9,8 C 11,0 C 4,8 km/h (1 Bft) 97,87 %
07.06.2017 00:46 11,0 C 22,2 C 92 % 1012,0 hPa 0,0 l/m 4,0 km/h (1 Bft) SW 216 0 min 0,000 mm 0,0 UV-I 0 W/m 9,8 C 11,0 C 6,4 km/h (2 Bft) 97,37 %
07.06.2017 00:48 10,9 C 22,2 C 92 % 1012,0 hPa 0,0 l/m 4,4 km/h (1 Bft) SW 219 0 min 0,000 mm 0,0 UV-I 0 W/m 9,7 C 10,9 C 8,0 km/h (2 Bft) 98,11 %
07.06.2017 00:50 11,0 C 22,2 C 92 % 1012,0 hPa 0,0 l/m 3,7 km/h (1 Bft) SW 219 0 min 0,000 mm 0,0 UV-I 0 W/m 9,8 C 11,0 C 6,4 km/h (2 Bft) 95,74 %
07.06.2017 00:52 11,0 C 22,2 C 92 % 1012,0 hPa 0,0 l/m 3,7 km/h (1 Bft) SW 219 0 min 0,000 mm 0,0 UV-I 0 W/m 9,8 C 11,0 C 4,8 km/h (1 Bft) 100,00 %
07.06.2017 00:54 11,0 C 22,2 C 92 % 1012,1 hPa 0,0 l/m 3,0 km/h (1 Bft) SW 219 0 min 0,000 mm 0,0 UV-I 0 W/m 9,8 C 11,0 C 6,4 km/h (2 Bft) 100,00 %
07.06.2017 00:56 11,0 C 22,2 C 92 % 1012,1 hPa 0,0 l/m 3,8 km/h (1 Bft) W-SW 248 0 min 0,000 mm 0,0 UV-I 0 W/m 9,8 C 11,0 C 6,4 km/h (2 Bft) 100,00 %
07.06.2017 00:58 10,9 C 22,2 C 92 % 1012,1 hPa 0,0 l/m 5,6 km/h (1 Bft) SW 231 0 min 0,000 mm 0,0 UV-I 0 W/m 9,7 C 10,9 C 8,0 km/h (2 Bft) 98,00 %
07.06.2017 01:00 10,9 C 22,2 C 92 % 1012,1 hPa 0,0 l/m 4,2 km/h (1 Bft) SW 230 0 min 0,000 mm 0,0 UV-I 0 W/m 9,7 C 10,9 C 6,4 km/h (2 Bft) 100,00 %
07.06.2017 01:02 10,9 C 22,2 C 93 % 1012,2 hPa 0,0 l/m 5,1 km/h (1 Bft) W-SW 248 0 min 0,000 mm 0,0 UV-I 0 W/m 9,8 C 10,9 C 9,7 km/h (2 Bft) 100,00 %
07.06.2017 01:04 10,9 C 22,2 C 92 % 1012,1 hPa 0,0 l/m 4,1 km/h (1 Bft) SW 222 0 min 0,000 mm 0,0 UV-I 0 W/m 9,7 C 10,9 C 6,4 km/h (2 Bft) 97,44 %
07.06.2017 01:06 10,9 C 22,2 C 92 % 1012,1 hPa 0,0 l/m 4,4 km/h (1 Bft) SW 218 0 min 0,000 mm 0,0 UV-I 0 W/m 9,7 C 10,9 C 6,4 km/h (2 Bft) 100,00 %
07.06.2017 01:08 10,9 C 22,2 C 93 % 1012,2 hPa 0,0 l/m 4,2 km/h (1 Bft) SW 226 0 min 0,000 mm 0,0 UV-I 0 W/m 9,8 C 10,9 C 9,7 km/h (2 Bft) 98,11 %
07.06.2017 01:10 10,9 C 22,2 C 93 % 1012,2 hPa 0,0 l/m 5,5 km/h (1 Bft) SW 223 0 min 0,000 mm 0,0 UV-I 0 W/m 9,8 C 10,9 C 8,0 km/h (2 Bft) 100,00 %
07.06.2017 01:12 10,9 C 22,2 C 93 % 1012,2 hPa 0,0 l/m 5,1 km/h (1 Bft) S-SW 213 0 min 0,000 mm 0,0 UV-I 0 W/m 9,8 C 10,9 C 8,0 km/h (2 Bft) 97,87 %
07.06.2017 01:14 10,8 C 22,2 C 93 % 1012,2 hPa 0,0 l/m 7,3 km/h (2 Bft) S-SW 213 0 min 0,000 mm 0,0 UV-I 0 W/m 9,7 C 10,2 C 14,5 km/h (3 Bft) 100,00 %
07.06.2017 01:16 10,8 C 22,2 C 93 % 1012,2 hPa 0,0 l/m 6,9 km/h (2 Bft) S-SW 210 0 min 0,000 mm 0,0 UV-I 0 W/m 9,7 C 10,5 C 9,7 km/h (2 Bft) 98,11 %
07.06.2017 01:18 10,8 C 22,2 C 92 % 1012,2 hPa 0,0 l/m 8,0 km/h (2 Bft) S-SW 205 0 min 0,000 mm 0,0 UV-I 0 W/m 9,6 C 9,7 C 11,3 km/h (2 Bft) 100,00 %
07.06.2017 01:20 10,8 C 22,2 C 92 % 1012,2 hPa 0,0 l/m 6,1 km/h (2 Bft) S-SW 209 0 min 0,000 mm 0,0 UV-I 0 W/m 9,6 C 10,8 C 11,3 km/h (2 Bft) 100,00 %
07.06.2017 01:22 10,8 C 22,2 C 92 % 1012,2 hPa 0,0 l/m 7,2 km/h (2 Bft) S-SW 212 0 min 0,000 mm 0,0 UV-I 0 W/m 9,6 C 10,2 C 11,3 km/h (2 Bft) 100,00 %
07.06.2017 01:24 10,8 C 22,2 C 92 % 1012,3 hPa 0,0 l/m 5,9 km/h (2 Bft) S-SW 201 0 min 0,000 mm 0,0 UV-I 0 W/m 9,6 C 10,8 C 9,7 km/h (2 Bft) 100,00 %
07.06.2017 01:26 10,9 C 22,2 C 92 % 1012,3 hPa 0,0 l/m 6,2 km/h (2 Bft) S 181 0 min 0,000 mm 0,0 UV-I 0 W/m 9,7 C 10,9 C 12,9 km/h (3 Bft) 100,00 %
07.06.2017 01:28 10,8 C 22,2 C 92 % 1012,3 hPa 0,0 l/m 7,5 km/h (2 Bft) SW 220 0 min 0,000 mm 0,0 UV-I 0 W/m 9,6 C 10,0 C 11,3 km/h (2 Bft) 100,00 %
07.06.2017 01:30 10,9 C 22,2 C 92 % 1012,4 hPa 0,0 l/m 8,7 km/h (2 Bft) SW 231 0 min 0,000 mm 0,0 UV-I 0 W/m 9,7 C 9,4 C 14,5 km/h (3 Bft) 96,43 %
07.06.2017 01:32 10,8 C 22,2 C 92 % 1012,3 hPa 0,0 l/m 9,4 km/h (2 Bft) SW 221 0 min 0,000 mm 0,0 UV-I 0 W/m 9,6 C 8,8 C 12,9 km/h (3 Bft) 100,00 %
07.06.2017 01:34 10,9 C 22,2 C 92 % 1012,3 hPa 0,0 l/m 9,9 km/h (2 Bft) SW 229 0 min 0,000 mm 0,0 UV-I 0 W/m 9,7 C 8,6 C 14,5 km/h (3 Bft) 94,74 %
07.06.2017 01:36 10,9 C 22,2 C 92 % 1012,3 hPa 0,0 l/m 9,4 km/h (2 Bft) S 176 0 min 0,000 mm 0,0 UV-I 0 W/m 9,7 C 8,9 C 14,5 km/h (3 Bft) 100,00 %
07.06.2017 01:38 10,9 C 22,2 C 92 % 1012,3 hPa 0,0 l/m 9,3 km/h (2 Bft) S 186 0 min 0,000 mm 0,0 UV-I 0 W/m 9,7 C 9,0 C 14,5 km/h (3 Bft) 100,00 %
07.06.2017 01:40 10,9 C 22,2 C 92 % 1012,3 hPa 0,0 l/m 13,0 km/h (3 Bft) SW 214 0 min 0,000 mm 0,0 UV-I 0 W/m 9,7 C 7,1 C 20,9 km/h (4 Bft) 95,74 %
07.06.2017 01:42 10,9 C 22,2 C 92 % 1012,3 hPa 0,0 l/m 10,9 km/h (2 Bft) S-SW 205 0 min 0,000 mm 0,0 UV-I 0 W/m 9,7 C 8,1 C 17,7 km/h (3 Bft) 92,73 %
07.06.2017 01:44 10,9 C 22,2 C 91 % 1012,4 hPa 0,0 l/m 11,2 km/h (2 Bft) S-SW 208 0 min 0,000 mm 0,0 UV-I 0 W/m 9,5 C 7,9 C 16,1 km/h (3 Bft) 100,00 %
07.06.2017 01:46 11,0 C 22,2 C 91 % 1012,4 hPa 0,0 l/m 10,5 km/h (2 Bft) SW 217 0 min 0,000 mm 0,0 UV-I 0 W/m 9,6 C 8,4 C 16,1 km/h (3 Bft) 94,00 %
07.06.2017 01:48 11,1 C 22,2 C 91 % 1012,4 hPa 0,0 l/m 11,0 km/h (2 Bft) SW 227 0 min 0,000 mm 0,0 UV-I 0 W/m 9,7 C 8,3 C 16,1 km/h (3 Bft) 98,11 %
07.06.2017 01:50 11,1 C 22,2 C 90 % 1012,3 hPa 0,0 l/m 12,0 km/h (2 Bft) S-SW 200 0 min 0,000 mm 0,0 UV-I 0 W/m 9,5 C 7,8 C 22,5 km/h (4 Bft) 93,18 %
07.06.2017 01:52 11,2 C 22,2 C 90 % 1012,3 hPa 0,0 l/m 10,6 km/h (2 Bft) S-SW 197 0 min 0,000 mm 0,0 UV-I 0 W/m 9,6 C 8,6 C 16,1 km/h (3 Bft) 97,56 %
07.06.2017 01:54 11,2 C 22,2 C 89 % 1012,3 hPa 0,0 l/m 11,0 km/h (2 Bft) S-SW 192 0 min 0,000 mm 0,0 UV-I 0 W/m 9,5 C 8,4 C 20,9 km/h (4 Bft) 95,12 %
07.06.2017 01:56 11,3 C 22,2 C 89 % 1012,4 hPa 0,0 l/m 11,5 km/h (2 Bft) S-SW 199 0 min 0,000 mm 0,0 UV-I 0 W/m 9,6 C 8,3 C 17,7 km/h (3 Bft) 98,31 %
07.06.2017 01:58 11,3 C 22,2 C 89 % 1012,4 hPa 0,0 l/m 11,7 km/h (2 Bft) W-SW 237 0 min 0,000 mm 0,0 UV-I 0 W/m 9,6 C 8,2 C 19,3 km/h (3 Bft) 97,14 %
07.06.2017 02:00 11,3 C 22,2 C 88 % 1012,4 hPa 0,0 l/m 11,3 km/h (2 Bft) W 269 0 min 0,000 mm 0,0 UV-I 0 W/m 9,4 C 8,4 C 17,7 km/h (3 Bft) 96,43 %
07.06.2017 02:02 11,4 C 22,2 C 88 % 1012,4 hPa 0,0 l/m 9,4 km/h (2 Bft) SW 219 0 min 0,000 mm 0,0 UV-I 0 W/m 9,5 C 9,5 C 14,5 km/h (3 Bft) 96,55 %
07.06.2017 02:04 11,4 C 22,2 C 88 % 1012,4 hPa 0,0 l/m 7,4 km/h (2 Bft) W 261 0 min 0,000 mm 0,0 UV-I 0 W/m 9,5 C 10,7 C 11,3 km/h (2 Bft) 95,59 %
07.06.2017 02:06 11,4 C 22,2 C 88 % 1012,4 hPa 0,0 l/m 8,4 km/h (2 Bft) W-SW 238 0 min 0,000 mm 0,0 UV-I 0 W/m 9,5 C 10,1 C 12,9 km/h (3 Bft) 93,18 %
07.06.2017 02:08 11,4 C 22,2 C 87 % 1012,4 hPa 0,0 l/m 10,6 km/h (2 Bft) SW 229 0 min 0,000 mm 0,0 UV-I 0 W/m 9,3 C 8,8 C 16,1 km/h (3 Bft) 97,37 %
07.06.2017 02:10 11,5 C 22,2 C 87 % 1012,3 hPa 0,0 l/m 10,7 km/h (2 Bft) W-SW 244 0 min 0,000 mm 0,0 UV-I 0 W/m 9,4 C 8,9 C 16,1 km/h (3 Bft) 94,00 %
07.06.2017 02:12 11,5 C 22,2 C 87 % 1012,3 hPa 0,0 l/m 9,5 km/h (2 Bft) W 263 0 min 0,000 mm 0,0 UV-I 0 W/m 9,4 C 9,5 C 16,1 km/h (3 Bft) 94,00 %
07.06.2017 02:14 11,5 C 22,2 C 87 % 1012,4 hPa 0,0 l/m 9,9 km/h (2 Bft) W-SW 256 0 min 0,000 mm 0,0 UV-I 0 W/m 9,4 C 9,3 C 16,1 km/h (3 Bft) 96,23 %
07.06.2017 02:16 11,6 C 22,2 C 87 % 1012,4 hPa 0,0 l/m 11,8 km/h (2 Bft) W-SW 257 0 min 0,000 mm 0,0 UV-I 0 W/m 9,5 C 8,5 C 17,7 km/h (3 Bft) 92,68 %
07.06.2017 02:18 11,6 C 22,2 C 86 % 1012,5 hPa 0,0 l/m 13,9 km/h (3 Bft) W-SW 239 0 min 0,000 mm 0,0 UV-I 0 W/m 9,3 C 7,5 C 19,3 km/h (3 Bft) 94,00 %
07.06.2017 02:20 11,6 C 22,2 C 86 % 1012,4 hPa 0,0 l/m 12,6 km/h (3 Bft) SW 234 0 min 0,000 mm 0,0 UV-I 0 W/m 9,3 C 8,1 C 20,9 km/h (4 Bft) 95,00 %
07.06.2017 02:22 11,6 C 22,2 C 86 % 1012,4 hPa 0,0 l/m 12,3 km/h (3 Bft) W-SW 240 0 min 0,000 mm 0,0 UV-I 0 W/m 9,3 C 8,2 C 19,3 km/h (3 Bft) 94,00 %
07.06.2017 02:24 11,6 C 22,2 C 85 % 1012,5 hPa 0,0 l/m 12,9 km/h (3 Bft) S-SW 207 0 min 0,000 mm 0,0 UV-I 0 W/m 9,2 C 7,9 C 19,3 km/h (3 Bft) 89,36 %
07.06.2017 02:26 11,7 C 22,2 C 85 % 1012,4 hPa 0,0 l/m 13,7 km/h (3 Bft) SW 223 0 min 0,000 mm 0,0 UV-I 0 W/m 9,3 C 7,7 C 20,9 km/h (4 Bft) 93,62 %
07.06.2017 02:28 11,7 C 22,2 C 85 % 1012,4 hPa 0,0 l/m 16,0 km/h (3 Bft) SW 232 0 min 0,000 mm 0,0 UV-I 0 W/m 9,3 C 6,8 C 24,1 km/h (4 Bft) 92,45 %
07.06.2017 02:30 11,7 C 22,2 C 84 % 1012,4 hPa 0,0 l/m 13,6 km/h (3 Bft) W-SW 257 0 min 0,000 mm 0,0 UV-I 0 W/m 9,1 C 7,8 C 20,9 km/h (4 Bft) 89,47 %
07.06.2017 02:32 11,7 C 22,2 C 84 % 1012,4 hPa 0,0 l/m 15,2 km/h (3 Bft) W-SW 257 0 min 0,000 mm 0,0 UV-I 0 W/m 9,1 C 7,1 C 20,9 km/h (4 Bft) 96,23 %
07.06.2017 02:34 11,8 C 22,2 C 84 % 1012,4 hPa 0,0 l/m 12,6 km/h (3 Bft) W-SW 246 0 min 0,000 mm 0,0 UV-I 0 W/m 9,2 C 8,3 C 19,3 km/h (3 Bft) 96,15 %
07.06.2017 02:36 11,8 C 22,2 C 84 % 1012,4 hPa 0,0 l/m 11,9 km/h (2 Bft) SW 226 0 min 0,000 mm 0,0 UV-I 0 W/m 9,2 C 8,6 C 17,7 km/h (3 Bft) 95,59 %
07.06.2017 02:38 11,8 C 22,2 C 84 % 1012,5 hPa 0,0 l/m 15,7 km/h (3 Bft) SW 234 0 min 0,000 mm 0,0 UV-I 0 W/m 9,2 C 7,0 C 22,5 km/h (4 Bft) 95,74 %
07.06.2017 02:40 11,8 C 22,2 C 84 % 1012,4 hPa 0,0 l/m 13,5 km/h (3 Bft) SW 221 0 min 0,000 mm 0,0 UV-I 0 W/m 9,2 C 7,9 C 19,3 km/h (3 Bft) 100,00 %
07.06.2017 02:42 11,7 C 22,2 C 84 % 1012,5 hPa 0,0 l/m 13,7 km/h (3 Bft) SW 223 0 min 0,000 mm 0,0 UV-I 0 W/m 9,1 C 7,7 C 22,5 km/h (4 Bft) 92,68 %
07.06.2017 02:44 11,7 C 22,2 C 84 % 1012,5 hPa 0,0 l/m 13,5 km/h (3 Bft) W-SW 240 0 min 0,000 mm 0,0 UV-I 0 W/m 9,1 C 7,8 C 20,9 km/h (4 Bft) 97,56 %
07.06.2017 02:46 11,7 C 22,2 C 84 % 1012,6 hPa 0,0 l/m 13,9 km/h (3 Bft) W-SW 239 0 min 0,000 mm 0,0 UV-I 0 W/m 9,1 C 7,6 C 20,9 km/h (4 Bft) 98,00 %
07.06.2017 02:48 11,7 C 22,2 C 84 % 1012,6 hPa 0,0 l/m 14,4 km/h (3 Bft) SW 234 0 min 0,000 mm 0,0 UV-I 0 W/m 9,1 C 7,4 C 22,5 km/h (4 Bft) 94,00 %
07.06.2017 02:50 11,7 C 22,2 C 84 % 1012,6 hPa 0,0 l/m 14,9 km/h (3 Bft) W-SW 238 0 min 0,000 mm 0,0 UV-I 0 W/m 9,1 C 7,2 C 19,3 km/h (3 Bft) 100,00 %
07.06.2017 02:52 11,7 C 22,2 C 84 % 1012,7 hPa 0,0 l/m 12,1 km/h (2 Bft) SW 229 0 min 0,000 mm 0,0 UV-I 0 W/m 9,1 C 8,4 C 17,7 km/h (3 Bft) 97,87 %
07.06.2017 02:54 11,7 C 22,2 C 84 % 1012,8 hPa 0,0 l/m 10,7 km/h (2 Bft) SW 229 0 min 0,000 mm 0,0 UV-I 0 W/m 9,1 C 9,1 C 17,7 km/h (3 Bft) 94,74 %
07.06.2017 02:56 11,7 C 22,2 C 84 % 1012,8 hPa 0,0 l/m 13,2 km/h (3 Bft) S-SW 212 0 min 0,000 mm 0,0 UV-I 0 W/m 9,1 C 7,9 C 19,3 km/h (3 Bft) 98,11 %
07.06.2017 02:58 11,7 C 21,7 C 84 % 1012,8 hPa 0,0 l/m 13,1 km/h (3 Bft) S-SW 200 0 min 0,000 mm 0,0 UV-I 0 W/m 9,1 C 8,0 C 24,1 km/h (4 Bft) 97,50 %
07.06.2017 03:00 11,7 C 21,7 C 84 % 1012,8 hPa 0,0 l/m 11,1 km/h (2 Bft) SW 223 0 min 0,025 mm 0,0 UV-I 0 W/m 9,1 C 8,9 C 16,1 km/h (3 Bft) 100,00 %
07.06.2017 03:02 11,6 C 21,7 C 84 % 1012,9 hPa 0,0 l/m 11,2 km/h (2 Bft) SW 225 0 min 0,000 mm 0,0 UV-I 0 W/m 9,0 C 8,7 C 20,9 km/h (4 Bft) 94,64 %
07.06.2017 03:04 11,6 C 21,7 C 85 % 1012,9 hPa 0,0 l/m 11,3 km/h (2 Bft) SW 220 0 min 0,000 mm 0,0 UV-I 0 W/m 9,2 C 8,7 C 19,3 km/h (3 Bft) 100,00 %
07.06.2017 03:06 11,6 C 21,7 C 85 % 1012,9 hPa 0,0 l/m 10,1 km/h (2 Bft) S-SW 205 0 min 0,000 mm 0,0 UV-I 0 W/m 9,2 C 9,3 C 16,1 km/h (3 Bft) 97,87 %
07.06.2017 03:08 11,6 C 21,7 C 85 % 1013,0 hPa 0,0 l/m 9,1 km/h (2 Bft) SW 226 0 min 0,000 mm 0,0 UV-I 0 W/m 9,2 C 9,9 C 14,5 km/h (3 Bft) 100,00 %
07.06.2017 03:10 11,5 C 21,7 C 85 % 1013,0 hPa 0,0 l/m 10,3 km/h (2 Bft) W-SW 243 0 min 0,000 mm 0,0 UV-I 0 W/m 9,1 C 9,1 C 16,1 km/h (3 Bft) 98,00 %
07.06.2017 03:12 11,5 C 21,7 C 85 % 1013,0 hPa 0,0 l/m 10,1 km/h (2 Bft) SW 218 0 min 0,000 mm 0,0 UV-I 0 W/m 9,1 C 9,2 C 16,1 km/h (3 Bft) 97,56 %
07.06.2017 03:14 11,5 C 21,7 C 85 % 1013,0 hPa 0,0 l/m 10,2 km/h (2 Bft) S-SW 201 0 min 0,000 mm 0,0 UV-I 0 W/m 9,1 C 9,1 C 14,5 km/h (3 Bft) 100,00 %
07.06.2017 03:16 11,4 C 21,7 C 85 % 1013,0 hPa 0,0 l/m 7,7 km/h (2 Bft) W-SW 240 0 min 0,000 mm 0,0 UV-I 0 W/m 9,0 C 10,5 C 12,9 km/h (3 Bft) 100,00 %
07.06.2017 03:18 11,4 C 21,7 C 85 % 1013,0 hPa 0,0 l/m 8,8 km/h (2 Bft) SW 217 0 min 0,000 mm 0,0 UV-I 0 W/m 9,0 C 9,8 C 12,9 km/h (3 Bft) 100,00 %
07.06.2017 03:20 11,4 C 21,7 C 86 % 1013,0 hPa 0,0 l/m 8,5 km/h (2 Bft) SW 223 0 min 0,000 mm 0,0 UV-I 0 W/m 9,1 C 10,0 C 14,5 km/h (3 Bft) 96,00 %
07.06.2017 03:22 11,4 C 21,7 C 86 % 1013,1 hPa 0,0 l/m 8,3 km/h (2 Bft) SW 217 0 min 0,000 mm 0,0 UV-I 0 W/m 9,1 C 10,1 C 14,5 km/h (3 Bft) 95,12 %
07.06.2017 03:24 11,4 C 21,7 C 86 % 1013,0 hPa 0,0 l/m 10,2 km/h (2 Bft) SW 216 0 min 0,000 mm 0,0 UV-I 0 W/m 9,1 C 9,0 C 16,1 km/h (3 Bft) 100,00 %
07.06.2017 03:26 11,3 C 21,7 C 86 % 1013,0 hPa 0,0 l/m 6,8 km/h (2 Bft) SW 228 0 min 0,000 mm 0,0 UV-I 0 W/m 9,0 C 11,0 C 9,7 km/h (2 Bft) 98,21 %
07.06.2017 03:28 11,3 C 21,7 C 86 % 1013,0 hPa 0,0 l/m 7,4 km/h (2 Bft) SW 223 0 min 0,000 mm 0,0 UV-I 0 W/m 9,0 C 10,6 C 12,9 km/h (3 Bft) 100,00 %
07.06.2017 03:30 11,3 C 21,7 C 86 % 1013,0 hPa 0,0 l/m 8,2 km/h (2 Bft) SW 221 0 min 0,000 mm 0,0 UV-I 0 W/m 9,0 C 10,1 C 14,5 km/h (3 Bft) 100,00 %
07.06.2017 03:32 11,3 C 21,7 C 86 % 1013,0 hPa 0,0 l/m 7,5 km/h (2 Bft) SW 224 0 min 0,000 mm 0,0 UV-I 0 W/m 9,0 C 10,5 C 12,9 km/h (3 Bft) 100,00 %
07.06.2017 03:34 11,3 C 21,7 C 86 % 1013,0 hPa 0,0 l/m 7,2 km/h (2 Bft) SW 225 0 min 0,000 mm 0,0 UV-I 0 W/m 9,0 C 10,8 C 11,3 km/h (2 Bft) 98,28 %
07.06.2017 03:36 11,3 C 21,7 C 86 % 1013,1 hPa 0,0 l/m 4,7 km/h (1 Bft) SW 223 0 min 0,000 mm 0,0 UV-I 0 W/m 9,0 C 11,3 C 8,0 km/h (2 Bft) 98,00 %
07.06.2017 03:38 11,3 C 21,7 C 87 % 1013,1 hPa 0,0 l/m 6,2 km/h (2 Bft) S-SW 211 0 min 0,000 mm 0,0 UV-I 0 W/m 9,2 C 11,3 C 11,3 km/h (2 Bft) 100,00 %
07.06.2017 03:40 11,2 C 21,7 C 87 % 1013,2 hPa 0,0 l/m 6,6 km/h (2 Bft) SW 216 0 min 0,000 mm 0,0 UV-I 0 W/m 9,1 C 11,1 C 9,7 km/h (2 Bft) 98,00 %
07.06.2017 03:42 11,2 C 21,7 C 87 % 1013,2 hPa 0,0 l/m 7,8 km/h (2 Bft) SW 225 0 min 0,000 mm 0,0 UV-I 0 W/m 9,1 C 10,2 C 12,9 km/h (3 Bft) 100,00 %
07.06.2017 03:44 11,2 C 21,7 C 87 % 1013,1 hPa 0,0 l/m 6,9 km/h (2 Bft) W-SW 241 0 min 0,000 mm 0,0 UV-I 0 W/m 9,1 C 10,9 C 9,7 km/h (2 Bft) 95,24 %
07.06.2017 03:46 11,2 C 21,7 C 87 % 1013,2 hPa 0,0 l/m 7,3 km/h (2 Bft) S-SW 206 0 min 0,000 mm 0,0 UV-I 0 W/m 9,1 C 10,6 C 11,3 km/h (2 Bft) 100,00 %
07.06.2017 03:48 11,2 C 21,7 C 87 % 1013,2 hPa 0,0 l/m 8,3 km/h (2 Bft) W-SW 240 0 min 0,000 mm 0,0 UV-I 0 W/m 9,1 C 9,9 C 12,9 km/h (3 Bft) 96,00 %
07.06.2017 03:50 11,2 C 21,7 C 87 % 1013,2 hPa 0,0 l/m 8,6 km/h (2 Bft) W-SW 252 0 min 0,000 mm 0,0 UV-I 0 W/m 9,1 C 9,7 C 12,9 km/h (3 Bft) 97,87 %
07.06.2017 03:52 11,1 C 21,7 C 87 % 1013,3 hPa 0,0 l/m 7,7 km/h (2 Bft) SW 234 0 min 0,000 mm 0,0 UV-I 0 W/m 9,0 C 10,2 C 11,3 km/h (2 Bft) 98,00 %
07.06.2017 03:54 11,1 C 21,7 C 87 % 1013,2 hPa 0,0 l/m 7,1 km/h (2 Bft) SW 225 0 min 0,000 mm 0,0 UV-I 0 W/m 9,0 C 10,6 C 12,9 km/h (3 Bft) 100,00 %
07.06.2017 03:56 11,1 C 21,7 C 87 % 1013,3 hPa 0,0 l/m 9,5 km/h (2 Bft) SW 236 0 min 0,000 mm 0,0 UV-I 0 W/m 9,0 C 9,1 C 16,1 km/h (3 Bft) 98,11 %
07.06.2017 03:58 11,1 C 21,7 C 87 % 1013,3 hPa 0,0 l/m 8,6 km/h (2 Bft) SW 218 0 min 0,000 mm 0,0 UV-I 0 W/m 9,0 C 9,6 C 12,9 km/h (3 Bft) 98,11 %
07.06.2017 04:00 11,1 C 21,7 C 87 % 1013,3 hPa 0,0 l/m 8,7 km/h (2 Bft) SW 227 0 min 0,026 mm 0,0 UV-I 0 W/m 9,0 C 9,6 C 12,9 km/h (3 Bft) 100,00 %
07.06.2017 04:02 11,1 C 21,7 C 87 % 1013,3 hPa 0,0 l/m 8,0 km/h (2 Bft) S-SW 200 0 min 0,000 mm 0,0 UV-I 0 W/m 9,0 C 10,0 C 8,0 km/h (2 Bft) 100,00 %
07.06.2017 04:04 11,1 C 21,7 C 87 % 1013,3 hPa 0,0 l/m 8,3 km/h (2 Bft) SW 223 0 min 0,000 mm 0,0 UV-I 0 W/m 9,0 C 9,8 C 14,5 km/h (3 Bft) 100,00 %
07.06.2017 04:06 11,1 C 21,7 C 87 % 1013,3 hPa 0,0 l/m 8,1 km/h (2 Bft) W-SW 240 0 min 0,000 mm 0,0 UV-I 0 W/m 9,0 C 9,9 C 14,5 km/h (3 Bft) 100,00 %
07.06.2017 04:08 11,1 C 21,7 C 87 % 1013,4 hPa 0,0 l/m 9,1 km/h (2 Bft) S-SW 203 0 min 0,000 mm 0,0 UV-I 0 W/m 9,0 C 9,3 C 14,5 km/h (3 Bft) 97,56 %
07.06.2017 04:10 11,1 C 21,7 C 87 % 1013,3 hPa 0,0 l/m 8,7 km/h (2 Bft) SW 232 0 min 0,000 mm 0,0 UV-I 0 W/m 9,0 C 9,6 C 14,5 km/h (3 Bft) 100,00 %
07.06.2017 04:12 11,1 C 21,7 C 87 % 1013,3 hPa 0,0 l/m 7,8 km/h (2 Bft) SW 235 0 min 0,000 mm 0,0 UV-I 0 W/m 9,0 C 10,1 C 16,1 km/h (3 Bft) 97,62 %
07.06.2017 04:14 11,1 C 21,7 C 87 % 1013,3 hPa 0,0 l/m 6,6 km/h (2 Bft) SW 233 0 min 0,000 mm 0,0 UV-I 0 W/m 9,0 C 11,0 C 9,7 km/h (2 Bft) 96,15 %
07.06.2017 04:16 11,2 C 21,7 C 87 % 1013,3 hPa 0,0 l/m 7,2 km/h (2 Bft) W-SW 240 0 min 0,000 mm 0,0 UV-I 0 W/m 9,1 C 10,6 C 11,3 km/h (2 Bft) 97,62 %
07.06.2017 04:18 11,1 C 21,7 C 87 % 1013,3 hPa 0,0 l/m 8,0 km/h (2 Bft) SW 235 0 min 0,000 mm 0,0 UV-I 0 W/m 9,0 C 10,0 C 11,3 km/h (2 Bft) 94,74 %
07.06.2017 04:20 11,1 C 21,7 C 87 % 1013,4 hPa 0,0 l/m 7,0 km/h (2 Bft) SW 222 0 min 0,000 mm 0,0 UV-I 0 W/m 9,0 C 10,7 C 11,3 km/h (2 Bft) 98,39 %
07.06.2017 04:22 11,1 C 21,7 C 86 % 1013,3 hPa 0,0 l/m 5,7 km/h (1 Bft) S-SW 205 0 min 0,000 mm 0,0 UV-I 0 W/m 8,8 C 11,1 C 9,7 km/h (2 Bft) 95,12 %
07.06.2017 04:24 11,1 C 21,7 C 86 % 1013,4 hPa 0,0 l/m 5,3 km/h (1 Bft) SW 231 0 min 0,000 mm 0,0 UV-I 0 W/m 8,8 C 11,1 C 8,0 km/h (2 Bft) 97,87 %
07.06.2017 04:26 11,1 C 21,7 C 86 % 1013,3 hPa 0,0 l/m 6,2 km/h (2 Bft) SW 231 0 min 0,000 mm 0,0 UV-I 0 W/m 8,8 C 11,1 C 9,7 km/h (2 Bft) 95,74 %
07.06.2017 04:28 11,1 C 21,7 C 86 % 1013,3 hPa 0,0 l/m 6,2 km/h (2 Bft) S-SW 206 0 min 0,000 mm 0,0 UV-I 0 W/m 8,8 C 11,1 C 9,7 km/h (2 Bft) 91,49 %
07.06.2017 04:30 11,1 C 21,7 C 86 % 1013,4 hPa 0,0 l/m 5,1 km/h (1 Bft) SW 219 0 min 0,000 mm 0,0 UV-I 0 W/m 8,8 C 11,1 C 9,7 km/h (2 Bft) 98,21 %
07.06.2017 04:32 11,1 C 21,7 C 86 % 1013,4 hPa 0,0 l/m 6,3 km/h (2 Bft) SW 234 0 min 0,000 mm 0,0 UV-I 0 W/m 8,8 C 11,1 C 11,3 km/h (2 Bft) 89,47 %
07.06.2017 04:34 11,1 C 21,7 C 86 % 1013,4 hPa 0,0 l/m 6,2 km/h (2 Bft) S-SW 212 0 min 0,000 mm 0,0 UV-I 0 W/m 8,8 C 11,1 C 9,7 km/h (2 Bft) 98,00 %
07.06.2017 04:36 11,1 C 21,7 C 86 % 1013,4 hPa 0,0 l/m 5,7 km/h (1 Bft) SW 215 0 min 0,000 mm 0,0 UV-I 0 W/m 8,8 C 11,1 C 8,0 km/h (2 Bft) 96,00 %
07.06.2017 04:38 11,0 C 21,7 C 86 % 1013,4 hPa 0,0 l/m 4,5 km/h (1 Bft) SW 215 0 min 0,000 mm 0,0 UV-I 0 W/m 8,7 C 11,0 C 6,4 km/h (2 Bft) 95,74 %
07.06.2017 04:40 11,0 C 21,7 C 86 % 1013,4 hPa 0,0 l/m 5,3 km/h (1 Bft) SW 215 0 min 0,000 mm 0,0 UV-I 0 W/m 8,7 C 11,0 C 8,0 km/h (2 Bft) 97,56 %
07.06.2017 04:42 10,9 C 21,7 C 86 % 1013,5 hPa 0,0 l/m 5,2 km/h (1 Bft) SW 215 0 min 0,000 mm 0,0 UV-I 0 W/m 8,7 C 10,9 C 8,0 km/h (2 Bft) 94,00 %
07.06.2017 04:44 10,9 C 21,7 C 87 % 1013,5 hPa 0,0 l/m 6,6 km/h (2 Bft) SW 234 0 min 0,000 mm 0,0 UV-I 0 W/m 8,8 C 10,8 C 8,0 km/h (2 Bft) 97,56 %
07.06.2017 04:46 10,9 C 21,7 C 87 % 1013,6 hPa 0,0 l/m 5,7 km/h (1 Bft) SW 214 0 min 0,000 mm 0,0 UV-I 0 W/m 8,8 C 10,9 C 8,0 km/h (2 Bft) 96,23 %
07.06.2017 04:48 10,9 C 21,7 C 87 % 1013,6 hPa 0,0 l/m 7,1 km/h (2 Bft) S-SW 212 0 min 0,000 mm 0,0 UV-I 0 W/m 8,8 C 10,4 C 9,7 km/h (2 Bft) 97,87 %
07.06.2017 04:50 10,9 C 21,7 C 87 % 1013,8 hPa 0,0 l/m 7,5 km/h (2 Bft) SW 217 0 min 0,000 mm 0,0 UV-I 0 W/m 8,8 C 10,1 C 11,3 km/h (2 Bft) 95,12 %
07.06.2017 04:52 10,9 C 21,7 C 87 % 1013,7 hPa 0,0 l/m 6,8 km/h (2 Bft) SW 214 0 min 0,000 mm 0,0 UV-I 0 W/m 8,8 C 10,6 C 9,7 km/h (2 Bft) 100,00 %
07.06.2017 04:54 10,9 C 21,7 C 87 % 1013,8 hPa 0,0 l/m 7,4 km/h (2 Bft) SW 229 0 min 0,000 mm 0,0 UV-I 5 W/m 8,8 C 10,2 C 9,7 km/h (2 Bft) 100,00 %
07.06.2017 04:56 10,9 C 21,7 C 87 % 1013,9 hPa 0,0 l/m 7,5 km/h (2 Bft) W-SW 242 0 min 0,000 mm 0,0 UV-I 5 W/m 8,8 C 10,1 C 11,3 km/h (2 Bft) 100,00 %
07.06.2017 04:58 10,9 C 21,7 C 88 % 1013,9 hPa 0,0 l/m 8,1 km/h (2 Bft) SW 230 0 min 0,000 mm 0,0 UV-I 5 W/m 9,0 C 9,7 C 12,9 km/h (3 Bft) 100,00 %
07.06.2017 05:00 10,9 C 21,7 C 88 % 1013,9 hPa 0,0 l/m 7,0 km/h (2 Bft) S-SW 213 0 min 0,025 mm 0,0 UV-I 5 W/m 9,0 C 10,5 C 11,3 km/h (2 Bft) 98,11 %
07.06.2017 05:02 10,9 C 21,7 C 88 % 1014,0 hPa 0,0 l/m 7,2 km/h (2 Bft) SW 217 0 min 0,000 mm 0,0 UV-I 5 W/m 9,0 C 10,3 C 9,7 km/h (2 Bft) 92,11 %
07.06.2017 05:04 10,8 C 21,7 C 88 % 1014,0 hPa 0,0 l/m 6,8 km/h (2 Bft) SW 225 0 min 0,000 mm 0,0 UV-I 5 W/m 8,9 C 10,5 C 9,7 km/h (2 Bft) 100,00 %
07.06.2017 05:06 10,8 C 21,7 C 88 % 1014,0 hPa 0,0 l/m 7,5 km/h (2 Bft) S 175 0 min 0,000 mm 0,0 UV-I 7 W/m 8,9 C 10,0 C 11,3 km/h (2 Bft) 98,00 %
07.06.2017 05:08 10,8 C 21,7 C 88 % 1014,0 hPa 0,0 l/m 7,1 km/h (2 Bft) SW 221 0 min 0,000 mm 0,0 UV-I 7 W/m 8,9 C 10,3 C 12,9 km/h (3 Bft) 100,00 %
07.06.2017 05:10 10,8 C 21,7 C 88 % 1014,1 hPa 0,0 l/m 7,4 km/h (2 Bft) SW 216 0 min 0,000 mm 0,0 UV-I 7 W/m 8,9 C 10,1 C 11,3 km/h (2 Bft) 91,49 %
07.06.2017 05:12 10,8 C 21,7 C 88 % 1014,2 hPa 0,0 l/m 7,5 km/h (2 Bft) S-SW 211 0 min 0,000 mm 0,0 UV-I 8 W/m 8,9 C 10,0 C 9,7 km/h (2 Bft) 95,74 %
07.06.2017 05:14 10,8 C 21,7 C 88 % 1014,2 hPa 0,0 l/m 6,1 km/h (2 Bft) S 188 0 min 0,000 mm 0,0 UV-I 9 W/m 8,9 C 10,8 C 9,7 km/h (2 Bft) 94,74 %
07.06.2017 05:16 10,8 C 21,7 C 88 % 1014,2 hPa 0,0 l/m 7,6 km/h (2 Bft) S-SW 202 0 min 0,000 mm 0,0 UV-I 11 W/m 8,9 C 10,0 C 11,3 km/h (2 Bft) 94,00 %
07.06.2017 05:18 10,8 C 21,7 C 87 % 1014,2 hPa 0,0 l/m 9,3 km/h (2 Bft) SW 229 2 min 0,000 mm 0,0 UV-I 11 W/m 8,7 C 8,9 C 16,1 km/h (3 Bft) 96,00 %
07.06.2017 05:20 10,9 C 21,7 C 87 % 1014,2 hPa 0,0 l/m 7,8 km/h (2 Bft) SW 217 2 min 0,000 mm 0,0 UV-I 12 W/m 8,8 C 9,9 C 11,3 km/h (2 Bft) 97,87 %
07.06.2017 05:22 10,9 C 21,7 C 86 % 1014,2 hPa 0,0 l/m 6,9 km/h (2 Bft) W-SW 242 0 min 0,000 mm 0,0 UV-I 13 W/m 8,7 C 10,6 C 9,7 km/h (2 Bft) 96,00 %
07.06.2017 05:24 10,9 C 21,7 C 86 % 1014,3 hPa 0,0 l/m 7,1 km/h (2 Bft) SW 229 0 min 0,000 mm 0,0 UV-I 15 W/m 8,7 C 10,4 C 11,3 km/h (2 Bft) 97,56 %
07.06.2017 05:26 11,0 C 21,7 C 86 % 1014,3 hPa 0,0 l/m 8,9 km/h (2 Bft) SW 223 0 min 0,000 mm 0,0 UV-I 16 W/m 8,7 C 9,3 C 12,9 km/h (3 Bft) 93,18 %
07.06.2017 05:28 11,0 C 21,7 C 86 % 1014,3 hPa 0,0 l/m 6,9 km/h (2 Bft) SW 227 0 min 0,000 mm 0,0 UV-I 16 W/m 8,7 C 10,7 C 11,3 km/h (2 Bft) 97,56 %
07.06.2017 05:30 11,0 C 21,7 C 86 % 1014,4 hPa 0,0 l/m 8,1 km/h (2 Bft) W-SW 237 0 min 0,000 mm 0,0 UV-I 18 W/m 8,7 C 9,8 C 14,5 km/h (3 Bft) 93,55 %
07.06.2017 05:32 11,0 C 21,7 C 86 % 1014,4 hPa 0,0 l/m 7,9 km/h (2 Bft) SW 236 0 min 0,000 mm 0,0 UV-I 20 W/m 8,7 C 10,0 C 14,5 km/h (3 Bft) 95,12 %
07.06.2017 05:34 11,0 C 21,7 C 86 % 1014,4 hPa 0,0 l/m 7,4 km/h (2 Bft) W-SW 254 0 min 0,000 mm 0,0 UV-I 22 W/m 8,7 C 10,3 C 12,9 km/h (3 Bft) 93,62 %
07.06.2017 05:36 11,0 C 21,7 C 86 % 1014,5 hPa 0,0 l/m 8,1 km/h (2 Bft) SW 231 0 min 0,000 mm 0,0 UV-I 25 W/m 8,7 C 9,8 C 12,9 km/h (3 Bft) 96,00 %
07.06.2017 05:38 11,0 C 21,7 C 86 % 1014,6 hPa 0,0 l/m 7,0 km/h (2 Bft) SW 232 0 min 0,000 mm 0,0 UV-I 25 W/m 8,7 C 10,6 C 11,3 km/h (2 Bft) 94,87 %
07.06.2017 05:40 11,0 C 21,7 C 86 % 1014,6 hPa 0,0 l/m 7,5 km/h (2 Bft) SW 235 0 min 0,000 mm 0,0 UV-I 27 W/m 8,7 C 10,2 C 11,3 km/h (2 Bft) 94,00 %
07.06.2017 05:42 11,1 C 21,7 C 86 % 1014,6 hPa 0,0 l/m 7,7 km/h (2 Bft) SW 235 0 min 0,000 mm 0,0 UV-I 29 W/m 8,8 C 10,2 C 11,3 km/h (2 Bft) 98,11 %
07.06.2017 05:44 11,1 C 21,7 C 86 % 1014,7 hPa 0,0 l/m 7,7 km/h (2 Bft) SW 234 0 min 0,000 mm 0,0 UV-I 30 W/m 8,8 C 10,2 C 14,5 km/h (3 Bft) 97,56 %
07.06.2017 05:46 11,1 C 21,7 C 85 % 1014,7 hPa 0,0 l/m 6,6 km/h (2 Bft) SW 219 0 min 0,000 mm 0,0 UV-I 31 W/m 8,7 C 11,0 C 9,7 km/h (2 Bft) 97,87 %
07.06.2017 05:48 11,1 C 21,7 C 85 % 1014,7 hPa 0,0 l/m 8,0 km/h (2 Bft) W 265 0 min 0,000 mm 0,0 UV-I 33 W/m 8,7 C 10,0 C 11,3 km/h (2 Bft) 96,00 %
07.06.2017 05:50 11,1 C 21,7 C 85 % 1014,7 hPa 0,0 l/m 6,9 km/h (2 Bft) SW 231 0 min 0,000 mm 0,0 UV-I 36 W/m 8,7 C 10,8 C 12,9 km/h (3 Bft) 97,56 %
07.06.2017 05:52 11,1 C 21,7 C 85 % 1014,8 hPa 0,0 l/m 6,3 km/h (2 Bft) SW 225 0 min 0,000 mm 0,0 UV-I 39 W/m 8,7 C 11,1 C 11,3 km/h (2 Bft) 96,23 %
07.06.2017 05:54 11,1 C 21,7 C 85 % 1014,8 hPa 0,0 l/m 8,7 km/h (2 Bft) SW 228 0 min 0,000 mm 0,0 UV-I 37 W/m 8,7 C 9,6 C 16,1 km/h (3 Bft) 95,12 %
07.06.2017 05:56 11,2 C 21,7 C 85 % 1014,8 hPa 0,0 l/m 6,5 km/h (2 Bft) SW 225 0 min 0,000 mm 0,0 UV-I 39 W/m 8,8 C 11,2 C 8,0 km/h (2 Bft) 95,12 %
07.06.2017 05:58 11,2 C 21,7 C 85 % 1014,8 hPa 0,0 l/m 6,3 km/h (2 Bft) SW 227 0 min 0,000 mm 0,0 UV-I 40 W/m 8,8 C 11,2 C 8,0 km/h (2 Bft) 96,36 %
07.06.2017 06:00 11,1 C 21,7 C 85 % 1014,8 hPa 0,0 l/m 7,3 km/h (2 Bft) SW 214 0 min 0,026 mm 0,0 UV-I 42 W/m 8,7 C 10,5 C 12,9 km/h (3 Bft) 94,34 %
07.06.2017 06:02 11,1 C 21,7 C 85 % 1014,9 hPa 0,0 l/m 8,0 km/h (2 Bft) W-SW 257 0 min 0,000 mm 0,0 UV-I 46 W/m 8,7 C 10,0 C 12,9 km/h (3 Bft) 95,12 %
07.06.2017 06:04 11,1 C 21,7 C 84 % 1014,9 hPa 0,0 l/m 8,5 km/h (2 Bft) SW 236 0 min 0,000 mm 0,0 UV-I 50 W/m 8,5 C 9,7 C 12,9 km/h (3 Bft) 97,37 %
07.06.2017 06:06 11,2 C 21,7 C 84 % 1014,9 hPa 0,0 l/m 8,8 km/h (2 Bft) W-SW 245 0 min 0,000 mm 0,0 UV-I 57 W/m 8,6 C 9,6 C 16,1 km/h (3 Bft) 96,23 %
07.06.2017 06:08 11,2 C 21,7 C 84 % 1014,9 hPa 0,0 l/m 6,5 km/h (2 Bft) SW 214 0 min 0,000 mm 0,0 UV-I 67 W/m 8,6 C 11,2 C 11,3 km/h (2 Bft) 96,23 %
07.06.2017 06:10 11,2 C 21,7 C 84 % 1014,8 hPa 0,0 l/m 8,9 km/h (2 Bft) SW 232 0 min 0,000 mm 0,0 UV-I 60 W/m 8,6 C 9,6 C 14,5 km/h (3 Bft) 97,44 %
07.06.2017 06:12 11,2 C 21,7 C 83 % 1014,9 hPa 0,0 l/m 7,5 km/h (2 Bft) S-SW 209 2 min 0,000 mm 0,0 UV-I 84 W/m 8,4 C 10,4 C 17,7 km/h (3 Bft) 97,96 %
07.06.2017 06:14 11,2 C 21,1 C 83 % 1014,9 hPa 0,0 l/m 10,2 km/h (2 Bft) W-SW 237 2 min 0,000 mm 0,0 UV-I 88 W/m 8,4 C 8,8 C 16,1 km/h (3 Bft) 100,00 %
07.06.2017 06:16 11,2 C 21,7 C 83 % 1014,9 hPa 0,0 l/m 6,8 km/h (2 Bft) W-SW 250 2 min 0,000 mm 0,0 UV-I 102 W/m 8,4 C 10,9 C 11,3 km/h (2 Bft) 93,33 %
07.06.2017 06:18 11,3 C 21,7 C 83 % 1014,9 hPa 0,0 l/m 7,5 km/h (2 Bft) W-SW 251 2 min 0,000 mm 0,0 UV-I 113 W/m 8,5 C 10,5 C 11,3 km/h (2 Bft) 93,55 %
07.06.2017 06:20 11,3 C 21,1 C 83 % 1015,0 hPa 0,0 l/m 8,7 km/h (2 Bft) W-SW 252 0 min 0,000 mm 0,0 UV-I 70 W/m 8,5 C 9,8 C 14,5 km/h (3 Bft) 95,12 %
07.06.2017 06:22 11,3 C 21,1 C 83 % 1015,0 hPa 0,0 l/m 7,9 km/h (2 Bft) W-SW 255 0 min 0,000 mm 0,0 UV-I 59 W/m 8,5 C 10,3 C 11,3 km/h (2 Bft) 97,87 %
07.06.2017 06:24 11,2 C 21,1 C 83 % 1015,1 hPa 0,0 l/m 9,3 km/h (2 Bft) W-SW 249 0 min 0,000 mm 0,0 UV-I 61 W/m 8,4 C 9,3 C 12,9 km/h (3 Bft) 96,00 %
07.06.2017 06:26 11,2 C 21,1 C 82 % 1015,1 hPa 0,0 l/m 9,5 km/h (2 Bft) W-SW 240 0 min 0,000 mm 0,0 UV-I 60 W/m 8,2 C 9,2 C 14,5 km/h (3 Bft) 93,18 %
07.06.2017 06:28 11,2 C 21,1 C 82 % 1015,1 hPa 0,0 l/m 10,1 km/h (2 Bft) SW 227 0 min 0,000 mm 0,0 UV-I 61 W/m 8,2 C 8,9 C 16,1 km/h (3 Bft) 97,50 %
07.06.2017 06:30 11,2 C 21,1 C 82 % 1015,2 hPa 0,0 l/m 7,8 km/h (2 Bft) W 261 0 min 0,000 mm 0,0 UV-I 65 W/m 8,2 C 10,2 C 14,5 km/h (3 Bft) 96,43 %
07.06.2017 06:32 11,2 C 21,1 C 83 % 1015,2 hPa 0,0 l/m 7,7 km/h (2 Bft) W-SW 239 0 min 0,000 mm 0,0 UV-I 67 W/m 8,4 C 10,3 C 17,7 km/h (3 Bft) 96,23 %
07.06.2017 06:34 11,2 C 21,1 C 83 % 1015,2 hPa 0,0 l/m 6,7 km/h (2 Bft) W-SW 244 0 min 0,000 mm 0,0 UV-I 89 W/m 8,4 C 11,0 C 9,7 km/h (2 Bft) 95,74 %
07.06.2017 06:36 11,2 C 21,1 C 83 % 1015,2 hPa 0,0 l/m 6,1 km/h (2 Bft) SW 229 0 min 0,000 mm 0,0 UV-I 100 W/m 8,4 C 11,2 C 8,0 km/h (2 Bft) 100,00 %
07.06.2017 06:38 11,2 C 21,1 C 83 % 1015,2 hPa 0,0 l/m 6,1 km/h (2 Bft) SW 227 2 min 0,000 mm 0,0 UV-I 131 W/m 8,4 C 11,2 C 8,0 km/h (2 Bft) 98,11 %
07.06.2017 06:40 11,2 C 21,1 C 83 % 1015,3 hPa 0,0 l/m 7,2 km/h (2 Bft) SW 232 2 min 0,000 mm 0,0 UV-I 133 W/m 8,4 C 10,6 C 12,9 km/h (3 Bft) 95,45 %
07.06.2017 06:42 11,2 C 21,1 C 84 % 1015,3 hPa 0,0 l/m 5,0 km/h (1 Bft) S-SW 203 2 min 0,000 mm 0,0 UV-I 177 W/m 8,6 C 11,2 C 6,4 km/h (2 Bft) 94,00 %
07.06.2017 06:44 11,3 C 21,1 C 84 % 1015,3 hPa 0,0 l/m 5,0 km/h (1 Bft) W-SW 237 2 min 0,000 mm 0,0 UV-I 213 W/m 8,7 C 11,3 C 8,0 km/h (2 Bft) 95,12 %
07.06.2017 06:46 11,3 C 21,1 C 84 % 1015,3 hPa 0,0 l/m 6,5 km/h (2 Bft) S-SW 198 2 min 0,000 mm 0,0 UV-I 215 W/m 8,7 C 11,3 C 11,3 km/h (2 Bft) 93,62 %
07.06.2017 06:48 11,4 C 21,1 C 83 % 1015,3 hPa 0,0 l/m 6,8 km/h (2 Bft) S-SW 205 0 min 0,000 mm 0,0 UV-I 127 W/m 8,6 C 11,1 C 11,3 km/h (2 Bft) 98,00 %
07.06.2017 06:50 11,4 C 21,1 C 83 % 1015,4 hPa 0,0 l/m 6,2 km/h (2 Bft) SW 226 2 min 0,000 mm 0,0 UV-I 177 W/m 8,6 C 11,4 C 9,7 km/h (2 Bft) 95,83 %
07.06.2017 06:52 11,5 C 21,7 C 83 % 1015,4 hPa 0,0 l/m 6,1 km/h (2 Bft) SW 226 0 min 0,000 mm 0,0 UV-I 93 W/m 8,7 C 11,5 C 9,7 km/h (2 Bft) 94,29 %
07.06.2017 06:54 11,5 C 21,7 C 83 % 1015,4 hPa 0,0 l/m 6,5 km/h (2 Bft) SW 223 0 min 0,000 mm 0,0 UV-I 106 W/m 8,7 C 11,5 C 9,7 km/h (2 Bft) 92,86 %
07.06.2017 06:56 11,5 C 21,7 C 83 % 1015,4 hPa 0,0 l/m 6,7 km/h (2 Bft) S-SW 203 0 min 0,000 mm 0,0 UV-I 104 W/m 8,7 C 11,3 C 9,7 km/h (2 Bft) 94,55 %
07.06.2017 06:58 11,6 C 21,7 C 82 % 1015,4 hPa 0,0 l/m 7,9 km/h (2 Bft) S-SW 202 0 min 0,000 mm 0,0 UV-I 133 W/m 8,6 C 10,6 C 12,9 km/h (3 Bft) 97,44 %
07.06.2017 07:00 11,6 C 21,1 C 82 % 1015,4 hPa 0,0 l/m 7,7 km/h (2 Bft) S-SW 193 2 min 0,050 mm 0,0 UV-I 208 W/m 8,6 C 10,7 C 14,5 km/h (3 Bft) 97,87 %
07.06.2017 07:02 11,6 C 21,7 C 82 % 1015,4 hPa 0,0 l/m 8,7 km/h (2 Bft) SW 235 0 min 0,000 mm 0,0 UV-I 69 W/m 8,6 C 10,1 C 14,5 km/h (3 Bft) 100,00 %
07.06.2017 07:04 11,7 C 21,7 C 82 % 1015,4 hPa 0,0 l/m 8,7 km/h (2 Bft) S-SW 208 2 min 0,000 mm 0,0 UV-I 188 W/m 8,7 C 10,2 C 14,5 km/h (3 Bft) 97,56 %
07.06.2017 07:06 11,8 C 21,7 C 81 % 1015,4 hPa 0,0 l/m 8,8 km/h (2 Bft) S-SW 196 2 min 0,000 mm 0,0 UV-I 257 W/m 8,6 C 10,3 C 12,9 km/h (3 Bft) 100,00 %
07.06.2017 07:08 11,9 C 21,7 C 81 % 1015,4 hPa 0,0 l/m 11,7 km/h (2 Bft) SW 229 2 min 0,000 mm 0,0 UV-I 247 W/m 8,7 C 8,8 C 19,3 km/h (3 Bft) 94,74 %
07.06.2017 07:10 12,1 C 21,7 C 80 % 1015,4 hPa 0,0 l/m 11,8 km/h (2 Bft) SW 214 2 min 0,000 mm 0,0 UV-I 269 W/m 8,8 C 9,0 C 17,7 km/h (3 Bft) 100,00 %
07.06.2017 07:12 12,2 C 21,7 C 80 % 1015,4 hPa 0,0 l/m 11,3 km/h (2 Bft) SW 235 2 min 0,000 mm 0,0 UV-I 270 W/m 8,9 C 9,4 C 17,7 km/h (3 Bft) 100,00 %
07.06.2017 07:14 12,3 C 21,7 C 79 % 1015,4 hPa 0,0 l/m 11,8 km/h (2 Bft) SW 232 2 min 0,000 mm 0,4 UV-I 294 W/m 8,8 C 9,3 C 17,7 km/h (3 Bft) 98,11 %
07.06.2017 07:16 12,3 C 21,7 C 80 % 1015,5 hPa 0,0 l/m 9,4 km/h (2 Bft) SW 217 2 min 0,000 mm 0,0 UV-I 198 W/m 8,9 C 10,5 C 14,5 km/h (3 Bft) 100,00 %
07.06.2017 07:18 12,3 C 21,7 C 80 % 1015,5 hPa 0,0 l/m 8,3 km/h (2 Bft) S-SW 211 0 min 0,000 mm 0,2 UV-I 118 W/m 8,9 C 11,1 C 11,3 km/h (2 Bft) 100,00 %
07.06.2017 07:20 12,3 C 21,7 C 79 % 1015,5 hPa 0,0 l/m 12,6 km/h (3 Bft) SW 215 0 min 0,000 mm 0,5 UV-I 134 W/m 8,8 C 8,9 C 20,9 km/h (4 Bft) 96,23 %
07.06.2017 07:22 12,3 C 21,7 C 78 % 1015,5 hPa 0,0 l/m 11,4 km/h (2 Bft) W-SW 241 2 min 0,000 mm 0,5 UV-I 238 W/m 8,6 C 9,4 C 20,9 km/h (4 Bft) 95,12 %
07.06.2017 07:24 12,4 C 21,7 C 79 % 1015,6 hPa 0,0 l/m 7,9 km/h (2 Bft) W-SW 243 2 min 0,000 mm 0,6 UV-I 328 W/m 8,9 C 11,4 C 16,1 km/h (3 Bft) 96,00 %
07.06.2017 07:26 12,6 C 21,7 C 77 % 1015,6 hPa 0,0 l/m 11,5 km/h (2 Bft) W-SW 240 2 min 0,000 mm 0,6 UV-I 336 W/m 8,7 C 9,7 C 19,3 km/h (3 Bft) 97,73 %
07.06.2017 07:28 12,6 C 21,1 C 77 % 1015,6 hPa 0,0 l/m 11,9 km/h (2 Bft) W-SW 240 2 min 0,000 mm 0,6 UV-I 349 W/m 8,7 C 9,6 C 19,3 km/h (3 Bft) 100,00 %
07.06.2017 07:30 12,7 C 21,1 C 77 % 1015,6 hPa 0,0 l/m 10,6 km/h (2 Bft) SW 229 2 min 0,000 mm 0,6 UV-I 359 W/m 8,8 C 10,3 C 16,1 km/h (3 Bft) 95,12 %
07.06.2017 07:32 12,8 C 21,1 C 77 % 1015,7 hPa 0,0 l/m 9,0 km/h (2 Bft) SW 221 2 min 0,000 mm 0,6 UV-I 332 W/m 8,9 C 11,2 C 16,1 km/h (3 Bft) 100,00 %
07.06.2017 07:34 12,9 C 21,1 C 78 % 1015,7 hPa 0,0 l/m 10,3 km/h (2 Bft) W 259 2 min 0,000 mm 0,7 UV-I 304 W/m 9,2 C 10,6 C 14,5 km/h (3 Bft) 96,23 %
07.06.2017 07:36 13,1 C 21,1 C 77 % 1015,7 hPa 0,0 l/m 9,1 km/h (2 Bft) SW 236 2 min 0,000 mm 0,7 UV-I 366 W/m 9,2 C 11,5 C 16,1 km/h (3 Bft) 100,00 %
07.06.2017 07:38 13,1 C 20,6 C 76 % 1015,8 hPa 0,0 l/m 12,4 km/h (3 Bft) W-SW 244 2 min 0,000 mm 0,6 UV-I 387 W/m 9,0 C 9,9 C 20,9 km/h (4 Bft) 98,11 %
07.06.2017 07:40 13,0 C 20,6 C 75 % 1015,7 hPa 0,0 l/m 10,8 km/h (2 Bft) W 262 2 min 0,000 mm 0,6 UV-I 289 W/m 8,7 C 10,5 C 16,1 km/h (3 Bft) 97,56 %
07.06.2017 07:42 12,9 C 20,6 C 75 % 1015,7 hPa 0,0 l/m 14,3 km/h (3 Bft) W-SW 238 2 min 0,000 mm 0,6 UV-I 238 W/m 8,6 C 8,9 C 20,9 km/h (4 Bft) 98,11 %
07.06.2017 07:44 12,8 C 20,6 C 75 % 1015,8 hPa 0,0 l/m 11,0 km/h (2 Bft) W 262 0 min 0,000 mm 0,6 UV-I 188 W/m 8,5 C 10,2 C 16,1 km/h (3 Bft) 98,00 %
07.06.2017 07:46 12,8 C 20,6 C 76 % 1015,8 hPa 0,0 l/m 13,8 km/h (3 Bft) SW 236 0 min 0,000 mm 0,6 UV-I 130 W/m 8,7 C 9,0 C 17,7 km/h (3 Bft) 97,87 %
07.06.2017 07:48 12,8 C 20,6 C 76 % 1015,8 hPa 0,0 l/m 13,3 km/h (3 Bft) W-SW 243 0 min 0,000 mm 0,5 UV-I 121 W/m 8,7 C 9,2 C 20,9 km/h (4 Bft) 100,00 %
07.06.2017 07:50 12,7 C 20,6 C 76 % 1015,9 hPa 0,0 l/m 11,2 km/h (2 Bft) W 265 2 min 0,000 mm 0,7 UV-I 251 W/m 8,6 C 10,0 C 17,7 km/h (3 Bft) 97,56 %
07.06.2017 07:52 12,8 C 20,6 C 76 % 1015,8 hPa 0,0 l/m 10,0 km/h (2 Bft) W-SW 249 2 min 0,000 mm 0,6 UV-I 273 W/m 8,7 C 10,7 C 14,5 km/h (3 Bft) 100,00 %
07.06.2017 07:54 12,7 C 20,6 C 76 % 1015,9 hPa 0,0 l/m 11,3 km/h (2 Bft) W 260 0 min 0,000 mm 0,6 UV-I 111 W/m 8,6 C 9,9 C 16,1 km/h (3 Bft) 100,00 %
07.06.2017 07:56 12,7 C 20,6 C 75 % 1015,9 hPa 0,0 l/m 13,1 km/h (3 Bft) SW 223 0 min 0,000 mm 0,6 UV-I 121 W/m 8,4 C 9,2 C 16,1 km/h (3 Bft) 100,00 %
07.06.2017 07:58 12,6 C 21,1 C 75 % 1015,9 hPa 0,0 l/m 14,5 km/h (3 Bft) W-SW 251 0 min 0,000 mm 0,7 UV-I 113 W/m 8,3 C 8,5 C 22,5 km/h (4 Bft) 95,74 %
07.06.2017 08:00 12,6 C 21,1 C 75 % 1015,9 hPa 0,0 l/m 12,4 km/h (3 Bft) SW 233 2 min 0,153 mm 0,8 UV-I 321 W/m 8,3 C 9,3 C 17,7 km/h (3 Bft) 100,00 %
07.06.2017 08:02 12,7 C 21,1 C 76 % 1015,9 hPa 0,0 l/m 11,3 km/h (2 Bft) W 269 2 min 0,000 mm 0,9 UV-I 417 W/m 8,6 C 9,9 C 16,1 km/h (3 Bft) 92,45 %
07.06.2017 08:04 12,8 C 21,1 C 76 % 1016,0 hPa 0,0 l/m 11,9 km/h (2 Bft) W-SW 241 2 min 0,000 mm 0,9 UV-I 415 W/m 8,7 C 9,8 C 16,1 km/h (3 Bft) 100,00 %
07.06.2017 08:06 13,0 C 21,1 C 77 % 1016,0 hPa 0,0 l/m 8,2 km/h (2 Bft) W-SW 240 2 min 0,000 mm 0,9 UV-I 330 W/m 9,1 C 11,9 C 12,9 km/h (3 Bft) 97,62 %
07.06.2017 08:08 13,1 C 21,1 C 75 % 1016,0 hPa 0,0 l/m 9,0 km/h (2 Bft) W 264 2 min 0,000 mm 1,0 UV-I 273 W/m 8,8 C 11,5 C 12,9 km/h (3 Bft) 98,28 %
07.06.2017 08:10 13,1 C 21,1 C 74 % 1016,0 hPa 0,0 l/m 12,7 km/h (3 Bft) SW 228 2 min 0,000 mm 0,9 UV-I 336 W/m 8,6 C 9,8 C 17,7 km/h (3 Bft) 89,74 %
07.06.2017 08:12 13,2 C 21,1 C 75 % 1016,0 hPa 0,0 l/m 10,0 km/h (2 Bft) W-SW 254 2 min 0,000 mm 1,0 UV-I 465 W/m 8,9 C 11,1 C 19,3 km/h (3 Bft) 92,31 %
07.06.2017 08:14 13,3 C 21,1 C 74 % 1016,0 hPa 0,0 l/m 10,1 km/h (2 Bft) W 271 2 min 0,000 mm 0,9 UV-I 372 W/m 8,8 C 11,2 C 14,5 km/h (3 Bft) 97,92 %
07.06.2017 08:16 13,4 C 21,1 C 73 % 1016,1 hPa 0,0 l/m 17,1 km/h (3 Bft) S-SW 213 2 min 0,000 mm 0,8 UV-I 271 W/m 8,7 C 8,5 C 25,7 km/h (4 Bft) 94,00 %
07.06.2017 08:18 13,3 C 21,1 C 73 % 1016,0 hPa 0,0 l/m 11,2 km/h (2 Bft) W 273 0 min 0,000 mm 0,9 UV-I 255 W/m 8,6 C 10,7 C 17,7 km/h (3 Bft) 95,12 %
07.06.2017 08:20 13,4 C 21,1 C 74 % 1016,0 hPa 0,0 l/m 10,7 km/h (2 Bft) W-SW 251 0 min 0,000 mm 0,9 UV-I 266 W/m 8,9 C 11,0 C 22,5 km/h (4 Bft) 94,00 %
07.06.2017 08:22 13,4 C 21,1 C 73 % 1016,1 hPa 0,0 l/m 10,6 km/h (2 Bft) SW 236 0 min 0,000 mm 1,1 UV-I 269 W/m 8,7 C 11,1 C 16,1 km/h (3 Bft) 87,80 %
07.06.2017 08:24 13,5 C 21,1 C 73 % 1016,1 hPa 0,0 l/m 10,5 km/h (2 Bft) SW 219 2 min 0,000 mm 1,0 UV-I 278 W/m 8,8 C 11,2 C 16,1 km/h (3 Bft) 94,34 %
07.06.2017 08:26 13,6 C 21,1 C 72 % 1016,1 hPa 0,0 l/m 12,7 km/h (3 Bft) S-SW 207 2 min 0,000 mm 1,1 UV-I 277 W/m 8,6 C 10,4 C 19,3 km/h (3 Bft) 95,12 %
07.06.2017 08:28 13,7 C 21,1 C 73 % 1016,1 hPa 0,0 l/m 10,7 km/h (2 Bft) W 259 2 min 0,000 mm 1,1 UV-I 298 W/m 8,9 C 11,3 C 19,3 km/h (3 Bft) 92,00 %
07.06.2017 08:30 13,8 C 21,1 C 72 % 1016,1 hPa 0,0 l/m 5,8 km/h (2 Bft) W-SW 250 2 min 0,000 mm 1,3 UV-I 538 W/m 8,8 C 13,8 C 11,3 km/h (2 Bft) 90,57 %
07.06.2017 08:32 14,0 C 21,1 C 72 % 1016,1 hPa 0,0 l/m 9,3 km/h (2 Bft) W-SW 250 2 min 0,000 mm 1,3 UV-I 538 W/m 9,0 C 12,4 C 17,7 km/h (3 Bft) 94,74 %
07.06.2017 08:34 14,1 C 21,1 C 72 % 1016,1 hPa 0,0 l/m 5,6 km/h (1 Bft) S-SW 211 2 min 0,000 mm 1,1 UV-I 436 W/m 9,1 C 14,1 C 12,9 km/h (3 Bft) 95,74 %
07.06.2017 08:36 14,2 C 20,6 C 73 % 1016,1 hPa 0,0 l/m 10,6 km/h (2 Bft) W-SW 252 2 min 0,000 mm 1,0 UV-I 380 W/m 9,4 C 12,0 C 16,1 km/h (3 Bft) 90,00 %
07.06.2017 08:38 14,1 C 20,6 C 69 % 1016,0 hPa 0,0 l/m 10,2 km/h (2 Bft) W 273 0 min 0,000 mm 0,8 UV-I 255 W/m 8,5 C 12,0 C 16,1 km/h (3 Bft) 95,12 %
07.06.2017 08:40 13,9 C 20,6 C 70 % 1016,1 hPa 0,0 l/m 7,3 km/h (2 Bft) SW 228 0 min 0,000 mm 0,9 UV-I 210 W/m 8,5 C 13,4 C 12,9 km/h (3 Bft) 95,45 %
07.06.2017 08:42 13,8 C 20,6 C 71 % 1016,1 hPa 0,0 l/m 7,3 km/h (2 Bft) W-SW 241 0 min 0,000 mm 1,0 UV-I 281 W/m 8,6 C 13,3 C 12,9 km/h (3 Bft) 94,92 %
07.06.2017 08:44 13,8 C 20,6 C 71 % 1016,2 hPa 0,0 l/m 11,1 km/h (2 Bft) W-SW 249 0 min 0,000 mm 0,9 UV-I 210 W/m 8,6 C 11,3 C 16,1 km/h (3 Bft) 93,18 %
07.06.2017 08:46 13,8 C 20,6 C 70 % 1016,2 hPa 0,0 l/m 10,1 km/h (2 Bft) W-SW 238 0 min 0,000 mm 0,9 UV-I 199 W/m 8,4 C 11,7 C 19,3 km/h (3 Bft) 95,12 %
07.06.2017 08:48 13,8 C 21,1 C 69 % 1016,2 hPa 0,0 l/m 10,3 km/h (2 Bft) W 270 0 min 0,000 mm 0,9 UV-I 208 W/m 8,2 C 11,6 C 14,5 km/h (3 Bft) 96,00 %
07.06.2017 08:50 13,7 C 21,1 C 69 % 1016,2 hPa 0,0 l/m 11,2 km/h (2 Bft) W-SW 249 0 min 0,000 mm 1,1 UV-I 208 W/m 8,1 C 11,1 C 19,3 km/h (3 Bft) 94,34 %
07.06.2017 08:52 13,7 C 21,1 C 69 % 1016,2 hPa 0,0 l/m 9,3 km/h (2 Bft) SW 235 0 min 0,000 mm 1,2 UV-I 240 W/m 8,1 C 12,0 C 14,5 km/h (3 Bft) 94,87 %
07.06.2017 08:54 13,7 C 21,1 C 69 % 1016,2 hPa 0,0 l/m 6,0 km/h (2 Bft) W 266 2 min 0,000 mm 1,4 UV-I 351 W/m 8,1 C 13,7 C 8,0 km/h (2 Bft) 98,11 %
07.06.2017 08:56 13,8 C 21,1 C 69 % 1016,2 hPa 0,0 l/m 5,4 km/h (1 Bft) W 260 2 min 0,000 mm 1,3 UV-I 381 W/m 8,2 C 13,8 C 12,9 km/h (3 Bft) 95,12 %
07.06.2017 08:58 13,8 C 21,1 C 70 % 1016,2 hPa 0,0 l/m 3,9 km/h (1 Bft) NW 304 2 min 0,000 mm 1,5 UV-I 381 W/m 8,4 C 13,8 C 9,7 km/h (2 Bft) 96,23 %
07.06.2017 09:00 13,9 C 21,1 C 70 % 1016,1 hPa 0,0 l/m 3,1 km/h (1 Bft) W-NW 286 2 min 0,000 mm 1,5 UV-I 410 W/m 8,5 C 13,9 C 6,4 km/h (2 Bft) 97,37 %
07.06.2017 09:02 14,0 C 21,1 C 71 % 1016,2 hPa 0,0 l/m 2,0 km/h (1 Bft) W-NW 284 2 min 0,203 mm 1,6 UV-I 538 W/m 8,8 C 14,0 C 4,8 km/h (1 Bft) 98,11 %
07.06.2017 09:04 14,1 C 21,1 C 68 % 1016,1 hPa 0,0 l/m 7,7 km/h (2 Bft) W-SW 250 2 min 0,000 mm 1,9 UV-I 542 W/m 8,3 C 13,3 C 12,9 km/h (3 Bft) 95,12 %
07.06.2017 09:06 14,3 C 21,1 C 71 % 1016,1 hPa 0,0 l/m 1,3 km/h (1 Bft) NW 325 2 min 0,000 mm 2,0 UV-I 634 W/m 9,1 C 14,3 C 4,8 km/h (1 Bft) 96,00 %
07.06.2017 09:08 14,4 C 21,1 C 67 % 1016,2 hPa 0,0 l/m 3,5 km/h (1 Bft) W-NW 289 2 min 0,000 mm 2,0 UV-I 606 W/m 8,4 C 14,4 C 6,4 km/h (2 Bft) 100,00 %
07.06.2017 09:10 14,5 C 21,1 C 67 % 1016,1 hPa 0,0 l/m 10,5 km/h (2 Bft) W-NW 287 2 min 0,000 mm 2,0 UV-I 619 W/m 8,4 C 12,3 C 19,3 km/h (3 Bft) 96,00 %
07.06.2017 09:12 14,6 C 21,1 C 66 % 1016,1 hPa 0,0 l/m 5,2 km/h (1 Bft) W-SW 257 2 min 0,000 mm 2,1 UV-I 604 W/m 8,3 C 14,6 C 12,9 km/h (3 Bft) 100,00 %
07.06.2017 09:14 14,7 C 21,1 C 65 % 1016,1 hPa 0,0 l/m 9,4 km/h (2 Bft) S-SW 211 2 min 0,000 mm 2,2 UV-I 635 W/m 8,2 C 13,1 C 16,1 km/h (3 Bft) 100,00 %
07.06.2017 09:16 14,8 C 21,1 C 66 % 1016,1 hPa 0,0 l/m 7,1 km/h (2 Bft) S-SW 202 2 min 0,000 mm 2,2 UV-I 642 W/m 8,5 C 14,4 C 16,1 km/h (3 Bft) 100,00 %
07.06.2017 09:18 14,9 C 21,1 C 65 % 1016,2 hPa 0,0 l/m 9,4 km/h (2 Bft) W-SW 237 2 min 0,000 mm 2,2 UV-I 661 W/m 8,4 C 13,3 C 14,5 km/h (3 Bft) 97,37 %
07.06.2017 09:20 14,9 C 21,1 C 63 % 1016,2 hPa 0,0 l/m 11,8 km/h (2 Bft) W 268 2 min 0,000 mm 2,3 UV-I 680 W/m 7,9 C 12,2 C 17,7 km/h (3 Bft) 100,00 %
07.06.2017 09:22 15,1 C 21,1 C 66 % 1016,1 hPa 0,0 l/m 8,9 km/h (2 Bft) S-SW 204 2 min 0,000 mm 2,3 UV-I 695 W/m 8,8 C 13,7 C 19,3 km/h (3 Bft) 100,00 %
07.06.2017 09:24 15,1 C 21,1 C 63 % 1016,1 hPa 0,0 l/m 12,8 km/h (3 Bft) W-SW 244 2 min 0,000 mm 2,4 UV-I 688 W/m 8,1 C 12,1 C 22,5 km/h (4 Bft) 98,00 %
07.06.2017 09:26 15,1 C 21,1 C 61 % 1016,1 hPa 0,0 l/m 11,9 km/h (2 Bft) W-SW 251 2 min 0,000 mm 2,4 UV-I 695 W/m 7,6 C 12,4 C 19,3 km/h (3 Bft) 100,00 %
07.06.2017 09:28 15,1 C 21,1 C 63 % 1016,1 hPa 0,0 l/m 9,9 km/h (2 Bft) S-SW 205 2 min 0,000 mm 2,4 UV-I 740 W/m 8,1 C 13,3 C 19,3 km/h (3 Bft) 97,87 %
07.06.2017 09:30 15,1 C 21,1 C 61 % 1016,1 hPa 0,0 l/m 13,3 km/h (3 Bft) SW 234 2 min 0,000 mm 2,5 UV-I 767 W/m 7,6 C 11,9 C 20,9 km/h (4 Bft) 95,45 %
07.06.2017 09:33 15,3 C 21,1 C 61 % 1016,1 hPa 0,0 l/m 10,5 km/h (2 Bft) W-SW 237 3 min 0,000 mm 2,6 UV-I 746 W/m 7,8 C 13,2 C 17,7 km/h (3 Bft) 97,56 %
07.06.2017 09:34 15,3 C 21,1 C 61 % 1016,1 hPa 0,0 l/m 10,5 km/h (2 Bft) S 183 1 min 0,000 mm 2,6 UV-I 743 W/m 7,8 C 13,2 C 16,1 km/h (3 Bft) 100,00 %
07.06.2017 09:36 15,3 C 21,1 C 60 % 1016,1 hPa 0,0 l/m 12,8 km/h (3 Bft) SW 233 2 min 0,000 mm 2,6 UV-I 733 W/m 7,6 C 12,3 C 19,3 km/h (3 Bft) 100,00 %
07.06.2017 09:38 15,3 C 21,1 C 62 % 1016,1 hPa 0,0 l/m 14,5 km/h (3 Bft) W-SW 252 2 min 0,000 mm 2,7 UV-I 744 W/m 8,1 C 11,7 C 19,3 km/h (3 Bft) 96,88 %
07.06.2017 09:40 15,4 C 21,1 C 62 % 1016,1 hPa 0,0 l/m 10,2 km/h (2 Bft) W-NW 297 2 min 0,000 mm 2,7 UV-I 752 W/m 8,2 C 13,5 C 16,1 km/h (3 Bft) 100,00 %
07.06.2017 09:42 15,5 C 21,1 C 60 % 1016,2 hPa 0,0 l/m 12,9 km/h (3 Bft) W 259 2 min 0,000 mm 2,8 UV-I 770 W/m 7,8 C 12,5 C 19,3 km/h (3 Bft) 97,37 %
07.06.2017 09:44 15,4 C 21,1 C 59 % 1016,2 hPa 0,0 l/m 11,8 km/h (2 Bft) W-SW 246 2 min 0,000 mm 2,9 UV-I 791 W/m 7,4 C 12,8 C 16,1 km/h (3 Bft) 100,00 %
07.06.2017 09:46 15,3 C 21,1 C 59 % 1016,2 hPa 0,0 l/m 12,1 km/h (2 Bft) W-NW 288 2 min 0,000 mm 2,9 UV-I 818 W/m 7,3 C 12,6 C 19,3 km/h (3 Bft) 97,37 %
07.06.2017 09:48 15,3 C 21,1 C 63 % 1016,2 hPa 0,0 l/m 14,4 km/h (3 Bft) W-SW 244 2 min 0,000 mm 3,0 UV-I 853 W/m 8,3 C 11,8 C 20,9 km/h (4 Bft) 96,92 %
07.06.2017 09:50 15,4 C 21,1 C 62 % 1016,2 hPa 0,0 l/m 11,0 km/h (2 Bft) W-SW 249 2 min 0,000 mm 2,1 UV-I 454 W/m 8,2 C 13,1 C 19,3 km/h (3 Bft) 100,00 %
07.06.2017 09:52 15,5 C 20,6 C 63 % 1016,2 hPa 0,0 l/m 15,7 km/h (3 Bft) SW 234 0 min 0,000 mm 1,4 UV-I 313 W/m 8,5 C 11,6 C 27,4 km/h (4 Bft) 96,23 %
07.06.2017 09:54 15,3 C 20,6 C 61 % 1016,2 hPa 0,0 l/m 10,8 km/h (2 Bft) W 266 0 min 0,000 mm 1,1 UV-I 238 W/m 7,8 C 13,1 C 17,7 km/h (3 Bft) 97,56 %
07.06.2017 09:56 15,2 C 20,6 C 63 % 1016,2 hPa 0,0 l/m 11,8 km/h (2 Bft) W-SW 248 0 min 0,000 mm 1,0 UV-I 215 W/m 8,2 C 12,6 C 22,5 km/h (4 Bft) 100,00 %
07.06.2017 09:58 15,0 C 20,6 C 61 % 1016,3 hPa 0,0 l/m 12,2 km/h (2 Bft) W 265 0 min 0,000 mm 1,0 UV-I 219 W/m 7,5 C 12,2 C 19,3 km/h (3 Bft) 98,00 %
07.06.2017 10:00 14,8 C 20,6 C 61 % 1016,3 hPa 0,0 l/m 10,8 km/h (2 Bft) W-SW 237 0 min 0,356 mm 0,8 UV-I 189 W/m 7,4 C 12,5 C 20,9 km/h (4 Bft) 97,78 %
07.06.2017 10:02 14,6 C 20,6 C 62 % 1016,3 hPa 0,0 l/m 9,1 km/h (2 Bft) W-SW 250 0 min 0,000 mm 1,0 UV-I 204 W/m 7,4 C 13,1 C 16,1 km/h (3 Bft) 100,00 %
07.06.2017 10:04 14,5 C 20,6 C 62 % 1016,2 hPa 0,0 l/m 4,1 km/h (1 Bft) W-SW 240 0 min 0,000 mm 1,1 UV-I 234 W/m 7,3 C 14,5 C 9,7 km/h (2 Bft) 95,12 %
07.06.2017 10:06 14,6 C 20,6 C 65 % 1016,3 hPa 0,0 l/m 5,7 km/h (1 Bft) SW 219 0 min 0,000 mm 1,0 UV-I 230 W/m 8,1 C 14,6 C 11,3 km/h (2 Bft) 98,00 %
07.06.2017 10:08 14,6 C 20,6 C 63 % 1016,3 hPa 0,0 l/m 12,3 km/h (3 Bft) SW 234 0 min 0,000 mm 0,8 UV-I 177 W/m 7,6 C 11,7 C 19,3 km/h (3 Bft) 95,74 %
07.06.2017 10:10 14,6 C 21,1 C 64 % 1016,3 hPa 0,0 l/m 11,5 km/h (2 Bft) W 264 0 min 0,000 mm 0,8 UV-I 181 W/m 7,9 C 12,0 C 16,1 km/h (3 Bft) 97,22 %
07.06.2017 10:12 14,5 C 21,1 C 64 % 1016,3 hPa 0,0 l/m 13,6 km/h (3 Bft) W-SW 238 0 min 0,000 mm 1,0 UV-I 199 W/m 7,8 C 11,1 C 22,5 km/h (4 Bft) 94,34 %
07.06.2017 10:14 14,5 C 21,1 C 64 % 1016,2 hPa 0,0 l/m 14,4 km/h (3 Bft) W-SW 258 0 min 0,000 mm 1,1 UV-I 223 W/m 7,8 C 10,8 C 19,3 km/h (3 Bft) 93,18 %
07.06.2017 10:16 14,5 C 21,7 C 65 % 1016,2 hPa 0,0 l/m 12,7 km/h (3 Bft) SW 231 0 min 0,000 mm 1,1 UV-I 227 W/m 8,0 C 11,4 C 17,7 km/h (3 Bft) 98,21 %
07.06.2017 10:18 14,6 C 21,7 C 64 % 1016,2 hPa 0,0 l/m 11,7 km/h (2 Bft) SW 230 0 min 0,000 mm 1,1 UV-I 220 W/m 7,9 C 11,9 C 17,7 km/h (3 Bft) 94,74 %
07.06.2017 10:20 14,6 C 21,7 C 65 % 1016,2 hPa 0,0 l/m 7,9 km/h (2 Bft) W 263 0 min 0,000 mm 1,1 UV-I 201 W/m 8,1 C 13,7 C 14,5 km/h (3 Bft) 98,11 %
07.06.2017 10:22 14,6 C 21,7 C 65 % 1016,2 hPa 0,0 l/m 9,1 km/h (2 Bft) W 263 0 min 0,000 mm 0,9 UV-I 176 W/m 8,1 C 13,1 C 19,3 km/h (3 Bft) 91,30 %
07.06.2017 10:24 14,6 C 21,7 C 65 % 1016,2 hPa 0,0 l/m 10,5 km/h (2 Bft) W-SW 254 0 min 0,000 mm 1,0 UV-I 153 W/m 8,1 C 12,4 C 17,7 km/h (3 Bft) 96,92 %
07.06.2017 10:26 14,5 C 21,7 C 65 % 1016,2 hPa 0,0 l/m 9,8 km/h (2 Bft) SW 228 0 min 0,000 mm 1,6 UV-I 169 W/m 8,0 C 12,7 C 14,5 km/h (3 Bft) 97,87 %
07.06.2017 10:28 14,6 C 21,7 C 66 % 1016,2 hPa 0,0 l/m 10,7 km/h (2 Bft) SW 236 0 min 0,000 mm 3,0 UV-I 185 W/m 8,3 C 12,4 C 16,1 km/h (3 Bft) 98,00 %
07.06.2017 10:30 14,8 C 21,7 C 66 % 1016,1 hPa 0,0 l/m 12,6 km/h (3 Bft) W 267 0 min 0,000 mm 2,4 UV-I 302 W/m 8,5 C 11,8 C 17,7 km/h (3 Bft) 94,34 %
07.06.2017 10:32 14,9 C 21,7 C 64 % 1016,2 hPa 0,0 l/m 9,1 km/h (2 Bft) SW 225 0 min 0,000 mm 3,1 UV-I 335 W/m 8,2 C 13,4 C 16,1 km/h (3 Bft) 97,56 %
07.06.2017 10:34 15,2 C 21,7 C 63 % 1016,2 hPa 0,0 l/m 11,0 km/h (2 Bft) SW 227 0 min 0,000 mm 3,1 UV-I 350 W/m 8,2 C 12,9 C 16,1 km/h (3 Bft) 96,00 %
07.06.2017 10:36 15,3 C 21,7 C 62 % 1016,2 hPa 0,0 l/m 14,0 km/h (3 Bft) S-SW 192 0 min 0,000 mm 2,3 UV-I 404 W/m 8,1 C 11,9 C 20,9 km/h (4 Bft) 97,56 %
07.06.2017 10:38 15,3 C 21,7 C 61 % 1016,1 hPa 0,0 l/m 14,2 km/h (3 Bft) SW 236 0 min 0,000 mm 2,0 UV-I 352 W/m 7,8 C 11,8 C 22,5 km/h (4 Bft) 100,00 %
07.06.2017 10:40 15,3 C 21,7 C 62 % 1016,1 hPa 0,0 l/m 9,3 km/h (2 Bft) S-SW 202 0 min 0,000 mm 2,5 UV-I 346 W/m 8,1 C 13,8 C 17,7 km/h (3 Bft) 97,56 %
07.06.2017 10:42 15,4 C 21,7 C 62 % 1016,2 hPa 0,0 l/m 8,9 km/h (2 Bft) W-SW 237 0 min 0,000 mm 2,8 UV-I 362 W/m 8,2 C 14,1 C 16,1 km/h (3 Bft) 100,00 %
07.06.2017 10:44 15,5 C 21,7 C 63 % 1016,2 hPa 0,0 l/m 12,8 km/h (3 Bft) W 266 0 min 0,000 mm 2,3 UV-I 357 W/m 8,5 C 12,5 C 19,3 km/h (3 Bft) 98,18 %
07.06.2017 10:46 15,6 C 21,7 C 60 % 1016,2 hPa 0,0 l/m 10,7 km/h (2 Bft) W-SW 237 0 min 0,000 mm 3,5 UV-I 404 W/m 7,9 C 13,5 C 16,1 km/h (3 Bft) 95,24 %
07.06.2017 10:48 15,7 C 21,7 C 61 % 1016,2 hPa 0,0 l/m 12,7 km/h (3 Bft) W 263 2 min 0,000 mm 2,8 UV-I 552 W/m 8,2 C 12,8 C 16,1 km/h (3 Bft) 96,36 %
07.06.2017 10:50 15,6 C 21,7 C 60 % 1016,2 hPa 0,0 l/m 11,6 km/h (2 Bft) W-SW 255 0 min 0,000 mm 2,2 UV-I 356 W/m 7,9 C 13,1 C 16,1 km/h (3 Bft) 100,00 %
07.06.2017 10:52 15,5 C 21,7 C 60 % 1016,2 hPa 0,0 l/m 5,1 km/h (1 Bft) W-NW 299 0 min 0,000 mm 2,2 UV-I 323 W/m 7,8 C 15,5 C 16,1 km/h (3 Bft) 96,23 %
07.06.2017 10:54 15,6 C 21,7 C 64 % 1016,3 hPa 0,0 l/m 2,6 km/h (1 Bft) SW 236 0 min 0,000 mm 3,4 UV-I 323 W/m 8,8 C 15,6 C 11,3 km/h (2 Bft) 100,00 %
07.06.2017 10:56 15,7 C 21,7 C 62 % 1016,3 hPa 0,0 l/m 7,6 km/h (2 Bft) W 275 0 min 0,000 mm 2,8 UV-I 403 W/m 8,4 C 15,0 C 14,5 km/h (3 Bft) 97,37 %
07.06.2017 10:58 15,8 C 21,7 C 62 % 1016,3 hPa 0,0 l/m 2,5 km/h (1 Bft) SW 236 0 min 0,000 mm 2,1 UV-I 363 W/m 8,5 C 15,8 C 8,0 km/h (2 Bft) 100,00 %
07.06.2017 11:00 15,9 C 21,7 C 63 % 1016,3 hPa 0,0 l/m 7,3 km/h (2 Bft) W-SW 251 0 min 0,228 mm 1,8 UV-I 322 W/m 8,9 C 15,4 C 12,9 km/h (3 Bft) 97,56 %
07.06.2017 11:02 15,8 C 21,7 C 63 % 1016,3 hPa 0,0 l/m 7,9 km/h (2 Bft) W-SW 248 0 min 0,000 mm 2,8 UV-I 308 W/m 8,8 C 15,0 C 12,9 km/h (3 Bft) 96,00 %
07.06.2017 11:04 15,7 C 21,7 C 59 % 1016,3 hPa 0,0 l/m 6,6 km/h (2 Bft) SW 223 0 min 0,000 mm 2,2 UV-I 349 W/m 7,7 C 15,6 C 11,3 km/h (2 Bft) 97,56 %
07.06.2017 11:06 15,6 C 21,7 C 62 % 1016,4 hPa 0,0 l/m 5,0 km/h (1 Bft) SW 232 0 min 0,000 mm 2,8 UV-I 375 W/m 8,3 C 15,6 C 9,7 km/h (2 Bft) 100,00 %
07.06.2017 11:09 15,7 C 21,7 C 64 % 1016,3 hPa 0,0 l/m 6,8 km/h (2 Bft) W-SW 249 0 min 0,000 mm 2,1 UV-I 326 W/m 8,9 C 15,5 C 11,3 km/h (2 Bft) 98,53 %
07.06.2017 11:10 15,7 C 21,7 C 62 % 1016,3 hPa 0,0 l/m 13,4 km/h (3 Bft) W-SW 257 0 min 0,000 mm 2,4 UV-I 351 W/m 8,4 C 12,6 C 17,7 km/h (3 Bft) 100,00 %
07.06.2017 11:12 15,7 C 21,7 C 60 % 1016,3 hPa 0,0 l/m 11,3 km/h (2 Bft) SW 232 0 min 0,000 mm 2,4 UV-I 441 W/m 8,0 C 13,3 C 20,9 km/h (4 Bft) 97,73 %
07.06.2017 11:14 15,7 C 21,7 C 59 % 1016,3 hPa 0,0 l/m 9,4 km/h (2 Bft) SW 221 0 min 0,000 mm 2,2 UV-I 410 W/m 7,7 C 14,2 C 16,1 km/h (3 Bft) 95,35 %
07.06.2017 11:16 15,8 C 21,7 C 61 % 1016,3 hPa 0,0 l/m 6,5 km/h (2 Bft) W-SW 250 0 min 0,000 mm 2,4 UV-I 375 W/m 8,3 C 15,8 C 14,5 km/h (3 Bft) 100,00 %
07.06.2017 11:18 15,8 C 21,7 C 60 % 1016,3 hPa 0,0 l/m 10,3 km/h (2 Bft) W 264 0 min 0,000 mm 2,6 UV-I 385 W/m 8,1 C 13,9 C 14,5 km/h (3 Bft) 97,37 %
07.06.2017 11:20 15,9 C 21,7 C 60 % 1016,2 hPa 0,0 l/m 11,5 km/h (2 Bft) SW 234 0 min 0,000 mm 2,6 UV-I 419 W/m 8,1 C 13,5 C 19,3 km/h (3 Bft) 97,73 %
07.06.2017 11:22 15,9 C 21,7 C 57 % 1016,3 hPa 0,0 l/m 13,6 km/h (3 Bft) W 275 0 min 0,000 mm 2,1 UV-I 365 W/m 7,4 C 12,7 C 22,5 km/h (4 Bft) 96,43 %
07.06.2017 11:24 15,9 C 21,7 C 59 % 1016,3 hPa 0,0 l/m 8,7 km/h (2 Bft) SW 219 0 min 0,000 mm 1,7 UV-I 314 W/m 7,9 C 14,7 C 14,5 km/h (3 Bft) 97,87 %
07.06.2017 11:26 15,8 C 21,7 C 58 % 1016,2 hPa 0,0 l/m 10,9 km/h (2 Bft) W 262 0 min 0,000 mm 1,5 UV-I 266 W/m 7,6 C 13,6 C 17,7 km/h (3 Bft) 93,62 %
07.06.2017 11:28 15,8 C 21,7 C 62 % 1016,3 hPa 0,0 l/m 8,2 km/h (2 Bft) N-NW 347 0 min 0,000 mm 1,8 UV-I 299 W/m 8,5 C 14,8 C 16,1 km/h (3 Bft) 96,00 %
07.06.2017 11:30 15,8 C 21,7 C 63 % 1016,3 hPa 0,0 l/m 1,6 km/h (1 Bft) N-NO 12 0 min 0,000 mm 2,0 UV-I 332 W/m 8,8 C 15,8 C 3,2 km/h (1 Bft) 91,11 %
07.06.2017 11:32 15,8 C 21,7 C 60 % 1016,3 hPa 0,0 l/m 3,9 km/h (1 Bft) NW 323 0 min 0,000 mm 1,8 UV-I 306 W/m 8,1 C 15,8 C 8,0 km/h (2 Bft) 92,68 %
07.06.2017 11:34 15,7 C 21,7 C 61 % 1016,3 hPa 0,0 l/m 4,7 km/h (1 Bft) W 266 0 min 0,000 mm 1,7 UV-I 283 W/m 8,2 C 15,7 C 9,7 km/h (2 Bft) 98,11 %
07.06.2017 11:36 15,6 C 21,7 C 63 % 1016,4 hPa 0,0 l/m 2,7 km/h (1 Bft) W 271 0 min 0,000 mm 1,6 UV-I 248 W/m 8,6 C 15,6 C 4,8 km/h (1 Bft) 97,87 %
07.06.2017 11:38 15,6 C 21,7 C 60 % 1016,4 hPa 0,0 l/m 7,1 km/h (2 Bft) W-NW 282 0 min 0,000 mm 1,8 UV-I 239 W/m 7,9 C 15,2 C 12,9 km/h (3 Bft) 95,12 %
07.06.2017 11:40 15,6 C 21,7 C 61 % 1016,4 hPa 0,0 l/m 5,8 km/h (2 Bft) W-SW 251 0 min 0,000 mm 2,2 UV-I 230 W/m 8,1 C 15,6 C 12,9 km/h (3 Bft) 92,45 %
07.06.2017 11:42 15,7 C 21,7 C 60 % 1016,4 hPa 0,0 l/m 5,9 km/h (2 Bft) W-SW 252 2 min 0,000 mm 3,9 UV-I 618 W/m 8,0 C 15,7 C 11,3 km/h (2 Bft) 94,74 %
07.06.2017 11:44 16,1 C 21,7 C 61 % 1016,4 hPa 0,0 l/m 2,3 km/h (1 Bft) W 263 2 min 0,000 mm 4,3 UV-I 1088 W/m 8,6 C 16,1 C 6,4 km/h (2 Bft) 93,18 %
07.06.2017 11:46 16,4 C 21,7 C 58 % 1016,4 hPa 0,0 l/m 4,8 km/h (1 Bft) W-SW 240 2 min 0,000 mm 4,2 UV-I 1144 W/m 8,1 C 16,4 C 12,9 km/h (3 Bft) 96,23 %
07.06.2017 11:48 16,4 C 21,7 C 59 % 1016,3 hPa 0,0 l/m 4,4 km/h (1 Bft) W-NW 297 2 min 0,000 mm 3,1 UV-I 902 W/m 8,4 C 16,4 C 9,7 km/h (2 Bft) 96,00 %
07.06.2017 11:50 16,4 C 21,7 C 60 % 1016,4 hPa 0,0 l/m 5,5 km/h (1 Bft) NW 311 0 min 0,000 mm 2,0 UV-I 281 W/m 8,6 C 16,4 C 11,3 km/h (2 Bft) 95,12 %
07.06.2017 11:52 16,2 C 21,7 C 57 % 1016,4 hPa 0,0 l/m 4,2 km/h (1 Bft) N 9 0 min 0,000 mm 1,8 UV-I 267 W/m 7,7 C 16,2 C 14,5 km/h (3 Bft) 94,00 %
07.06.2017 11:54 16,1 C 21,7 C 60 % 1016,4 hPa 0,0 l/m 1,4 km/h (1 Bft) W-SW 240 0 min 0,000 mm 2,1 UV-I 299 W/m 8,3 C 16,1 C 4,8 km/h (1 Bft) 94,00 %
07.06.2017 11:56 16,1 C 21,7 C 62 % 1016,4 hPa 0,0 l/m 1,5 km/h (1 Bft) W-NW 288 0 min 0,000 mm 2,1 UV-I 290 W/m 8,8 C 16,1 C 3,2 km/h (1 Bft) 92,59 %
07.06.2017 11:58 16,1 C 21,1 C 61 % 1016,3 hPa 0,0 l/m 0,3 km/h (0 Bft) W-NW 288 0 min 0,000 mm 1,8 UV-I 229 W/m 8,6 C 16,1 C 3,2 km/h (1 Bft) 89,06 %
07.06.2017 12:00 16,0 C 21,1 C 61 % 1016,4 hPa 0,0 l/m 1,8 km/h (1 Bft) W-NW 298 0 min 0,254 mm 1,3 UV-I 173 W/m 8,5 C 16,0 C 4,8 km/h (1 Bft) 90,20 %
07.06.2017 12:02 15,9 C 21,1 C 59 % 1016,4 hPa 0,0 l/m 3,3 km/h (1 Bft) W-NW 284 0 min 0,000 mm 1,1 UV-I 147 W/m 7,9 C 15,9 C 4,8 km/h (1 Bft) 94,74 %
07.06.2017 12:04 15,8 C 21,1 C 61 % 1016,4 hPa 0,0 l/m 3,1 km/h (1 Bft) W 261 0 min 0,000 mm 1,1 UV-I 154 W/m 8,3 C 15,8 C 9,7 km/h (2 Bft) 92,45 %
07.06.2017 12:06 15,7 C 21,1 C 63 % 1016,4 hPa 0,0 l/m 2,8 km/h (1 Bft) W 260 0 min 0,000 mm 1,2 UV-I 177 W/m 8,7 C 15,7 C 6,4 km/h (2 Bft) 94,00 %
07.06.2017 12:08 15,7 C 21,1 C 63 % 1016,4 hPa 0,0 l/m 2,4 km/h (1 Bft) W-NW 294 0 min 0,000 mm 1,4 UV-I 195 W/m 8,7 C 15,7 C 11,3 km/h (2 Bft) 91,49 %
07.06.2017 12:10 15,7 C 21,1 C 61 % 1016,4 hPa 0,0 l/m 7,8 km/h (2 Bft) W-SW 250 0 min 0,000 mm 1,5 UV-I 193 W/m 8,2 C 14,9 C 14,5 km/h (3 Bft) 94,87 %
07.06.2017 12:12 15,7 C 21,1 C 62 % 1016,4 hPa 0,0 l/m 5,4 km/h (1 Bft) W 266 0 min 0,000 mm 1,6 UV-I 207 W/m 8,4 C 15,7 C 9,7 km/h (2 Bft) 96,00 %
07.06.2017 12:14 15,7 C 21,1 C 63 % 1016,5 hPa 0,0 l/m 7,8 km/h (2 Bft) SW 225 0 min 0,000 mm 1,8 UV-I 216 W/m 8,7 C 14,9 C 17,7 km/h (3 Bft) 92,68 %
07.06.2017 12:16 15,8 C 21,1 C 60 % 1016,5 hPa 0,0 l/m 11,6 km/h (2 Bft) W 261 0 min 0,000 mm 1,8 UV-I 252 W/m 8,1 C 13,3 C 20,9 km/h (4 Bft) 93,62 %
07.06.2017 12:18 15,8 C 21,1 C 59 % 1016,5 hPa 0,0 l/m 13,1 km/h (3 Bft) W-SW 250 0 min 0,000 mm 1,6 UV-I 231 W/m 7,8 C 12,8 C 20,9 km/h (4 Bft) 96,61 %
07.06.2017 12:20 15,8 C 21,1 C 59 % 1016,5 hPa 0,0 l/m 9,3 km/h (2 Bft) W-NW 284 0 min 0,000 mm 1,1 UV-I 183 W/m 7,8 C 14,3 C 16,1 km/h (3 Bft) 92,68 %
07.06.2017 12:22 15,7 C 21,1 C 62 % 1016,5 hPa 0,0 l/m 4,5 km/h (1 Bft) SW 232 0 min 0,000 mm 1,0 UV-I 167 W/m 8,4 C 15,7 C 8,0 km/h (2 Bft) 93,10 %
07.06.2017 12:24 15,7 C 21,1 C 61 % 1016,5 hPa 0,0 l/m 6,1 km/h (2 Bft) W-SW 255 0 min 0,000 mm 1,2 UV-I 182 W/m 8,2 C 15,7 C 12,9 km/h (3 Bft) 95,59 %
07.06.2017 12:26 15,7 C 21,1 C 60 % 1016,5 hPa 0,0 l/m 10,2 km/h (2 Bft) SW 231 0 min 0,000 mm 1,5 UV-I 202 W/m 8,0 C 13,8 C 16,1 km/h (3 Bft) 90,91 %
07.06.2017 12:28 15,7 C 21,1 C 59 % 1016,5 hPa 0,0 l/m 11,4 km/h (2 Bft) W 269 0 min 0,000 mm 1,7 UV-I 229 W/m 7,7 C 13,3 C 20,9 km/h (4 Bft) 93,18 %
07.06.2017 12:30 15,8 C 21,1 C 57 % 1016,5 hPa 0,0 l/m 14,5 km/h (3 Bft) W-SW 239 0 min 0,000 mm 3,7 UV-I 409 W/m 7,3 C 12,3 C 27,4 km/h (4 Bft) 96,23 %
07.06.2017 12:32 16,2 C 21,1 C 57 % 1016,5 hPa 0,0 l/m 11,0 km/h (2 Bft) W-NW 283 2 min 0,000 mm 5,1 UV-I 1106 W/m 7,7 C 14,0 C 17,7 km/h (3 Bft) 95,45 %
07.06.2017 12:34 16,5 C 21,1 C 56 % 1016,5 hPa 0,0 l/m 13,1 km/h (3 Bft) W-SW 242 2 min 0,000 mm 5,0 UV-I 1106 W/m 7,7 C 13,6 C 20,9 km/h (4 Bft) 97,73 %
07.06.2017 12:36 16,9 C 21,1 C 56 % 1016,5 hPa 0,0 l/m 13,2 km/h (3 Bft) W-SW 250 2 min 0,000 mm 5,3 UV-I 1133 W/m 8,1 C 14,1 C 17,7 km/h (3 Bft) 100,00 %
07.06.2017 12:38 17,1 C 21,1 C 53 % 1016,5 hPa 0,0 l/m 14,9 km/h (3 Bft) W 269 2 min 0,000 mm 3,8 UV-I 932 W/m 7,4 C 13,8 C 20,9 km/h (4 Bft) 94,00 %
07.06.2017 12:40 17,1 C 21,1 C 55 % 1016,4 hPa 0,0 l/m 14,2 km/h (3 Bft) S-SW 213 0 min 0,000 mm 2,4 UV-I 476 W/m 8,0 C 14,0 C 27,4 km/h (4 Bft) 100,00 %
07.06.2017 12:42 16,9 C 21,1 C 53 % 1016,4 hPa 0,0 l/m 13,6 km/h (3 Bft) W-SW 252 0 min 0,000 mm 2,2 UV-I 312 W/m 7,3 C 13,9 C 19,3 km/h (3 Bft) 100,00 %
07.06.2017 12:44 16,8 C 21,1 C 52 % 1016,4 hPa 0,0 l/m 14,3 km/h (3 Bft) W-SW 243 0 min 0,000 mm 2,3 UV-I 310 W/m 6,9 C 13,6 C 19,3 km/h (3 Bft) 98,08 %
07.06.2017 12:46 16,7 C 21,1 C 54 % 1016,4 hPa 0,0 l/m 8,7 km/h (2 Bft) W-NW 296 0 min 0,000 mm 2,5 UV-I 328 W/m 7,3 C 15,6 C 14,5 km/h (3 Bft) 100,00 %
07.06.2017 12:48 16,6 C 21,1 C 53 % 1016,4 hPa 0,0 l/m 14,0 km/h (3 Bft) SW 232 0 min 0,000 mm 4,2 UV-I 396 W/m 7,0 C 13,4 C 22,5 km/h (4 Bft) 100,00 %
07.06.2017 12:50 16,9 C 21,1 C 55 % 1016,5 hPa 0,0 l/m 17,1 km/h (3 Bft) W-SW 238 2 min 0,000 mm 5,2 UV-I 512 W/m 7,8 C 12,9 C 27,4 km/h (4 Bft) 96,23 %
07.06.2017 12:52 17,1 C 21,1 C 53 % 1016,5 hPa 0,0 l/m 16,0 km/h (3 Bft) SW 231 2 min 0,000 mm 4,2 UV-I 534 W/m 7,4 C 13,5 C 30,6 km/h (5 Bft) 97,87 %
07.06.2017 12:54 17,4 C 21,1 C 52 % 1016,4 hPa 0,0 l/m 14,4 km/h (3 Bft) SW 235 2 min 0,000 mm 4,5 UV-I 1031 W/m 7,4 C 14,3 C 25,7 km/h (4 Bft) 94,34 %
07.06.2017 12:56 17,4 C 21,7 C 50 % 1016,4 hPa 0,0 l/m 19,4 km/h (3 Bft) S-SW 209 2 min 0,000 mm 4,3 UV-I 935 W/m 6,9 C 13,0 C 29,0 km/h (5 Bft) 94,74 %
07.06.2017 12:58 17,4 C 21,1 C 50 % 1016,4 hPa 0,0 l/m 12,5 km/h (3 Bft) W-NW 300 2 min 0,000 mm 3,8 UV-I 807 W/m 6,9 C 14,9 C 22,5 km/h (4 Bft) 96,43 %
07.06.2017 13:00 17,3 C 21,7 C 51 % 1016,4 hPa 0,0 l/m 16,3 km/h (3 Bft) SW 217 0 min 0,000 mm 2,5 UV-I 482 W/m 7,1 C 13,6 C 24,1 km/h (4 Bft) 100,00 %
07.06.2017 13:02 17,2 C 21,1 C 51 % 1016,5 hPa 0,0 l/m 14,0 km/h (3 Bft) W-SW 250 0 min 0,305 mm 1,6 UV-I 258 W/m 7,0 C 14,2 C 20,9 km/h (4 Bft) 95,74 %
07.06.2017 13:04 17,0 C 21,1 C 53 % 1016,4 hPa 0,0 l/m 14,8 km/h (3 Bft) SW 229 0 min 0,000 mm 1,4 UV-I 232 W/m 7,4 C 13,7 C 22,5 km/h (4 Bft) 95,74 %
07.06.2017 13:06 16,9 C 21,1 C 54 % 1016,4 hPa 0,0 l/m 16,6 km/h (3 Bft) W-SW 242 0 min 0,000 mm 2,0 UV-I 312 W/m 7,5 C 13,0 C 22,5 km/h (4 Bft) 95,74 %
07.06.2017 13:08 16,9 C 21,1 C 52 % 1016,5 hPa 0,0 l/m 16,6 km/h (3 Bft) W-NW 296 2 min 0,000 mm 3,4 UV-I 505 W/m 7,0 C 13,0 C 25,7 km/h (4 Bft) 94,34 %
07.06.2017 13:10 17,1 C 21,1 C 53 % 1016,5 hPa 0,0 l/m 12,3 km/h (3 Bft) W 259 2 min 0,000 mm 4,2 UV-I 573 W/m 7,4 C 14,6 C 19,3 km/h (3 Bft) 100,00 %
07.06.2017 13:12 17,2 C 21,1 C 52 % 1016,4 hPa 0,0 l/m 16,9 km/h (3 Bft) W-SW 240 2 min 0,000 mm 4,6 UV-I 588 W/m 7,3 C 13,3 C 27,4 km/h (4 Bft) 100,00 %
07.06.2017 13:14 17,4 C 21,1 C 53 % 1016,4 hPa 0,0 l/m 13,1 km/h (3 Bft) W 259 2 min 0,000 mm 4,0 UV-I 593 W/m 7,7 C 14,7 C 19,3 km/h (3 Bft) 97,56 %
07.06.2017 13:16 17,6 C 21,1 C 52 % 1016,4 hPa 0,0 l/m 17,4 km/h (3 Bft) W-SW 251 2 min 0,000 mm 4,5 UV-I 684 W/m 7,6 C 13,7 C 24,1 km/h (4 Bft) 97,73 %
07.06.2017 13:18 17,7 C 21,1 C 52 % 1016,4 hPa 0,0 l/m 16,2 km/h (3 Bft) W-SW 248 2 min 0,000 mm 4,5 UV-I 702 W/m 7,7 C 14,1 C 29,0 km/h (5 Bft) 94,64 %
07.06.2017 13:20 17,8 C 21,1 C 51 % 1016,4 hPa 0,0 l/m 21,6 km/h (4 Bft) W 261 2 min 0,000 mm 5,1 UV-I 659 W/m 7,5 C 13,0 C 30,6 km/h (5 Bft) 100,00 %
07.06.2017 13:22 17,9 C 21,1 C 49 % 1016,4 hPa 0,0 l/m 18,7 km/h (3 Bft) SW 231 2 min 0,000 mm 5,6 UV-I 645 W/m 7,0 C 13,8 C 27,4 km/h (4 Bft) 100,00 %
07.06.2017 13:24 17,9 C 21,1 C 50 % 1016,4 hPa 0,0 l/m 15,2 km/h (3 Bft) SW 230 2 min 0,000 mm 3,4 UV-I 622 W/m 7,3 C 14,7 C 22,5 km/h (4 Bft) 94,87 %
07.06.2017 13:26 17,8 C 21,1 C 49 % 1016,4 hPa 0,0 l/m 22,0 km/h (4 Bft) W-SW 238 0 min 0,000 mm 2,4 UV-I 344 W/m 6,9 C 13,0 C 30,6 km/h (5 Bft) 97,73 %
07.06.2017 13:28 17,6 C 21,1 C 50 % 1016,5 hPa 0,0 l/m 21,9 km/h (4 Bft) W-SW 256 0 min 0,000 mm 1,7 UV-I 254 W/m 7,1 C 12,7 C 32,2 km/h (5 Bft) 100,00 %
07.06.2017 13:30 17,3 C 21,1 C 50 % 1016,5 hPa 0,0 l/m 19,4 km/h (3 Bft) W-SW 243 0 min 0,000 mm 1,4 UV-I 224 W/m 6,8 C 12,9 C 27,4 km/h (4 Bft) 100,00 %
07.06.2017 13:32 17,0 C 21,1 C 50 % 1016,5 hPa 0,0 l/m 17,2 km/h (3 Bft) W-SW 239 0 min 0,000 mm 1,4 UV-I 224 W/m 6,5 C 13,0 C 25,7 km/h (4 Bft) 95,38 %
07.06.2017 13:34 16,8 C 21,1 C 50 % 1016,5 hPa 0,0 l/m 11,4 km/h (2 Bft) W 261 0 min 0,000 mm 1,9 UV-I 291 W/m 6,3 C 14,6 C 22,5 km/h (4 Bft) 98,11 %
07.06.2017 13:36 16,8 C 21,1 C 52 % 1016,6 hPa 0,0 l/m 15,2 km/h (3 Bft) W 277 0 min 0,000 mm 2,0 UV-I 291 W/m 6,9 C 13,3 C 29,0 km/h (5 Bft) 100,00 %
07.06.2017 13:38 16,7 C 21,1 C 52 % 1016,6 hPa 0,0 l/m 14,8 km/h (3 Bft) SW 220 0 min 0,000 mm 1,7 UV-I 242 W/m 6,8 C 13,3 C 22,5 km/h (4 Bft) 97,73 %
07.06.2017 13:40 16,6 C 21,1 C 52 % 1016,7 hPa 0,0 l/m 15,8 km/h (3 Bft) W-SW 257 0 min 0,000 mm 1,3 UV-I 196 W/m 6,7 C 12,9 C 22,5 km/h (4 Bft) 96,23 %
07.06.2017 13:42 16,5 C 21,1 C 53 % 1016,7 hPa 0,0 l/m 10,4 km/h (2 Bft) W-SW 248 0 min 0,000 mm 1,0 UV-I 162 W/m 6,9 C 14,6 C 17,7 km/h (3 Bft) 97,56 %
07.06.2017 13:44 16,4 C 21,1 C 53 % 1016,7 hPa 0,0 l/m 14,4 km/h (3 Bft) W-SW 249 0 min 0,000 mm 1,0 UV-I 157 W/m 6,8 C 13,1 C 25,7 km/h (4 Bft) 96,00 %
07.06.2017 13:46 16,3 C 21,1 C 53 % 1016,7 hPa 0,0 l/m 15,8 km/h (3 Bft) W 265 0 min 0,000 mm 1,1 UV-I 162 W/m 6,7 C 12,5 C 22,5 km/h (4 Bft) 97,87 %
07.06.2017 13:48 16,2 C 21,1 C 52 % 1016,7 hPa 0,0 l/m 17,9 km/h (3 Bft) W 277 0 min 0,000 mm 1,1 UV-I 166 W/m 6,3 C 11,8 C 25,7 km/h (4 Bft) 98,00 %
07.06.2017 13:50 16,1 C 21,1 C 52 % 1016,7 hPa 0,0 l/m 14,8 km/h (3 Bft) W 279 0 min 0,000 mm 1,1 UV-I 172 W/m 6,2 C 12,6 C 24,1 km/h (4 Bft) 95,74 %
07.06.2017 13:52 16,1 C 21,1 C 53 % 1016,7 hPa 0,0 l/m 17,0 km/h (3 Bft) W-SW 250 0 min 0,000 mm 1,2 UV-I 178 W/m 6,5 C 11,9 C 22,5 km/h (4 Bft) 97,73 %
07.06.2017 13:54 16,0 C 21,1 C 53 % 1016,7 hPa 0,0 l/m 14,2 km/h (3 Bft) W 267 0 min 0,000 mm 1,2 UV-I 180 W/m 6,4 C 12,7 C 25,7 km/h (4 Bft) 97,56 %
07.06.2017 13:56 16,0 C 21,1 C 53 % 1016,8 hPa 0,0 l/m 18,7 km/h (3 Bft) W 271 0 min 0,000 mm 1,2 UV-I 191 W/m 6,4 C 11,4 C 32,2 km/h (5 Bft) 90,48 %
07.06.2017 13:58 15,9 C 21,1 C 53 % 1016,8 hPa 0,0 l/m 17,2 km/h (3 Bft) W-SW 256 0 min 0,000 mm 1,3 UV-I 193 W/m 6,3 C 11,6 C 30,6 km/h (5 Bft) 94,83 %
07.06.2017 14:00 15,9 C 21,1 C 54 % 1016,8 hPa 0,0 l/m 16,2 km/h (3 Bft) W-SW 252 0 min 0,000 mm 1,2 UV-I 182 W/m 6,6 C 11,9 C 27,4 km/h (4 Bft) 92,86 %
07.06.2017 14:02 15,9 C 21,1 C 54 % 1016,8 hPa 0,0 l/m 16,1 km/h (3 Bft) W 265 0 min 0,305 mm 1,1 UV-I 175 W/m 6,6 C 11,9 C 25,7 km/h (4 Bft) 94,87 %
07.06.2017 14:04 15,8 C 21,1 C 54 % 1016,8 hPa 0,0 l/m 12,6 km/h (3 Bft) W-SW 239 0 min 0,000 mm 1,1 UV-I 167 W/m 6,5 C 13,0 C 19,3 km/h (3 Bft) 98,04 %
07.06.2017 14:06 15,8 C 21,1 C 55 % 1016,8 hPa 0,0 l/m 12,3 km/h (3 Bft) W-SW 248 0 min 0,000 mm 1,0 UV-I 162 W/m 6,8 C 13,1 C 20,9 km/h (4 Bft) 96,00 %
07.06.2017 14:08 15,8 C 21,1 C 56 % 1016,8 hPa 0,0 l/m 10,6 km/h (2 Bft) W-SW 257 0 min 0,000 mm 1,0 UV-I 161 W/m 7,0 C 13,7 C 16,1 km/h (3 Bft) 98,00 %
07.06.2017 14:10 15,8 C 21,1 C 55 % 1016,7 hPa 0,0 l/m 16,7 km/h (3 Bft) W 259 0 min 0,000 mm 1,0 UV-I 167 W/m 6,8 C 11,7 C 27,4 km/h (4 Bft) 98,11 %
07.06.2017 14:12 15,8 C 21,1 C 55 % 1016,8 hPa 0,0 l/m 12,9 km/h (3 Bft) W-SW 255 0 min 0,000 mm 1,1 UV-I 180 W/m 6,8 C 12,9 C 19,3 km/h (3 Bft) 94,74 %
07.06.2017 14:14 15,8 C 21,1 C 56 % 1016,8 hPa 0,0 l/m 13,2 km/h (3 Bft) SW 230 0 min 0,000 mm 1,2 UV-I 188 W/m 7,0 C 12,8 C 20,9 km/h (4 Bft) 94,64 %
07.06.2017 14:16 15,8 C 21,1 C 55 % 1016,8 hPa 0,0 l/m 11,0 km/h (2 Bft) W-SW 258 0 min 0,000 mm 1,2 UV-I 196 W/m 6,8 C 13,6 C 17,7 km/h (3 Bft) 94,74 %
07.06.2017 14:18 15,8 C 21,7 C 56 % 1016,8 hPa 0,0 l/m 11,4 km/h (2 Bft) W 267 0 min 0,000 mm 1,3 UV-I 208 W/m 7,0 C 13,4 C 19,3 km/h (3 Bft) 98,11 %
07.06.2017 14:20 15,8 C 21,7 C 57 % 1016,8 hPa 0,0 l/m 11,0 km/h (2 Bft) W-SW 248 0 min 0,000 mm 1,3 UV-I 218 W/m 7,3 C 13,6 C 16,1 km/h (3 Bft) 96,00 %
07.06.2017 14:22 15,8 C 21,7 C 56 % 1016,9 hPa 0,0 l/m 10,0 km/h (2 Bft) W 269 0 min 0,000 mm 1,3 UV-I 215 W/m 7,0 C 14,0 C 14,5 km/h (3 Bft) 88,57 %
07.06.2017 14:24 15,9 C 21,7 C 58 % 1016,9 hPa 0,0 l/m 5,9 km/h (2 Bft) W 261 0 min 0,000 mm 1,2 UV-I 204 W/m 7,6 C 15,9 C 12,9 km/h (3 Bft) 96,00 %
07.06.2017 14:26 15,9 C 21,7 C 57 % 1016,9 hPa 0,0 l/m 12,7 km/h (3 Bft) W-SW 242 0 min 0,000 mm 1,2 UV-I 206 W/m 7,4 C 13,1 C 17,7 km/h (3 Bft) 100,00 %
07.06.2017 14:28 15,9 C 21,7 C 56 % 1016,9 hPa 0,0 l/m 10,9 km/h (2 Bft) W-SW 257 0 min 0,000 mm 1,2 UV-I 208 W/m 7,1 C 13,7 C 19,3 km/h (3 Bft) 100,00 %
07.06.2017 14:30 15,9 C 21,7 C 56 % 1016,8 hPa 0,0 l/m 10,0 km/h (2 Bft) W 259 0 min 0,000 mm 1,3 UV-I 230 W/m 7,1 C 14,1 C 14,5 km/h (3 Bft) 97,56 %
07.06.2017 14:32 16,0 C 21,7 C 57 % 1016,8 hPa 0,0 l/m 6,3 km/h (2 Bft) W-SW 254 0 min 0,000 mm 1,2 UV-I 217 W/m 7,5 C 16,0 C 11,3 km/h (2 Bft) 100,00 %
07.06.2017 14:34 15,9 C 21,7 C 57 % 1016,9 hPa 0,0 l/m 6,7 km/h (2 Bft) W 281 0 min 0,000 mm 1,0 UV-I 168 W/m 7,4 C 15,7 C 12,9 km/h (3 Bft) 96,30 %
07.06.2017 14:36 15,9 C 21,7 C 59 % 1016,9 hPa 0,0 l/m 6,2 km/h (2 Bft) N-NW 331 0 min 0,000 mm 0,7 UV-I 134 W/m 7,9 C 15,9 C 16,1 km/h (3 Bft) 95,52 %
07.06.2017 14:38 15,8 C 21,7 C 58 % 1017,0 hPa 0,0 l/m 12,5 km/h (3 Bft) W-NW 300 0 min 0,000 mm 0,7 UV-I 133 W/m 7,6 C 13,0 C 33,8 km/h (5 Bft) 92,45 %
07.06.2017 14:40 15,5 C 21,7 C 60 % 1017,1 hPa 0,0 l/m 9,9 km/h (2 Bft) W-NW 292 0 min 0,000 mm 1,0 UV-I 167 W/m 7,8 C 13,7 C 24,1 km/h (4 Bft) 90,24 %
07.06.2017 14:42 15,2 C 21,7 C 62 % 1017,0 hPa 0,0 l/m 8,0 km/h (2 Bft) N 355 0 min 0,000 mm 1,2 UV-I 205 W/m 8,0 C 14,3 C 22,5 km/h (4 Bft) 95,56 %
07.06.2017 14:44 14,9 C 21,7 C 63 % 1017,1 hPa 0,0 l/m 7,8 km/h (2 Bft) W-NW 289 0 min 0,000 mm 1,3 UV-I 206 W/m 7,9 C 14,1 C 16,1 km/h (3 Bft) 100,00 %
07.06.2017 14:46 14,7 C 21,7 C 63 % 1017,2 hPa 0,0 l/m 6,5 km/h (2 Bft) W-SW 248 0 min 0,000 mm 1,2 UV-I 198 W/m 7,7 C 14,7 C 19,3 km/h (3 Bft) 97,87 %
07.06.2017 14:48 14,4 C 21,7 C 64 % 1017,3 hPa 0,0 l/m 10,4 km/h (2 Bft) NW 323 0 min 0,000 mm 1,2 UV-I 196 W/m 7,7 C 12,3 C 20,9 km/h (4 Bft) 97,50 %
07.06.2017 14:50 14,3 C 21,7 C 64 % 1017,2 hPa 0,0 l/m 5,7 km/h (1 Bft) S-SO 164 0 min 0,000 mm 1,1 UV-I 189 W/m 7,6 C 14,3 C 19,3 km/h (3 Bft) 100,00 %
07.06.2017 14:52 14,3 C 21,7 C 66 % 1017,1 hPa 0,0 l/m 9,3 km/h (2 Bft) N-NW 336 0 min 0,000 mm 1,3 UV-I 219 W/m 8,0 C 12,7 C 20,9 km/h (4 Bft) 97,87 %
07.06.2017 14:54 14,3 C 21,7 C 66 % 1017,3 hPa 0,0 l/m 7,4 km/h (2 Bft) N-NW 339 0 min 0,000 mm 1,6 UV-I 273 W/m 8,0 C 13,7 C 16,1 km/h (3 Bft) 97,37 %
07.06.2017 14:56 14,3 C 21,7 C 65 % 1017,3 hPa 0,0 l/m 10,1 km/h (2 Bft) W-SW 252 0 min 0,000 mm 1,7 UV-I 286 W/m 7,8 C 12,3 C 16,1 km/h (3 Bft) 100,00 %
07.06.2017 14:58 14,3 C 21,7 C 65 % 1017,2 hPa 0,0 l/m 6,8 km/h (2 Bft) NO 55 0 min 0,000 mm 1,6 UV-I 267 W/m 7,8 C 14,1 C 11,3 km/h (2 Bft) 94,00 %
07.06.2017 15:00 14,3 C 21,1 C 66 % 1017,3 hPa 0,0 l/m 8,0 km/h (2 Bft) W-NW 292 0 min 0,000 mm 1,5 UV-I 260 W/m 8,0 C 13,4 C 17,7 km/h (3 Bft) 100,00 %
07.06.2017 15:02 14,3 C 21,1 C 66 % 1017,3 hPa 0,0 l/m 6,4 km/h (2 Bft) W 272 0 min 0,152 mm 1,6 UV-I 289 W/m 8,0 C 14,3 C 16,1 km/h (3 Bft) 98,46 %
07.06.2017 15:04 14,3 C 21,1 C 66 % 1017,3 hPa 0,0 l/m 5,3 km/h (1 Bft) W-SW 246 0 min 0,000 mm 1,9 UV-I 340 W/m 8,0 C 14,3 C 14,5 km/h (3 Bft) 100,00 %
07.06.2017 15:06 14,5 C 21,1 C 65 % 1017,3 hPa 0,0 l/m 6,7 km/h (2 Bft) W-NW 290 0 min 0,000 mm 2,2 UV-I 384 W/m 8,0 C 14,3 C 12,9 km/h (3 Bft) 100,00 %
07.06.2017 15:08 14,7 C 21,1 C 67 % 1017,4 hPa 0,0 l/m 4,5 km/h (1 Bft) W 266 0 min 0,000 mm 2,1 UV-I 351 W/m 8,6 C 14,7 C 16,1 km/h (3 Bft) 98,11 %
07.06.2017 15:10 14,8 C 21,1 C 67 % 1017,4 hPa 0,0 l/m 7,0 km/h (2 Bft) W 273 0 min 0,000 mm 1,7 UV-I 309 W/m 8,7 C 14,5 C 12,9 km/h (3 Bft) 98,11 %
07.06.2017 15:12 14,8 C 21,1 C 65 % 1017,4 hPa 0,0 l/m 7,0 km/h (2 Bft) W-SW 239 0 min 0,000 mm 1,8 UV-I 333 W/m 8,3 C 14,5 C 14,5 km/h (3 Bft) 97,56 %
07.06.2017 15:14 14,9 C 21,1 C 65 % 1017,4 hPa 0,0 l/m 7,5 km/h (2 Bft) W-NW 297 0 min 0,000 mm 1,8 UV-I 325 W/m 8,4 C 14,3 C 14,5 km/h (3 Bft) 98,00 %
07.06.2017 15:16 14,9 C 21,1 C 66 % 1017,4 hPa 0,0 l/m 4,9 km/h (1 Bft) W-NW 283 0 min 0,000 mm 1,6 UV-I 292 W/m 8,6 C 14,9 C 12,9 km/h (3 Bft) 96,00 %
07.06.2017 15:18 14,8 C 21,1 C 65 % 1017,4 hPa 0,0 l/m 5,3 km/h (1 Bft) W-SW 249 0 min 0,000 mm 1,4 UV-I 249 W/m 8,3 C 14,8 C 9,7 km/h (2 Bft) 97,87 %
07.06.2017 15:20 14,8 C 21,1 C 66 % 1017,4 hPa 0,0 l/m 3,9 km/h (1 Bft) W 261 0 min 0,000 mm 1,3 UV-I 214 W/m 8,5 C 14,8 C 8,0 km/h (2 Bft) 100,00 %
07.06.2017 15:22 14,8 C 21,1 C 68 % 1017,4 hPa 0,0 l/m 3,2 km/h (1 Bft) W-SW 251 0 min 0,000 mm 1,1 UV-I 189 W/m 9,0 C 14,8 C 8,0 km/h (2 Bft) 96,00 %
07.06.2017 15:24 14,8 C 21,1 C 65 % 1017,5 hPa 0,0 l/m 2,7 km/h (1 Bft) W-NW 290 0 min 0,000 mm 1,0 UV-I 179 W/m 8,3 C 14,8 C 6,4 km/h (2 Bft) 100,00 %
07.06.2017 15:26 14,8 C 21,1 C 65 % 1017,6 hPa 0,0 l/m 4,4 km/h (1 Bft) W-NW 288 0 min 0,000 mm 1,0 UV-I 178 W/m 8,3 C 14,8 C 9,7 km/h (2 Bft) 97,37 %
07.06.2017 15:28 14,7 C 21,1 C 66 % 1017,6 hPa 0,0 l/m 4,7 km/h (1 Bft) W-NW 284 0 min 0,000 mm 1,1 UV-I 193 W/m 8,4 C 14,7 C 11,3 km/h (2 Bft) 100,00 %
07.06.2017 15:30 14,8 C 21,1 C 66 % 1017,6 hPa 0,0 l/m 4,0 km/h (1 Bft) W-NW 284 0 min 0,000 mm 1,2 UV-I 219 W/m 8,5 C 14,8 C 11,3 km/h (2 Bft) 97,37 %
07.06.2017 15:32 14,8 C 21,1 C 66 % 1017,6 hPa 0,0 l/m 7,4 km/h (2 Bft) N 5 0 min 0,000 mm 1,3 UV-I 250 W/m 8,5 C 14,2 C 12,9 km/h (3 Bft) 100,00 %
07.06.2017 15:34 14,8 C 21,1 C 63 % 1017,6 hPa 0,0 l/m 4,6 km/h (1 Bft) W 265 0 min 0,000 mm 1,5 UV-I 291 W/m 7,8 C 14,8 C 11,3 km/h (2 Bft) 96,00 %
07.06.2017 15:36 14,8 C 21,1 C 63 % 1017,6 hPa 0,0 l/m 6,9 km/h (2 Bft) W-SW 242 0 min 0,000 mm 1,6 UV-I 323 W/m 7,8 C 14,5 C 12,9 km/h (3 Bft) 98,00 %
07.06.2017 15:38 14,9 C 21,1 C 61 % 1017,6 hPa 0,0 l/m 9,8 km/h (2 Bft) W-SW 249 0 min 0,000 mm 1,8 UV-I 349 W/m 7,4 C 13,1 C 19,3 km/h (3 Bft) 97,73 %
07.06.2017 15:40 15,0 C 21,1 C 62 % 1017,5 hPa 0,0 l/m 6,4 km/h (2 Bft) W 277 0 min 0,000 mm 1,9 UV-I 371 W/m 7,8 C 15,0 C 14,5 km/h (3 Bft) 93,18 %
07.06.2017 15:42 15,0 C 21,1 C 61 % 1017,5 hPa 0,0 l/m 5,9 km/h (2 Bft) W-SW 237 0 min 0,000 mm 2,1 UV-I 401 W/m 7,5 C 15,0 C 11,3 km/h (2 Bft) 97,92 %
07.06.2017 15:44 15,1 C 21,1 C 62 % 1017,4 hPa 0,0 l/m 6,5 km/h (2 Bft) SW 236 0 min 0,000 mm 2,1 UV-I 361 W/m 7,9 C 15,1 C 11,3 km/h (2 Bft) 93,02 %
07.06.2017 15:46 15,2 C 21,1 C 61 % 1017,5 hPa 0,0 l/m 5,8 km/h (2 Bft) W-SW 242 0 min 0,000 mm 1,5 UV-I 293 W/m 7,7 C 15,2 C 12,9 km/h (3 Bft) 96,00 %
07.06.2017 15:48 15,3 C 21,1 C 62 % 1017,5 hPa 0,0 l/m 4,8 km/h (1 Bft) W 260 0 min 0,000 mm 1,4 UV-I 260 W/m 8,1 C 15,3 C 11,3 km/h (2 Bft) 96,00 %
07.06.2017 15:50 15,3 C 21,1 C 61 % 1017,5 hPa 0,0 l/m 8,7 km/h (2 Bft) W-SW 237 0 min 0,000 mm 1,3 UV-I 248 W/m 7,8 C 14,1 C 17,7 km/h (3 Bft) 92,68 %
07.06.2017 15:52 15,3 C 21,1 C 60 % 1017,6 hPa 0,0 l/m 7,1 km/h (2 Bft) W 276 0 min 0,000 mm 1,1 UV-I 217 W/m 7,6 C 14,9 C 12,9 km/h (3 Bft) 94,34 %
07.06.2017 15:54 15,2 C 21,1 C 60 % 1017,6 hPa 0,0 l/m 9,9 km/h (2 Bft) W-SW 238 0 min 0,000 mm 1,1 UV-I 205 W/m 7,5 C 13,4 C 19,3 km/h (3 Bft) 92,00 %
07.06.2017 15:56 15,2 C 21,1 C 60 % 1017,6 hPa 0,0 l/m 10,1 km/h (2 Bft) W-SW 250 0 min 0,000 mm 1,0 UV-I 199 W/m 7,5 C 13,3 C 14,5 km/h (3 Bft) 84,21 %
07.06.2017 15:58 15,2 C 21,1 C 62 % 1017,7 hPa 0,0 l/m 9,9 km/h (2 Bft) W 261 0 min 0,000 mm 1,0 UV-I 195 W/m 8,0 C 13,4 C 16,1 km/h (3 Bft) 90,57 %
07.06.2017 16:00 15,1 C 21,1 C 61 % 1017,7 hPa 0,0 l/m 7,3 km/h (2 Bft) SW 236 0 min 0,000 mm 0,9 UV-I 187 W/m 7,6 C 14,6 C 12,9 km/h (3 Bft) 93,02 %
07.06.2017 16:02 15,1 C 21,1 C 62 % 1017,8 hPa 0,0 l/m 9,4 km/h (2 Bft) W-SW 240 0 min 0,178 mm 0,9 UV-I 186 W/m 7,9 C 13,5 C 12,9 km/h (3 Bft) 89,74 %
07.06.2017 16:04 15,1 C 21,1 C 63 % 1017,8 hPa 0,0 l/m 6,4 km/h (2 Bft) W 266 0 min 0,000 mm 1,0 UV-I 210 W/m 8,1 C 15,1 C 11,3 km/h (2 Bft) 92,86 %
07.06.2017 16:06 15,1 C 21,1 C 62 % 1017,8 hPa 0,0 l/m 10,9 km/h (2 Bft) W-SW 250 0 min 0,000 mm 1,2 UV-I 233 W/m 7,9 C 12,8 C 17,7 km/h (3 Bft) 96,00 %
07.06.2017 16:08 15,2 C 21,1 C 63 % 1017,9 hPa 0,0 l/m 12,1 km/h (2 Bft) W 262 0 min 0,000 mm 1,2 UV-I 232 W/m 8,2 C 12,5 C 19,3 km/h (3 Bft) 95,12 %
07.06.2017 16:10 15,2 C 21,1 C 63 % 1017,9 hPa 0,0 l/m 9,3 km/h (2 Bft) SW 234 0 min 0,000 mm 1,1 UV-I 207 W/m 8,2 C 13,7 C 14,5 km/h (3 Bft) 90,57 %
07.06.2017 16:12 15,2 C 21,1 C 63 % 1018,0 hPa 0,0 l/m 10,0 km/h (2 Bft) SW 233 0 min 0,000 mm 1,0 UV-I 188 W/m 8,2 C 13,3 C 14,5 km/h (3 Bft) 92,11 %
07.06.2017 16:14 15,1 C 21,1 C 63 % 1018,0 hPa 0,0 l/m 10,7 km/h (2 Bft) W 277 0 min 0,000 mm 0,8 UV-I 166 W/m 8,1 C 12,9 C 14,5 km/h (3 Bft) 94,00 %
07.06.2017 16:16 15,1 C 21,1 C 65 % 1018,0 hPa 0,0 l/m 8,8 km/h (2 Bft) W-SW 240 0 min 0,000 mm 0,7 UV-I 137 W/m 8,6 C 13,8 C 16,1 km/h (3 Bft) 95,74 %
07.06.2017 16:18 15,0 C 21,1 C 67 % 1018,0 hPa 0,0 l/m 8,9 km/h (2 Bft) SW 224 0 min 0,000 mm 0,6 UV-I 112 W/m 8,9 C 13,6 C 16,1 km/h (3 Bft) 92,00 %
07.06.2017 16:20 14,8 C 21,1 C 66 % 1018,0 hPa 0,0 l/m 7,1 km/h (2 Bft) SW 214 0 min 0,000 mm 0,5 UV-I 101 W/m 8,5 C 14,4 C 12,9 km/h (3 Bft) 95,12 %
07.06.2017 16:22 14,7 C 21,1 C 68 % 1017,9 hPa 0,0 l/m 8,3 km/h (2 Bft) SW 229 0 min 0,000 mm 0,5 UV-I 101 W/m 8,9 C 13,6 C 12,9 km/h (3 Bft) 92,00 %
07.06.2017 16:24 14,5 C 21,7 C 69 % 1018,0 hPa 0,0 l/m 14,1 km/h (3 Bft) S-SW 198 0 min 0,000 mm 0,3 UV-I 102 W/m 8,9 C 10,9 C 25,7 km/h (4 Bft) 92,68 %
07.06.2017 16:26 14,3 C 21,1 C 71 % 1018,0 hPa 0,0 l/m 10,2 km/h (2 Bft) S-SW 212 0 min 0,000 mm 0,0 UV-I 94 W/m 9,1 C 12,3 C 16,1 km/h (3 Bft) 94,34 %
07.06.2017 16:28 14,1 C 21,1 C 72 % 1017,9 hPa 0,0 l/m 6,6 km/h (2 Bft) S-SW 213 0 min 0,000 mm 0,0 UV-I 99 W/m 9,1 C 14,0 C 9,7 km/h (2 Bft) 95,74 %
07.06.2017 16:30 13,9 C 21,1 C 71 % 1017,8 hPa 0,0 l/m 7,9 km/h (2 Bft) SW 221 0 min 0,000 mm 0,4 UV-I 115 W/m 8,7 C 13,0 C 16,1 km/h (3 Bft) 97,87 %
07.06.2017 16:32 13,9 C 21,1 C 73 % 1017,8 hPa 0,0 l/m 7,9 km/h (2 Bft) S-SW 205 0 min 0,000 mm 0,6 UV-I 130 W/m 9,1 C 13,0 C 11,3 km/h (2 Bft) 91,49 %
07.06.2017 16:34 13,8 C 21,1 C 73 % 1017,9 hPa 0,0 l/m 7,6 km/h (2 Bft) SW 214 0 min 0,000 mm 0,6 UV-I 144 W/m 9,0 C 13,1 C 12,9 km/h (3 Bft) 94,00 %
07.06.2017 16:36 13,8 C 21,1 C 74 % 1017,8 hPa 0,0 l/m 6,9 km/h (2 Bft) S-SW 195 0 min 0,000 mm 0,7 UV-I 161 W/m 9,2 C 13,5 C 11,3 km/h (2 Bft) 95,45 %
07.06.2017 16:38 13,8 C 21,1 C 76 % 1017,8 hPa 0,0 l/m 3,1 km/h (1 Bft) S-SW 201 0 min 0,000 mm 0,7 UV-I 178 W/m 9,6 C 13,8 C 8,0 km/h (2 Bft) 88,89 %
07.06.2017 16:40 13,8 C 21,1 C 74 % 1017,7 hPa 0,0 l/m 4,4 km/h (1 Bft) S-SO 163 0 min 0,000 mm 0,9 UV-I 215 W/m 9,2 C 13,8 C 9,7 km/h (2 Bft) 94,83 %
07.06.2017 16:42 13,9 C 21,1 C 74 % 1017,7 hPa 0,0 l/m 4,8 km/h (1 Bft) S-SW 207 0 min 0,000 mm 1,0 UV-I 251 W/m 9,3 C 13,9 C 8,0 km/h (2 Bft) 95,24 %
07.06.2017 16:44 13,9 C 21,1 C 74 % 1017,7 hPa 0,0 l/m 3,8 km/h (1 Bft) S 177 0 min 0,000 mm 1,1 UV-I 277 W/m 9,3 C 13,9 C 6,4 km/h (2 Bft) 94,00 %
07.06.2017 16:46 14,1 C 21,1 C 74 % 1017,6 hPa 0,0 l/m 4,1 km/h (1 Bft) S-SO 165 0 min 0,000 mm 1,2 UV-I 298 W/m 9,5 C 14,1 C 8,0 km/h (2 Bft) 97,87 %
07.06.2017 16:48 14,2 C 21,1 C 77 % 1017,6 hPa 0,0 l/m 2,3 km/h (1 Bft) S-SO 167 0 min 0,000 mm 1,3 UV-I 316 W/m 10,2 C 14,2 C 6,4 km/h (2 Bft) 97,87 %
07.06.2017 16:50 14,3 C 21,1 C 75 % 1017,6 hPa 0,0 l/m 3,9 km/h (1 Bft) S-SO 166 0 min 0,000 mm 1,3 UV-I 314 W/m 9,9 C 14,3 C 6,4 km/h (2 Bft) 92,45 %
07.06.2017 16:52 14,4 C 21,1 C 75 % 1017,6 hPa 0,0 l/m 2,4 km/h (1 Bft) S-SO 163 0 min 0,000 mm 1,3 UV-I 336 W/m 10,0 C 14,4 C 6,4 km/h (2 Bft) 97,37 %
07.06.2017 16:54 14,5 C 21,1 C 73 % 1017,6 hPa 0,0 l/m 6,4 km/h (2 Bft) S-SO 159 2 min 0,000 mm 1,3 UV-I 355 W/m 9,7 C 14,5 C 9,7 km/h (2 Bft) 100,00 %
07.06.2017 16:56 14,6 C 21,1 C 75 % 1017,7 hPa 0,0 l/m 3,6 km/h (1 Bft) S-SO 156 0 min 0,000 mm 1,3 UV-I 315 W/m 10,2 C 14,6 C 6,4 km/h (2 Bft) 98,18 %
07.06.2017 16:58 14,6 C 21,1 C 75 % 1017,8 hPa 0,0 l/m 4,1 km/h (1 Bft) S-SO 161 0 min 0,000 mm 1,2 UV-I 258 W/m 10,2 C 14,6 C 8,0 km/h (2 Bft) 96,23 %
07.06.2017 17:00 14,5 C 21,1 C 72 % 1017,8 hPa 0,0 l/m 7,8 km/h (2 Bft) S-SO 160 0 min 0,127 mm 1,0 UV-I 224 W/m 9,5 C 13,7 C 12,9 km/h (3 Bft) 95,74 %
07.06.2017 17:02 14,4 C 21,1 C 72 % 1017,8 hPa 0,0 l/m 6,8 km/h (2 Bft) S 191 0 min 0,000 mm 0,9 UV-I 221 W/m 9,4 C 14,2 C 12,9 km/h (3 Bft) 97,37 %
07.06.2017 17:04 14,3 C 21,1 C 72 % 1017,8 hPa 0,0 l/m 11,0 km/h (2 Bft) S-SW 192 0 min 0,000 mm 0,9 UV-I 223 W/m 9,3 C 11,9 C 16,1 km/h (3 Bft) 100,00 %
07.06.2017 17:06 14,2 C 21,1 C 72 % 1017,9 hPa 0,0 l/m 7,4 km/h (2 Bft) S-SO 161 0 min 0,000 mm 0,8 UV-I 210 W/m 9,2 C 13,6 C 12,9 km/h (3 Bft) 96,30 %
07.06.2017 17:08 14,2 C 21,1 C 69 % 1017,8 hPa 0,0 l/m 10,2 km/h (2 Bft) S-SW 200 0 min 0,000 mm 0,8 UV-I 207 W/m 8,6 C 12,1 C 20,9 km/h (4 Bft) 93,75 %
07.06.2017 17:10 14,1 C 21,1 C 70 % 1017,9 hPa 0,0 l/m 7,7 km/h (2 Bft) SW 219 0 min 0,000 mm 0,6 UV-I 160 W/m 8,7 C 13,3 C 11,3 km/h (2 Bft) 97,56 %
07.06.2017 17:12 14,1 C 21,1 C 71 % 1018,0 hPa 0,0 l/m 10,9 km/h (2 Bft) W-SW 241 0 min 0,000 mm 0,0 UV-I 116 W/m 8,9 C 11,7 C 19,3 km/h (3 Bft) 94,00 %
07.06.2017 17:14 14,1 C 21,1 C 71 % 1018,1 hPa 0,0 l/m 10,7 km/h (2 Bft) S-SW 211 0 min 0,000 mm 0,0 UV-I 100 W/m 8,9 C 11,8 C 16,1 km/h (3 Bft) 97,62 %
07.06.2017 17:16 14,1 C 21,1 C 71 % 1018,3 hPa 0,0 l/m 10,0 km/h (2 Bft) SW 232 0 min 0,000 mm 0,0 UV-I 112 W/m 8,9 C 12,1 C 16,1 km/h (3 Bft) 100,00 %
07.06.2017 17:18 14,0 C 21,1 C 71 % 1018,3 hPa 0,0 l/m 10,9 km/h (2 Bft) W-SW 244 0 min 0,000 mm 0,5 UV-I 184 W/m 8,8 C 11,6 C 14,5 km/h (3 Bft) 92,86 %
07.06.2017 17:20 14,0 C 21,1 C 73 % 1018,2 hPa 0,0 l/m 10,4 km/h (2 Bft) S-SW 202 0 min 0,000 mm 0,8 UV-I 269 W/m 9,2 C 11,8 C 14,5 km/h (3 Bft) 96,00 %
07.06.2017 17:22 14,1 C 21,1 C 74 % 1018,1 hPa 0,0 l/m 8,0 km/h (2 Bft) S-SW 208 0 min 0,000 mm 1,0 UV-I 265 W/m 9,5 C 13,2 C 14,5 km/h (3 Bft) 100,00 %
07.06.2017 17:24 14,2 C 21,1 C 73 % 1017,9 hPa 0,0 l/m 8,3 km/h (2 Bft) S 186 2 min 0,000 mm 1,2 UV-I 423 W/m 9,4 C 13,1 C 19,3 km/h (3 Bft) 95,45 %
07.06.2017 17:26 14,3 C 21,1 C 73 % 1017,9 hPa 0,0 l/m 7,9 km/h (2 Bft) S 182 0 min 0,000 mm 1,3 UV-I 287 W/m 9,5 C 13,4 C 17,7 km/h (3 Bft) 94,34 %
07.06.2017 17:28 14,3 C 21,1 C 71 % 1017,9 hPa 0,0 l/m 7,9 km/h (2 Bft) SW 215 2 min 0,000 mm 1,2 UV-I 311 W/m 9,1 C 13,4 C 17,7 km/h (3 Bft) 96,00 %
07.06.2017 17:30 14,3 C 21,1 C 71 % 1017,9 hPa 0,0 l/m 7,3 km/h (2 Bft) S-SW 203 0 min 0,000 mm 0,9 UV-I 189 W/m 9,1 C 13,8 C 12,9 km/h (3 Bft) 98,00 %
07.06.2017 17:32 14,2 C 21,1 C 71 % 1017,9 hPa 0,0 l/m 8,5 km/h (2 Bft) S-SW 197 0 min 0,000 mm 0,9 UV-I 169 W/m 9,0 C 13,0 C 16,1 km/h (3 Bft) 94,29 %
07.06.2017 17:34 14,1 C 21,1 C 70 % 1018,0 hPa 0,0 l/m 6,2 km/h (2 Bft) SW 226 0 min 0,000 mm 0,9 UV-I 176 W/m 8,7 C 14,1 C 11,3 km/h (2 Bft) 96,00 %
07.06.2017 17:36 14,0 C 21,1 C 71 % 1017,9 hPa 0,0 l/m 10,6 km/h (2 Bft) S-SW 210 0 min 0,000 mm 0,8 UV-I 181 W/m 8,8 C 11,7 C 17,7 km/h (3 Bft) 92,45 %
07.06.2017 17:38 14,0 C 21,1 C 71 % 1018,0 hPa 0,0 l/m 8,3 km/h (2 Bft) S-SW 202 0 min 0,000 mm 0,8 UV-I 214 W/m 8,8 C 12,9 C 16,1 km/h (3 Bft) 100,00 %
07.06.2017 17:40 14,0 C 21,1 C 71 % 1018,1 hPa 0,0 l/m 10,4 km/h (2 Bft) SW 223 0 min 0,000 mm 0,8 UV-I 200 W/m 8,8 C 11,8 C 19,3 km/h (3 Bft) 100,00 %
07.06.2017 17:42 14,1 C 21,1 C 72 % 1018,2 hPa 0,0 l/m 6,9 km/h (2 Bft) SW 216 0 min 0,000 mm 0,8 UV-I 197 W/m 9,1 C 13,8 C 12,9 km/h (3 Bft) 89,36 %
07.06.2017 17:44 14,1 C 21,1 C 70 % 1018,1 hPa 0,0 l/m 8,8 km/h (2 Bft) S-SW 206 0 min 0,000 mm 0,7 UV-I 181 W/m 8,7 C 12,7 C 16,1 km/h (3 Bft) 95,12 %
07.06.2017 17:46 14,0 C 21,1 C 71 % 1018,2 hPa 0,0 l/m 10,3 km/h (2 Bft) S 185 0 min 0,000 mm 0,5 UV-I 156 W/m 8,8 C 11,9 C 14,5 km/h (3 Bft) 84,00 %
07.06.2017 17:48 14,0 C 21,1 C 72 % 1018,2 hPa 0,0 l/m 9,4 km/h (2 Bft) S-SW 192 0 min 0,000 mm 0,0 UV-I 140 W/m 9,0 C 12,3 C 16,1 km/h (3 Bft) 95,12 %
07.06.2017 17:50 13,9 C 21,1 C 71 % 1018,2 hPa 0,0 l/m 12,0 km/h (2 Bft) S-SW 200 0 min 0,000 mm 0,0 UV-I 126 W/m 8,7 C 11,0 C 27,4 km/h (4 Bft) 94,64 %
07.06.2017 17:52 13,9 C 21,1 C 72 % 1018,3 hPa 0,0 l/m 7,8 km/h (2 Bft) S-SW 194 0 min 0,000 mm 0,0 UV-I 110 W/m 8,9 C 13,1 C 14,5 km/h (3 Bft) 97,56 %
07.06.2017 17:54 13,9 C 21,1 C 72 % 1018,3 hPa 0,0 l/m 12,2 km/h (2 Bft) SW 215 0 min 0,000 mm 0,0 UV-I 94 W/m 8,9 C 10,9 C 20,9 km/h (4 Bft) 94,87 %
07.06.2017 17:56 13,9 C 21,1 C 72 % 1018,4 hPa 0,0 l/m 13,8 km/h (3 Bft) SW 232 0 min 0,000 mm 0,0 UV-I 99 W/m 8,9 C 10,3 C 24,1 km/h (4 Bft) 96,23 %
07.06.2017 17:58 13,8 C 21,1 C 72 % 1018,3 hPa 0,0 l/m 10,7 km/h (2 Bft) S-SW 196 0 min 0,000 mm 0,0 UV-I 160 W/m 8,8 C 11,5 C 14,5 km/h (3 Bft) 93,18 %
07.06.2017 18:00 13,9 C 21,1 C 72 % 1018,2 hPa 0,0 l/m 8,0 km/h (2 Bft) S-SW 204 0 min 0,000 mm 0,6 UV-I 219 W/m 8,9 C 12,9 C 16,1 km/h (3 Bft) 97,96 %
07.06.2017 18:02 13,9 C 21,1 C 73 % 1018,3 hPa 0,0 l/m 8,4 km/h (2 Bft) S-SW 210 2 min 0,127 mm 0,6 UV-I 246 W/m 9,1 C 12,7 C 14,5 km/h (3 Bft) 96,43 %
07.06.2017 18:04 14,1 C 21,1 C 74 % 1018,4 hPa 0,0 l/m 10,6 km/h (2 Bft) S-SW 213 0 min 0,000 mm 0,6 UV-I 238 W/m 9,5 C 11,8 C 16,1 km/h (3 Bft) 97,14 %
07.06.2017 18:06 14,2 C 21,1 C 71 % 1018,5 hPa 0,0 l/m 11,0 km/h (2 Bft) W-SW 244 0 min 0,000 mm 0,6 UV-I 232 W/m 9,0 C 11,8 C 17,7 km/h (3 Bft) 91,07 %
07.06.2017 18:08 14,3 C 21,1 C 72 % 1018,5 hPa 0,0 l/m 9,7 km/h (2 Bft) S-SW 194 0 min 0,000 mm 0,6 UV-I 230 W/m 9,3 C 12,5 C 16,1 km/h (3 Bft) 95,12 %
07.06.2017 18:10 14,3 C 21,1 C 71 % 1018,4 hPa 0,0 l/m 11,4 km/h (2 Bft) SW 216 0 min 0,000 mm 0,6 UV-I 196 W/m 9,1 C 11,7 C 17,7 km/h (3 Bft) 93,18 %
07.06.2017 18:12 14,3 C 21,1 C 71 % 1018,5 hPa 0,0 l/m 8,0 km/h (2 Bft) SW 225 2 min 0,000 mm 0,6 UV-I 236 W/m 9,1 C 13,4 C 11,3 km/h (2 Bft) 95,74 %
07.06.2017 18:14 14,3 C 21,1 C 71 % 1018,5 hPa 0,0 l/m 10,9 km/h (2 Bft) S-SW 199 0 min 0,000 mm 0,5 UV-I 187 W/m 9,1 C 11,9 C 19,3 km/h (3 Bft) 98,11 %
07.06.2017 18:16 14,4 C 21,1 C 70 % 1018,5 hPa 0,0 l/m 11,1 km/h (2 Bft) S-SW 208 0 min 0,000 mm 0,5 UV-I 176 W/m 9,0 C 12,0 C 17,7 km/h (3 Bft) 97,87 %
07.06.2017 18:18 14,4 C 21,1 C 69 % 1018,6 hPa 0,0 l/m 13,9 km/h (3 Bft) S 182 0 min 0,000 mm 0,5 UV-I 180 W/m 8,8 C 10,9 C 19,3 km/h (3 Bft) 97,56 %
07.06.2017 18:20 14,4 C 21,1 C 70 % 1018,6 hPa 0,0 l/m 8,6 km/h (2 Bft) S 177 0 min 0,000 mm 0,5 UV-I 201 W/m 9,0 C 13,1 C 14,5 km/h (3 Bft) 94,34 %
07.06.2017 18:22 14,4 C 21,1 C 70 % 1018,6 hPa 0,0 l/m 10,9 km/h (2 Bft) SW 228 2 min 0,000 mm 0,5 UV-I 252 W/m 9,0 C 12,0 C 17,7 km/h (3 Bft) 96,00 %
07.06.2017 18:24 14,5 C 21,1 C 70 % 1018,6 hPa 0,0 l/m 10,7 km/h (2 Bft) S-SW 206 2 min 0,000 mm 0,6 UV-I 229 W/m 9,1 C 12,2 C 17,7 km/h (3 Bft) 97,37 %
07.06.2017 18:26 14,6 C 21,1 C 71 % 1018,7 hPa 0,0 l/m 11,4 km/h (2 Bft) S-SW 200 0 min 0,000 mm 0,5 UV-I 192 W/m 9,4 C 12,1 C 20,9 km/h (4 Bft) 98,11 %
07.06.2017 18:28 14,6 C 21,1 C 70 % 1018,7 hPa 0,0 l/m 8,9 km/h (2 Bft) S-SW 201 0 min 0,000 mm 0,5 UV-I 161 W/m 9,2 C 13,2 C 14,5 km/h (3 Bft) 95,74 %
07.06.2017 18:30 14,4 C 21,1 C 69 % 1018,6 hPa 0,0 l/m 9,4 km/h (2 Bft) S 184 0 min 0,000 mm 0,5 UV-I 152 W/m 8,8 C 12,7 C 17,7 km/h (3 Bft) 92,68 %
07.06.2017 18:32 14,5 C 21,1 C 70 % 1018,6 hPa 0,0 l/m 7,2 km/h (2 Bft) S-SW 194 2 min 0,000 mm 0,5 UV-I 204 W/m 9,1 C 14,0 C 12,9 km/h (3 Bft) 96,43 %
07.06.2017 18:34 14,5 C 21,1 C 70 % 1018,6 hPa 0,0 l/m 10,1 km/h (2 Bft) SW 234 2 min 0,000 mm 0,5 UV-I 214 W/m 9,1 C 12,5 C 17,7 km/h (3 Bft) 94,87 %
07.06.2017 18:36 14,6 C 21,1 C 70 % 1018,6 hPa 0,0 l/m 9,1 km/h (2 Bft) S-SW 199 0 min 0,000 mm 0,5 UV-I 192 W/m 9,2 C 13,1 C 14,5 km/h (3 Bft) 97,56 %
07.06.2017 18:38 14,6 C 21,1 C 70 % 1018,6 hPa 0,0 l/m 7,0 km/h (2 Bft) W-SW 242 0 min 0,000 mm 0,3 UV-I 187 W/m 9,2 C 14,3 C 16,1 km/h (3 Bft) 94,64 %
07.06.2017 18:40 14,6 C 21,1 C 71 % 1018,6 hPa 0,0 l/m 8,0 km/h (2 Bft) W-SW 241 0 min 0,000 mm 0,0 UV-I 116 W/m 9,4 C 13,7 C 11,3 km/h (2 Bft) 97,87 %
07.06.2017 18:42 14,5 C 21,1 C 70 % 1018,7 hPa 0,0 l/m 9,0 km/h (2 Bft) W-SW 248 0 min 0,000 mm 0,0 UV-I 98 W/m 9,1 C 13,1 C 19,3 km/h (3 Bft) 100,00 %
07.06.2017 18:44 14,4 C 21,1 C 69 % 1018,6 hPa 0,0 l/m 10,0 km/h (2 Bft) SW 231 0 min 0,000 mm 0,0 UV-I 93 W/m 8,8 C 12,5 C 17,7 km/h (3 Bft) 98,00 %
07.06.2017 18:46 14,3 C 21,1 C 69 % 1018,6 hPa 0,0 l/m 9,7 km/h (2 Bft) SW 221 0 min 0,000 mm 0,0 UV-I 93 W/m 8,7 C 12,5 C 14,5 km/h (3 Bft) 95,12 %
07.06.2017 18:48 14,2 C 21,1 C 70 % 1018,6 hPa 0,0 l/m 7,7 km/h (2 Bft) S-SW 196 0 min 0,000 mm 0,0 UV-I 94 W/m 8,8 C 13,4 C 14,5 km/h (3 Bft) 98,00 %
07.06.2017 18:50 14,2 C 21,1 C 70 % 1018,6 hPa 0,0 l/m 9,2 km/h (2 Bft) S-SW 211 0 min 0,000 mm 0,0 UV-I 96 W/m 8,8 C 12,6 C 14,5 km/h (3 Bft) 98,00 %
07.06.2017 18:52 14,1 C 21,1 C 71 % 1018,7 hPa 0,0 l/m 10,9 km/h (2 Bft) S-SW 194 0 min 0,000 mm 0,0 UV-I 129 W/m 8,9 C 11,7 C 16,1 km/h (3 Bft) 95,12 %
07.06.2017 18:54 14,1 C 21,1 C 71 % 1018,8 hPa 0,0 l/m 9,2 km/h (2 Bft) SW 226 2 min 0,000 mm 0,0 UV-I 240 W/m 8,9 C 12,5 C 14,5 km/h (3 Bft) 98,00 %
07.06.2017 18:56 14,3 C 21,1 C 71 % 1018,9 hPa 0,0 l/m 8,4 km/h (2 Bft) W-SW 246 2 min 0,000 mm 0,0 UV-I 222 W/m 9,1 C 13,1 C 17,7 km/h (3 Bft) 95,74 %
07.06.2017 18:58 14,4 C 21,1 C 71 % 1019,0 hPa 0,0 l/m 9,4 km/h (2 Bft) S-SW 211 0 min 0,000 mm 0,0 UV-I 133 W/m 9,2 C 12,7 C 16,1 km/h (3 Bft) 100,00 %
07.06.2017 19:00 14,4 C 21,1 C 70 % 1019,0 hPa 0,0 l/m 11,2 km/h (2 Bft) W-SW 248 0 min 0,000 mm 0,0 UV-I 95 W/m 9,0 C 11,9 C 17,7 km/h (3 Bft) 100,00 %
07.06.2017 19:03 14,3 C 21,1 C 70 % 1019,1 hPa 0,0 l/m 10,8 km/h (2 Bft) W-SW 247 0 min 0,127 mm 0,0 UV-I 61 W/m 8,9 C 12,0 C 17,7 km/h (3 Bft) 98,84 %
07.06.2017 19:04 14,3 C 21,1 C 70 % 1019,1 hPa 0,0 l/m 8,3 km/h (2 Bft) SW 215 0 min 0,000 mm 0,0 UV-I 55 W/m 8,9 C 13,2 C 11,3 km/h (2 Bft) 90,91 %
07.06.2017 19:06 14,2 C 21,1 C 70 % 1019,1 hPa 0,0 l/m 12,4 km/h (3 Bft) SW 233 0 min 0,000 mm 0,0 UV-I 54 W/m 8,8 C 11,2 C 17,7 km/h (3 Bft) 98,21 %
07.06.2017 19:08 14,1 C 21,1 C 71 % 1019,1 hPa 0,0 l/m 8,2 km/h (2 Bft) S-SW 204 0 min 0,000 mm 0,0 UV-I 54 W/m 8,9 C 13,0 C 12,9 km/h (3 Bft) 97,56 %
07.06.2017 19:10 14,0 C 21,1 C 72 % 1019,0 hPa 0,0 l/m 9,9 km/h (2 Bft) SW 216 0 min 0,000 mm 0,0 UV-I 60 W/m 9,0 C 12,1 C 17,7 km/h (3 Bft) 100,00 %
07.06.2017 19:12 13,9 C 21,1 C 72 % 1019,1 hPa 0,0 l/m 7,7 km/h (2 Bft) W-SW 248 0 min 0,000 mm 0,0 UV-I 78 W/m 8,9 C 13,1 C 14,5 km/h (3 Bft) 95,74 %
07.06.2017 19:14 13,9 C 21,1 C 73 % 1019,1 hPa 0,0 l/m 10,1 km/h (2 Bft) SW 227 0 min 0,000 mm 0,0 UV-I 69 W/m 9,1 C 11,9 C 19,3 km/h (3 Bft) 100,00 %
07.06.2017 19:16 13,8 C 21,1 C 72 % 1019,1 hPa 0,0 l/m 11,5 km/h (2 Bft) SW 233 0 min 0,000 mm 0,0 UV-I 53 W/m 8,8 C 11,1 C 20,9 km/h (4 Bft) 98,44 %
07.06.2017 19:18 13,8 C 21,1 C 72 % 1019,1 hPa 0,0 l/m 8,5 km/h (2 Bft) W-SW 248 0 min 0,000 mm 0,0 UV-I 49 W/m 8,8 C 12,6 C 12,9 km/h (3 Bft) 100,00 %
07.06.2017 19:20 13,8 C 21,1 C 73 % 1019,1 hPa 0,0 l/m 7,9 km/h (2 Bft) W-SW 238 0 min 0,000 mm 0,0 UV-I 47 W/m 9,0 C 12,9 C 14,5 km/h (3 Bft) 97,73 %
07.06.2017 19:22 13,7 C 21,1 C 73 % 1019,0 hPa 0,0 l/m 8,7 km/h (2 Bft) W-SW 239 0 min 0,000 mm 0,0 UV-I 46 W/m 8,9 C 12,3 C 12,9 km/h (3 Bft) 98,11 %
07.06.2017 19:24 13,6 C 21,1 C 74 % 1019,1 hPa 0,0 l/m 7,8 km/h (2 Bft) SW 227 0 min 0,000 mm 0,0 UV-I 44 W/m 9,1 C 12,7 C 9,7 km/h (2 Bft) 100,00 %
07.06.2017 19:26 13,6 C 21,1 C 74 % 1019,0 hPa 0,0 l/m 6,6 km/h (2 Bft) SW 222 0 min 0,000 mm 0,0 UV-I 43 W/m 9,1 C 13,5 C 9,7 km/h (2 Bft) 97,37 %
07.06.2017 19:28 13,4 C 21,1 C 75 % 1019,0 hPa 0,0 l/m 2,9 km/h (1 Bft) S-SW 196 0 min 0,000 mm 0,0 UV-I 41 W/m 9,1 C 13,4 C 4,8 km/h (1 Bft) 100,00 %
07.06.2017 19:30 13,4 C 21,1 C 75 % 1019,0 hPa 0,0 l/m 3,6 km/h (1 Bft) SW 231 0 min 0,000 mm 0,0 UV-I 45 W/m 9,1 C 13,4 C 8,0 km/h (2 Bft) 100,00 %
07.06.2017 19:32 13,4 C 21,1 C 75 % 1018,9 hPa 0,0 l/m 4,7 km/h (1 Bft) SW 230 0 min 0,000 mm 0,0 UV-I 89 W/m 9,1 C 13,4 C 9,7 km/h (2 Bft) 100,00 %
07.06.2017 19:34 13,4 C 21,1 C 75 % 1018,9 hPa 0,0 l/m 4,8 km/h (1 Bft) S-SW 212 2 min 0,000 mm 0,0 UV-I 130 W/m 9,1 C 13,4 C 8,0 km/h (2 Bft) 94,74 %
07.06.2017 19:36 13,6 C 21,1 C 75 % 1018,9 hPa 0,0 l/m 4,8 km/h (1 Bft) S-SW 202 2 min 0,000 mm 0,0 UV-I 135 W/m 9,3 C 13,6 C 9,7 km/h (2 Bft) 94,00 %
07.06.2017 19:38 13,7 C 21,1 C 75 % 1018,9 hPa 0,0 l/m 4,8 km/h (1 Bft) S-SW 199 2 min 0,000 mm 0,0 UV-I 128 W/m 9,3 C 13,7 C 9,7 km/h (2 Bft) 95,12 %
07.06.2017 19:40 13,7 C 21,1 C 74 % 1018,9 hPa 0,0 l/m 3,6 km/h (1 Bft) SW 218 2 min 0,000 mm 0,0 UV-I 123 W/m 9,2 C 13,7 C 6,4 km/h (2 Bft) 96,00 %
07.06.2017 19:42 13,8 C 21,1 C 74 % 1018,9 hPa 0,0 l/m 5,1 km/h (1 Bft) S 186 2 min 0,000 mm 0,0 UV-I 117 W/m 9,2 C 13,8 C 9,7 km/h (2 Bft) 91,49 %
07.06.2017 19:44 13,8 C 21,1 C 74 % 1019,0 hPa 0,0 l/m 5,9 km/h (2 Bft) S-SW 194 2 min 0,000 mm 0,0 UV-I 113 W/m 9,2 C 13,8 C 12,9 km/h (3 Bft) 94,00 %
07.06.2017 19:46 13,9 C 21,1 C 73 % 1019,0 hPa 0,0 l/m 6,5 km/h (2 Bft) S-SW 210 2 min 0,000 mm 0,0 UV-I 109 W/m 9,1 C 13,9 C 8,0 km/h (2 Bft) 93,62 %
07.06.2017 19:48 13,9 C 21,1 C 74 % 1019,0 hPa 0,0 l/m 5,0 km/h (1 Bft) SW 230 2 min 0,000 mm 0,0 UV-I 104 W/m 9,3 C 13,9 C 9,7 km/h (2 Bft) 94,00 %
07.06.2017 19:50 13,9 C 21,1 C 73 % 1019,0 hPa 0,0 l/m 6,4 km/h (2 Bft) SW 231 2 min 0,000 mm 0,0 UV-I 100 W/m 9,1 C 13,9 C 12,9 km/h (3 Bft) 95,74 %
07.06.2017 19:52 13,9 C 21,1 C 74 % 1019,0 hPa 0,0 l/m 6,7 km/h (2 Bft) S 182 2 min 0,000 mm 0,0 UV-I 96 W/m 9,3 C 13,7 C 11,3 km/h (2 Bft) 90,24 %
07.06.2017 19:54 13,9 C 21,1 C 73 % 1019,1 hPa 0,0 l/m 5,1 km/h (1 Bft) S-SW 202 2 min 0,000 mm 0,0 UV-I 94 W/m 9,1 C 13,9 C 9,7 km/h (2 Bft) 93,75 %
07.06.2017 19:56 13,9 C 21,1 C 73 % 1019,2 hPa 0,0 l/m 6,6 km/h (2 Bft) SW 215 2 min 0,000 mm 0,0 UV-I 90 W/m 9,1 C 13,8 C 11,3 km/h (2 Bft) 93,88 %
07.06.2017 19:58 13,9 C 21,1 C 73 % 1019,3 hPa 0,0 l/m 8,9 km/h (2 Bft) W-SW 258 2 min 0,000 mm 0,0 UV-I 86 W/m 9,1 C 12,5 C 14,5 km/h (3 Bft) 93,75 %
07.06.2017 20:00 13,9 C 21,1 C 74 % 1019,3 hPa 0,0 l/m 7,1 km/h (2 Bft) SW 232 2 min 0,000 mm 0,0 UV-I 84 W/m 9,3 C 13,5 C 14,5 km/h (3 Bft) 94,74 %
07.06.2017 20:02 13,9 C 21,1 C 73 % 1019,3 hPa 0,0 l/m 7,9 km/h (2 Bft) SW 217 2 min 0,076 mm 0,0 UV-I 80 W/m 9,1 C 13,0 C 14,5 km/h (3 Bft) 90,74 %
07.06.2017 20:04 13,9 C 21,1 C 74 % 1019,4 hPa 0,0 l/m 6,7 km/h (2 Bft) S-SW 205 2 min 0,000 mm 0,0 UV-I 76 W/m 9,3 C 13,7 C 12,9 km/h (3 Bft) 96,00 %
07.06.2017 20:06 13,9 C 21,1 C 73 % 1019,4 hPa 0,0 l/m 4,9 km/h (1 Bft) S-SW 200 2 min 0,000 mm 0,0 UV-I 71 W/m 9,1 C 13,9 C 12,9 km/h (3 Bft) 90,24 %
07.06.2017 20:08 13,9 C 21,1 C 73 % 1019,4 hPa 0,0 l/m 5,0 km/h (1 Bft) SW 215 2 min 0,000 mm 0,0 UV-I 69 W/m 9,1 C 13,9 C 8,0 km/h (2 Bft) 96,00 %
07.06.2017 20:10 13,9 C 21,1 C 73 % 1019,4 hPa 0,0 l/m 3,8 km/h (1 Bft) S-SW 196 2 min 0,000 mm 0,0 UV-I 65 W/m 9,1 C 13,9 C 6,4 km/h (2 Bft) 89,47 %
07.06.2017 20:12 13,9 C 21,1 C 73 % 1019,4 hPa 0,0 l/m 4,9 km/h (1 Bft) S-SW 210 2 min 0,000 mm 0,0 UV-I 62 W/m 9,1 C 13,9 C 11,3 km/h (2 Bft) 94,00 %
07.06.2017 20:14 13,8 C 21,1 C 73 % 1019,5 hPa 0,0 l/m 7,9 km/h (2 Bft) W-SW 241 2 min 0,000 mm 0,0 UV-I 60 W/m 9,0 C 12,9 C 12,9 km/h (3 Bft) 96,23 %
07.06.2017 20:16 13,8 C 21,1 C 73 % 1019,6 hPa 0,0 l/m 7,6 km/h (2 Bft) W-SW 244 2 min 0,000 mm 0,0 UV-I 57 W/m 9,0 C 13,1 C 14,5 km/h (3 Bft) 93,18 %
07.06.2017 20:18 13,7 C 21,1 C 74 % 1019,6 hPa 0,0 l/m 4,1 km/h (1 Bft) W-SW 254 2 min 0,000 mm 0,0 UV-I 53 W/m 9,2 C 13,7 C 12,9 km/h (3 Bft) 98,00 %
07.06.2017 20:20 13,6 C 21,1 C 74 % 1019,7 hPa 0,0 l/m 6,1 km/h (2 Bft) SW 229 2 min 0,000 mm 0,0 UV-I 51 W/m 9,1 C 13,6 C 8,0 km/h (2 Bft) 97,87 %
07.06.2017 20:22 13,6 C 21,1 C 74 % 1019,7 hPa 0,0 l/m 7,9 km/h (2 Bft) SW 232 2 min 0,000 mm 0,0 UV-I 47 W/m 9,1 C 12,7 C 11,3 km/h (2 Bft) 94,74 %
07.06.2017 20:24 13,5 C 21,1 C 74 % 1019,7 hPa 0,0 l/m 3,9 km/h (1 Bft) S-SW 212 2 min 0,000 mm 0,0 UV-I 45 W/m 9,0 C 13,5 C 6,4 km/h (2 Bft) 96,23 %
07.06.2017 20:26 13,4 C 21,1 C 74 % 1019,7 hPa 0,0 l/m 5,2 km/h (1 Bft) SW 215 2 min 0,000 mm 0,0 UV-I 41 W/m 8,9 C 13,4 C 8,0 km/h (2 Bft) 98,00 %
07.06.2017 20:28 13,3 C 21,1 C 75 % 1019,7 hPa 0,0 l/m 4,5 km/h (1 Bft) SW 236 2 min 0,000 mm 0,0 UV-I 38 W/m 9,0 C 13,3 C 6,4 km/h (2 Bft) 91,67 %
07.06.2017 20:30 13,3 C 21,1 C 75 % 1019,6 hPa 0,0 l/m 2,8 km/h (1 Bft) SW 236 0 min 0,000 mm 0,0 UV-I 27 W/m 9,0 C 13,3 C 6,4 km/h (2 Bft) 95,31 %
07.06.2017 20:32 13,2 C 21,1 C 75 % 1019,7 hPa 0,0 l/m 3,5 km/h (1 Bft) W-SW 237 0 min 0,000 mm 0,0 UV-I 23 W/m 8,9 C 13,2 C 6,4 km/h (2 Bft) 96,00 %
07.06.2017 20:34 13,2 C 21,1 C 75 % 1019,7 hPa 0,0 l/m 5,2 km/h (1 Bft) SW 216 0 min 0,000 mm 0,0 UV-I 25 W/m 8,9 C 13,2 C 8,0 km/h (2 Bft) 97,78 %
07.06.2017 20:36 13,1 C 21,1 C 76 % 1019,7 hPa 0,0 l/m 5,8 km/h (2 Bft) S-SW 207 0 min 0,000 mm 0,0 UV-I 24 W/m 9,0 C 13,1 C 9,7 km/h (2 Bft) 90,38 %
07.06.2017 20:38 13,0 C 20,6 C 76 % 1019,7 hPa 0,0 l/m 5,3 km/h (1 Bft) S-SW 208 0 min 0,000 mm 0,0 UV-I 21 W/m 8,9 C 13,0 C 8,0 km/h (2 Bft) 97,44 %
07.06.2017 20:40 12,9 C 21,1 C 76 % 1019,8 hPa 0,0 l/m 4,3 km/h (1 Bft) SW 225 2 min 0,000 mm 0,0 UV-I 21 W/m 8,8 C 12,9 C 6,4 km/h (2 Bft) 93,62 %
07.06.2017 20:42 12,8 C 20,6 C 76 % 1019,8 hPa 0,0 l/m 3,3 km/h (1 Bft) SW 225 2 min 0,000 mm 0,0 UV-I 21 W/m 8,7 C 12,8 C 4,8 km/h (1 Bft) 96,00 %
07.06.2017 20:44 12,8 C 21,1 C 77 % 1019,9 hPa 0,0 l/m 3,3 km/h (1 Bft) SW 225 2 min 0,000 mm 0,0 UV-I 19 W/m 8,9 C 12,8 C 4,8 km/h (1 Bft) 96,23 %
07.06.2017 20:46 12,8 C 21,1 C 78 % 1019,9 hPa 0,0 l/m 2,3 km/h (1 Bft) SW 225 2 min 0,000 mm 0,0 UV-I 18 W/m 9,1 C 12,8 C 4,8 km/h (1 Bft) 94,74 %
07.06.2017 20:48 12,7 C 21,1 C 78 % 1020,0 hPa 0,0 l/m 2,7 km/h (1 Bft) SW 225 2 min 0,000 mm 0,0 UV-I 16 W/m 9,0 C 12,7 C 3,2 km/h (1 Bft) 96,00 %
07.06.2017 20:50 12,7 C 20,6 C 78 % 1020,1 hPa 0,0 l/m 4,2 km/h (1 Bft) SW 225 0 min 0,000 mm 0,0 UV-I 14 W/m 9,0 C 12,7 C 6,4 km/h (2 Bft) 92,00 %
07.06.2017 20:52 12,5 C 20,6 C 79 % 1020,1 hPa 0,0 l/m 3,4 km/h (1 Bft) SW 225 0 min 0,000 mm 0,0 UV-I 12 W/m 9,0 C 12,5 C 6,4 km/h (2 Bft) 97,37 %
07.06.2017 20:54 12,4 C 20,6 C 79 % 1020,1 hPa 0,0 l/m 2,8 km/h (1 Bft) SW 225 0 min 0,000 mm 0,0 UV-I 11 W/m 8,9 C 12,4 C 4,8 km/h (1 Bft) 100,00 %
07.06.2017 20:56 12,4 C 20,6 C 79 % 1020,1 hPa 0,0 l/m 2,7 km/h (1 Bft) SW 224 0 min 0,000 mm 0,0 UV-I 11 W/m 8,9 C 12,4 C 4,8 km/h (1 Bft) 93,62 %
07.06.2017 20:58 12,3 C 20,6 C 79 % 1020,2 hPa 0,0 l/m 2,9 km/h (1 Bft) SW 224 0 min 0,000 mm 0,0 UV-I 10 W/m 8,8 C 12,3 C 4,8 km/h (1 Bft) 100,00 %
07.06.2017 21:00 12,3 C 20,6 C 80 % 1020,2 hPa 0,0 l/m 3,0 km/h (1 Bft) SW 223 0 min 0,000 mm 0,0 UV-I 9 W/m 8,9 C 12,3 C 4,8 km/h (1 Bft) 95,74 %
07.06.2017 21:02 12,2 C 20,6 C 80 % 1020,3 hPa 0,0 l/m 3,4 km/h (1 Bft) SW 223 0 min 0,026 mm 0,0 UV-I 9 W/m 8,9 C 12,2 C 4,8 km/h (1 Bft) 97,87 %
07.06.2017 21:04 12,2 C 20,6 C 80 % 1020,3 hPa 0,0 l/m 3,9 km/h (1 Bft) SW 223 0 min 0,000 mm 0,0 UV-I 8 W/m 8,9 C 12,2 C 4,8 km/h (1 Bft) 98,00 %
07.06.2017 21:06 12,2 C 20,6 C 80 % 1020,4 hPa 0,0 l/m 2,7 km/h (1 Bft) SW 223 0 min 0,000 mm 0,0 UV-I 7 W/m 8,9 C 12,2 C 4,8 km/h (1 Bft) 95,74 %
07.06.2017 21:08 12,2 C 20,6 C 80 % 1020,4 hPa 0,0 l/m 2,9 km/h (1 Bft) SW 223 0 min 0,000 mm 0,0 UV-I 6 W/m 8,9 C 12,2 C 4,8 km/h (1 Bft) 98,00 %
07.06.2017 21:10 12,2 C 20,6 C 81 % 1020,4 hPa 0,0 l/m 3,0 km/h (1 Bft) SW 223 0 min 0,000 mm 0,0 UV-I 5 W/m 9,0 C 12,2 C 6,4 km/h (2 Bft) 100,00 %
07.06.2017 21:12 12,2 C 20,6 C 81 % 1020,4 hPa 0,0 l/m 1,2 km/h (1 Bft) SW 223 0 min 0,000 mm 0,0 UV-I 5 W/m 9,0 C 12,2 C 3,2 km/h (1 Bft) 98,00 %
07.06.2017 21:14 12,1 C 20,6 C 81 % 1020,4 hPa 0,0 l/m 0,3 km/h (0 Bft) SW 223 0 min 0,000 mm 0,0 UV-I 5 W/m 8,9 C 12,1 C 1,6 km/h (1 Bft) 100,00 %
07.06.2017 21:16 12,1 C 20,6 C 81 % 1020,4 hPa 0,0 l/m 1,6 km/h (1 Bft) SW 223 0 min 0,000 mm 0,0 UV-I 5 W/m 8,9 C 12,1 C 3,2 km/h (1 Bft) 98,21 %
07.06.2017 21:18 12,1 C 21,1 C 81 % 1020,4 hPa 0,0 l/m 1,9 km/h (1 Bft) SW 223 0 min 0,000 mm 0,0 UV-I 4 W/m 8,9 C 12,1 C 4,8 km/h (1 Bft) 97,73 %
07.06.2017 21:20 12,1 C 20,6 C 81 % 1020,4 hPa 0,0 l/m 2,5 km/h (1 Bft) SW 223 0 min 0,000 mm 0,0 UV-I 0 W/m 8,9 C 12,1 C 4,8 km/h (1 Bft) 100,00 %
07.06.2017 21:22 12,1 C 20,6 C 81 % 1020,5 hPa 0,0 l/m 0,9 km/h (0 Bft) SW 223 0 min 0,000 mm 0,0 UV-I 0 W/m 8,9 C 12,1 C 3,2 km/h (1 Bft) 98,00 %
07.06.2017 21:24 12,0 C 20,6 C 81 % 1020,6 hPa 0,0 l/m 1,6 km/h (1 Bft) SW 223 0 min 0,000 mm 0,0 UV-I 0 W/m 8,8 C 12,0 C 4,8 km/h (1 Bft) 100,00 %
07.06.2017 21:26 11,9 C 20,6 C 81 % 1020,6 hPa 0,0 l/m 2,9 km/h (1 Bft) SW 223 0 min 0,000 mm 0,0 UV-I 0 W/m 8,7 C 11,9 C 4,8 km/h (1 Bft) 95,12 %
07.06.2017 21:28 11,9 C 20,6 C 81 % 1020,7 hPa 0,0 l/m 2,4 km/h (1 Bft) SW 223 0 min 0,000 mm 0,0 UV-I 0 W/m 8,7 C 11,9 C 4,8 km/h (1 Bft) 98,11 %
07.06.2017 21:30 11,9 C 20,6 C 81 % 1020,6 hPa 0,0 l/m 1,9 km/h (1 Bft) SW 223 0 min 0,000 mm 0,0 UV-I 0 W/m 8,7 C 11,9 C 3,2 km/h (1 Bft) 97,37 %
07.06.2017 21:32 11,8 C 20,6 C 82 % 1020,6 hPa 0,0 l/m 2,4 km/h (1 Bft) SW 223 0 min 0,000 mm 0,0 UV-I 0 W/m 8,8 C 11,8 C 4,8 km/h (1 Bft) 100,00 %
07.06.2017 21:34 11,8 C 20,6 C 81 % 1020,7 hPa 0,0 l/m 1,7 km/h (1 Bft) SW 223 0 min 0,000 mm 0,0 UV-I 0 W/m 8,6 C 11,8 C 3,2 km/h (1 Bft) 100,00 %
07.06.2017 21:36 11,8 C 20,6 C 82 % 1020,7 hPa 0,0 l/m 1,1 km/h (1 Bft) SW 223 0 min 0,000 mm 0,0 UV-I 0 W/m 8,8 C 11,8 C 3,2 km/h (1 Bft) 98,00 %
07.06.2017 21:38 11,8 C 20,6 C 82 % 1020,7 hPa 0,0 l/m 0,9 km/h (0 Bft) SW 223 0 min 0,000 mm 0,0 UV-I 0 W/m 8,8 C 11,8 C 3,2 km/h (1 Bft) 100,00 %
07.06.2017 21:40 11,8 C 20,6 C 82 % 1020,7 hPa 0,0 l/m 3,1 km/h (1 Bft) SW 223 0 min 0,000 mm 0,0 UV-I 0 W/m 8,8 C 11,8 C 4,8 km/h (1 Bft) 96,23 %
07.06.2017 21:42 11,8 C 20,6 C 83 % 1020,8 hPa 0,0 l/m 2,3 km/h (1 Bft) SW 223 0 min 0,000 mm 0,0 UV-I 0 W/m 9,0 C 11,8 C 3,2 km/h (1 Bft) 97,37 %
07.06.2017 21:44 11,7 C 20,6 C 82 % 1020,8 hPa 0,0 l/m 3,2 km/h (1 Bft) SW 223 0 min 0,000 mm 0,0 UV-I 0 W/m 8,7 C 11,7 C 4,8 km/h (1 Bft) 98,11 %
07.06.2017 21:46 11,7 C 20,6 C 82 % 1020,9 hPa 0,0 l/m 2,3 km/h (1 Bft) SW 223 0 min 0,000 mm 0,0 UV-I 0 W/m 8,7 C 11,7 C 3,2 km/h (1 Bft) 95,12 %
07.06.2017 21:48 11,7 C 20,6 C 82 % 1020,9 hPa 0,0 l/m 2,3 km/h (1 Bft) SW 223 0 min 0,000 mm 0,0 UV-I 0 W/m 8,7 C 11,7 C 4,8 km/h (1 Bft) 97,62 %
07.06.2017 21:50 11,7 C 20,6 C 83 % 1020,9 hPa 0,0 l/m 2,8 km/h (1 Bft) SW 223 0 min 0,000 mm 0,0 UV-I 0 W/m 8,9 C 11,7 C 3,2 km/h (1 Bft) 92,31 %
07.06.2017 21:52 11,7 C 20,6 C 83 % 1020,9 hPa 0,0 l/m 2,7 km/h (1 Bft) SW 223 0 min 0,000 mm 0,0 UV-I 0 W/m 8,9 C 11,7 C 3,2 km/h (1 Bft) 97,92 %
07.06.2017 21:54 11,6 C 20,6 C 83 % 1021,0 hPa 0,0 l/m 2,3 km/h (1 Bft) SW 223 0 min 0,000 mm 0,0 UV-I 0 W/m 8,8 C 11,6 C 3,2 km/h (1 Bft) 96,00 %
07.06.2017 21:56 11,6 C 20,6 C 83 % 1021,0 hPa 0,0 l/m 1,9 km/h (1 Bft) SW 223 0 min 0,000 mm 0,0 UV-I 0 W/m 8,8 C 11,6 C 3,2 km/h (1 Bft) 98,00 %
07.06.2017 21:58 11,6 C 20,6 C 83 % 1021,0 hPa 0,0 l/m 3,2 km/h (1 Bft) SW 223 0 min 0,000 mm 0,0 UV-I 0 W/m 8,8 C 11,6 C 4,8 km/h (1 Bft) 94,74 %
07.06.2017 22:00 11,6 C 20,6 C 83 % 1021,0 hPa 0,0 l/m 3,7 km/h (1 Bft) SW 223 0 min 0,000 mm 0,0 UV-I 0 W/m 8,8 C 11,6 C 6,4 km/h (2 Bft) 98,08 %
07.06.2017 22:02 11,6 C 20,6 C 83 % 1021,0 hPa 0,0 l/m 3,8 km/h (1 Bft) SW 223 0 min 0,000 mm 0,0 UV-I 0 W/m 8,8 C 11,6 C 4,8 km/h (1 Bft) 92,00 %
07.06.2017 22:04 11,5 C 20,6 C 83 % 1021,1 hPa 0,0 l/m 2,9 km/h (1 Bft) SW 223 0 min 0,000 mm 0,0 UV-I 0 W/m 8,7 C 11,5 C 4,8 km/h (1 Bft) 97,56 %
07.06.2017 22:06 11,4 C 20,6 C 84 % 1021,0 hPa 0,0 l/m 1,1 km/h (1 Bft) SW 223 0 min 0,000 mm 0,0 UV-I 0 W/m 8,8 C 11,4 C 3,2 km/h (1 Bft) 95,74 %
07.06.2017 22:08 11,4 C 20,6 C 84 % 1021,0 hPa 0,0 l/m 2,1 km/h (1 Bft) SW 223 0 min 0,000 mm 0,0 UV-I 0 W/m 8,8 C 11,4 C 4,8 km/h (1 Bft) 96,23 %
07.06.2017 22:10 11,3 C 20,6 C 84 % 1021,0 hPa 0,0 l/m 2,6 km/h (1 Bft) SW 223 0 min 0,000 mm 0,0 UV-I 0 W/m 8,7 C 11,3 C 4,8 km/h (1 Bft) 97,73 %
07.06.2017 22:12 11,3 C 20,6 C 84 % 1021,1 hPa 0,0 l/m 2,8 km/h (1 Bft) SW 223 0 min 0,000 mm 0,0 UV-I 0 W/m 8,7 C 11,3 C 6,4 km/h (2 Bft) 95,74 %
07.06.2017 22:14 11,3 C 20,6 C 84 % 1021,1 hPa 0,0 l/m 3,1 km/h (1 Bft) SW 223 0 min 0,000 mm 0,0 UV-I 0 W/m 8,7 C 11,3 C 4,8 km/h (1 Bft) 94,74 %
07.06.2017 22:16 11,3 C 20,6 C 84 % 1021,1 hPa 0,0 l/m 2,9 km/h (1 Bft) SW 223 0 min 0,000 mm 0,0 UV-I 0 W/m 8,7 C 11,3 C 4,8 km/h (1 Bft) 98,21 %
07.06.2017 22:18 11,2 C 20,6 C 84 % 1021,1 hPa 0,0 l/m 3,7 km/h (1 Bft) SW 223 0 min 0,000 mm 0,0 UV-I 0 W/m 8,6 C 11,2 C 6,4 km/h (2 Bft) 100,00 %
07.06.2017 22:20 11,2 C 20,6 C 84 % 1021,1 hPa 0,0 l/m 4,0 km/h (1 Bft) SW 223 0 min 0,000 mm 0,0 UV-I 0 W/m 8,6 C 11,2 C 4,8 km/h (1 Bft) 98,00 %
07.06.2017 22:22 11,1 C 20,6 C 84 % 1021,1 hPa 0,0 l/m 4,0 km/h (1 Bft) SW 223 0 min 0,000 mm 0,0 UV-I 0 W/m 8,5 C 11,1 C 4,8 km/h (1 Bft) 98,00 %
07.06.2017 22:24 11,1 C 20,6 C 84 % 1021,2 hPa 0,0 l/m 5,1 km/h (1 Bft) SW 219 0 min 0,000 mm 0,0 UV-I 0 W/m 8,5 C 11,1 C 8,0 km/h (2 Bft) 97,37 %
07.06.2017 22:26 11,0 C 20,6 C 85 % 1021,2 hPa 0,0 l/m 4,7 km/h (1 Bft) SW 219 0 min 0,000 mm 0,0 UV-I 0 W/m 8,6 C 11,0 C 6,4 km/h (2 Bft) 95,74 %
07.06.2017 22:28 10,9 C 20,6 C 85 % 1021,3 hPa 0,0 l/m 4,7 km/h (1 Bft) SW 219 0 min 0,000 mm 0,0 UV-I 0 W/m 8,5 C 10,9 C 6,4 km/h (2 Bft) 100,00 %
07.06.2017 22:30 10,9 C 20,6 C 85 % 1021,3 hPa 0,0 l/m 3,6 km/h (1 Bft) SW 219 0 min 0,000 mm 0,0 UV-I 0 W/m 8,5 C 10,9 C 6,4 km/h (2 Bft) 97,87 %
07.06.2017 22:33 10,8 C 20,6 C 85 % 1021,3 hPa 0,0 l/m 4,0 km/h (1 Bft) SW 214 0 min 0,000 mm 0,0 UV-I 0 W/m 8,4 C 10,8 C 6,4 km/h (2 Bft) 98,53 %
07.06.2017 22:34 10,7 C 20,6 C 85 % 1021,3 hPa 0,0 l/m 6,0 km/h (2 Bft) S-SW 205 0 min 0,000 mm 0,0 UV-I 0 W/m 8,3 C 10,7 C 8,0 km/h (2 Bft) 100,00 %
07.06.2017 22:36 10,7 C 20,6 C 85 % 1021,3 hPa 0,0 l/m 4,7 km/h (1 Bft) S-SW 198 0 min 0,000 mm 0,0 UV-I 0 W/m 8,3 C 10,7 C 8,0 km/h (2 Bft) 100,00 %
07.06.2017 22:38 10,7 C 20,6 C 85 % 1021,3 hPa 0,0 l/m 4,7 km/h (1 Bft) S-SW 200 0 min 0,000 mm 0,0 UV-I 0 W/m 8,3 C 10,7 C 8,0 km/h (2 Bft) 100,00 %
07.06.2017 22:40 10,7 C 21,1 C 85 % 1021,3 hPa 0,0 l/m 5,3 km/h (1 Bft) S-SW 196 0 min 0,000 mm 0,0 UV-I 0 W/m 8,3 C 10,7 C 9,7 km/h (2 Bft) 100,00 %
07.06.2017 22:42 10,7 C 21,1 C 85 % 1021,3 hPa 0,0 l/m 4,9 km/h (1 Bft) S-SW 198 0 min 0,000 mm 0,0 UV-I 0 W/m 8,3 C 10,7 C 8,0 km/h (2 Bft) 100,00 %
07.06.2017 22:44 10,7 C 21,1 C 85 % 1021,3 hPa 0,0 l/m 5,0 km/h (1 Bft) S-SW 201 0 min 0,000 mm 0,0 UV-I 0 W/m 8,3 C 10,7 C 8,0 km/h (2 Bft) 94,34 %
07.06.2017 22:46 10,7 C 21,1 C 85 % 1021,3 hPa 0,0 l/m 5,6 km/h (1 Bft) SW 218 0 min 0,000 mm 0,0 UV-I 0 W/m 8,3 C 10,7 C 9,7 km/h (2 Bft) 100,00 %
07.06.2017 22:48 10,7 C 21,1 C 85 % 1021,4 hPa 0,0 l/m 5,9 km/h (2 Bft) S-SW 209 0 min 0,000 mm 0,0 UV-I 0 W/m 8,3 C 10,7 C 8,0 km/h (2 Bft) 97,56 %
07.06.2017 22:50 10,7 C 21,1 C 85 % 1021,4 hPa 0,0 l/m 5,4 km/h (1 Bft) SW 215 0 min 0,000 mm 0,0 UV-I 0 W/m 8,3 C 10,7 C 8,0 km/h (2 Bft) 100,00 %
07.06.2017 22:52 10,7 C 21,1 C 85 % 1021,4 hPa 0,0 l/m 5,6 km/h (1 Bft) SW 215 0 min 0,000 mm 0,0 UV-I 0 W/m 8,3 C 10,7 C 8,0 km/h (2 Bft) 97,87 %
07.06.2017 22:54 10,7 C 21,1 C 85 % 1021,5 hPa 0,0 l/m 4,5 km/h (1 Bft) SW 215 0 min 0,000 mm 0,0 UV-I 0 W/m 8,3 C 10,7 C 6,4 km/h (2 Bft) 98,11 %
07.06.2017 22:56 10,7 C 21,1 C 85 % 1021,4 hPa 0,0 l/m 5,2 km/h (1 Bft) SW 215 0 min 0,000 mm 0,0 UV-I 0 W/m 8,3 C 10,7 C 8,0 km/h (2 Bft) 100,00 %
07.06.2017 22:58 10,6 C 21,1 C 85 % 1021,4 hPa 0,0 l/m 5,4 km/h (1 Bft) S-SW 202 0 min 0,000 mm 0,0 UV-I 0 W/m 8,2 C 10,6 C 9,7 km/h (2 Bft) 100,00 %
07.06.2017 23:00 10,6 C 21,1 C 85 % 1021,4 hPa 0,0 l/m 6,0 km/h (2 Bft) SW 225 0 min 0,000 mm 0,0 UV-I 0 W/m 8,2 C 10,6 C 9,7 km/h (2 Bft) 98,00 %
07.06.2017 23:02 10,6 C 21,1 C 85 % 1021,5 hPa 0,0 l/m 5,1 km/h (1 Bft) SW 225 0 min 0,000 mm 0,0 UV-I 0 W/m 8,2 C 10,6 C 8,0 km/h (2 Bft) 97,37 %
07.06.2017 23:04 10,5 C 21,1 C 85 % 1021,5 hPa 0,0 l/m 5,1 km/h (1 Bft) SW 225 0 min 0,000 mm 0,0 UV-I 0 W/m 8,1 C 10,5 C 8,0 km/h (2 Bft) 100,00 %
07.06.2017 23:06 10,5 C 21,1 C 86 % 1021,6 hPa 0,0 l/m 5,2 km/h (1 Bft) SW 225 0 min 0,000 mm 0,0 UV-I 0 W/m 8,3 C 10,5 C 6,4 km/h (2 Bft) 98,11 %
07.06.2017 23:08 10,5 C 21,1 C 86 % 1021,6 hPa 0,0 l/m 4,5 km/h (1 Bft) SW 225 0 min 0,000 mm 0,0 UV-I 0 W/m 8,3 C 10,5 C 6,4 km/h (2 Bft) 100,00 %
07.06.2017 23:10 10,4 C 21,1 C 86 % 1021,6 hPa 0,0 l/m 4,7 km/h (1 Bft) SW 226 0 min 0,000 mm 0,0 UV-I 0 W/m 8,2 C 10,4 C 6,4 km/h (2 Bft) 95,74 %
07.06.2017 23:12 10,4 C 21,1 C 86 % 1021,6 hPa 0,0 l/m 6,4 km/h (2 Bft) SW 215 0 min 0,000 mm 0,0 UV-I 0 W/m 8,2 C 10,4 C 9,7 km/h (2 Bft) 96,00 %
07.06.2017 23:14 10,4 C 21,1 C 86 % 1021,6 hPa 0,0 l/m 4,3 km/h (1 Bft) SW 215 0 min 0,000 mm 0,0 UV-I 0 W/m 8,2 C 10,4 C 6,4 km/h (2 Bft) 97,44 %
07.06.2017 23:16 10,4 C 21,1 C 86 % 1021,7 hPa 0,0 l/m 5,6 km/h (1 Bft) S-SW 211 0 min 0,000 mm 0,0 UV-I 0 W/m 8,2 C 10,4 C 8,0 km/h (2 Bft) 96,23 %
07.06.2017 23:18 10,4 C 21,1 C 86 % 1021,7 hPa 0,0 l/m 6,1 km/h (2 Bft) S-SW 208 0 min 0,000 mm 0,0 UV-I 0 W/m 8,2 C 10,4 C 9,7 km/h (2 Bft) 95,74 %
07.06.2017 23:20 10,4 C 21,1 C 86 % 1021,7 hPa 0,0 l/m 5,8 km/h (2 Bft) SW 223 0 min 0,000 mm 0,0 UV-I 0 W/m 8,2 C 10,4 C 8,0 km/h (2 Bft) 87,80 %
07.06.2017 23:22 10,4 C 21,1 C 86 % 1021,8 hPa 0,0 l/m 5,5 km/h (1 Bft) SW 225 0 min 0,000 mm 0,0 UV-I 0 W/m 8,2 C 10,4 C 8,0 km/h (2 Bft) 98,21 %
07.06.2017 23:24 10,4 C 21,1 C 86 % 1021,8 hPa 0,0 l/m 6,9 km/h (2 Bft) SW 214 0 min 0,000 mm 0,0 UV-I 0 W/m 8,2 C 10,0 C 11,3 km/h (2 Bft) 94,74 %
07.06.2017 23:26 10,4 C 21,1 C 86 % 1021,7 hPa 0,0 l/m 7,0 km/h (2 Bft) SW 217 0 min 0,000 mm 0,0 UV-I 0 W/m 8,2 C 10,0 C 9,7 km/h (2 Bft) 94,34 %
07.06.2017 23:28 10,4 C 20,6 C 86 % 1021,8 hPa 0,0 l/m 6,6 km/h (2 Bft) S-SW 202 0 min 0,000 mm 0,0 UV-I 0 W/m 8,2 C 10,3 C 9,7 km/h (2 Bft) 100,00 %
07.06.2017 23:30 10,4 C 21,1 C 86 % 1021,8 hPa 0,0 l/m 6,2 km/h (2 Bft) S-SW 200 0 min 0,000 mm 0,0 UV-I 0 W/m 8,2 C 10,4 C 9,7 km/h (2 Bft) 95,45 %
07.06.2017 23:32 10,4 C 20,6 C 86 % 1021,8 hPa 0,0 l/m 6,1 km/h (2 Bft) SW 214 0 min 0,000 mm 0,0 UV-I 0 W/m 8,2 C 10,4 C 8,0 km/h (2 Bft) 96,23 %
07.06.2017 23:34 10,4 C 21,1 C 86 % 1021,8 hPa 0,0 l/m 5,7 km/h (1 Bft) SW 236 0 min 0,000 mm 0,0 UV-I 0 W/m 8,2 C 10,4 C 9,7 km/h (2 Bft) 96,23 %
07.06.2017 23:36 10,4 C 20,6 C 86 % 1021,8 hPa 0,0 l/m 6,5 km/h (2 Bft) S-SW 204 0 min 0,000 mm 0,0 UV-I 0 W/m 8,2 C 10,4 C 9,7 km/h (2 Bft) 100,00 %
07.06.2017 23:38 10,4 C 20,6 C 86 % 1021,9 hPa 0,0 l/m 6,2 km/h (2 Bft) S-SW 211 0 min 0,000 mm 0,0 UV-I 0 W/m 8,2 C 10,4 C 8,0 km/h (2 Bft) 98,00 %
07.06.2017 23:40 10,3 C 20,6 C 86 % 1021,9 hPa 0,0 l/m 5,0 km/h (1 Bft) S-SW 207 0 min 0,000 mm 0,0 UV-I 0 W/m 8,1 C 10,3 C 9,7 km/h (2 Bft) 96,00 %
07.06.2017 23:42 10,3 C 20,6 C 86 % 1021,9 hPa 0,0 l/m 4,8 km/h (1 Bft) S-SW 205 0 min 0,000 mm 0,0 UV-I 0 W/m 8,1 C 10,3 C 8,0 km/h (2 Bft) 97,37 %
07.06.2017 23:44 10,2 C 20,6 C 86 % 1021,9 hPa 0,0 l/m 5,8 km/h (2 Bft) SW 227 0 min 0,000 mm 0,0 UV-I 0 W/m 8,0 C 10,2 C 8,0 km/h (2 Bft) 98,11 %
07.06.2017 23:46 10,2 C 20,6 C 86 % 1021,9 hPa 0,0 l/m 5,1 km/h (1 Bft) SW 227 0 min 0,000 mm 0,0 UV-I 0 W/m 8,0 C 10,2 C 8,0 km/h (2 Bft) 91,49 %
07.06.2017 23:48 10,2 C 20,6 C 86 % 1022,0 hPa 0,0 l/m 4,8 km/h (1 Bft) SW 226 0 min 0,000 mm 0,0 UV-I 0 W/m 8,0 C 10,2 C 6,4 km/h (2 Bft) 97,44 %
07.06.2017 23:50 10,1 C 20,6 C 86 % 1022,0 hPa 0,0 l/m 4,5 km/h (1 Bft) SW 225 0 min 0,000 mm 0,0 UV-I 0 W/m 7,9 C 10,1 C 6,4 km/h (2 Bft) 92,73 %
07.06.2017 23:52 10,1 C 20,6 C 86 % 1022,0 hPa 0,0 l/m 3,2 km/h (1 Bft) S-SW 203 0 min 0,000 mm 0,0 UV-I 0 W/m 7,9 C 10,1 C 6,4 km/h (2 Bft) 94,74 %
07.06.2017 23:54 10,1 C 20,6 C 86 % 1021,9 hPa 0,0 l/m 3,6 km/h (1 Bft) S-SW 193 0 min 0,000 mm 0,0 UV-I 0 W/m 7,9 C 10,1 C 8,0 km/h (2 Bft) 94,34 %
07.06.2017 23:56 10,0 C 20,6 C 86 % 1021,9 hPa 0,0 l/m 3,8 km/h (1 Bft) S-SW 198 0 min 0,000 mm 0,0 UV-I 0 W/m 7,8 C 10,0 C 4,8 km/h (1 Bft) 92,68 %
07.06.2017 23:58 10,0 C 20,6 C 87 % 1021,9 hPa 0,0 l/m 4,2 km/h (1 Bft) S-SW 198 0 min 0,000 mm 0,0 UV-I 0 W/m 7,9 C 10,0 C 6,4 km/h (2 Bft) 96,23 %
_ Min-Zeit 23:56 07:38 13:22 00:00 - 11:58 - - - - - - 13:50 02:28 21:14 00:02
Minimum _ 10,0 C 20,6 C 49 % 1011,8 hPa - 0,3 km/h (0 Bft) - - - - - - 6,2 C 6,8 C 1,6 km/h (1 Bft) 13,33 %
_ Max-Zeit 13:24 00:00 01:02 23:48 00:00 13:26 - - 09:33 10:00 13:22 11:46 16:48 11:46 14:38 00:36
Maximum _ 18,0 C 22,2 C 93 % 1022,0 hPa 0,0 l/m 22,0 km/h
W-SW (4 Bft)
- - 3 min 0,356 mm 5,6 UV-I 1144 W/m 10,2 C 16,4 C 33,8 km/h
W-SW (5 Bft)
100,00 %
Durchschnitt _ 13,2 C 21,3 C 75 % 1016,6 hPa #0,0 l/m 8,1 km/h (2 Bft) SW - #4:50 h #2,769 mm 1,6 UV-I 240 W/m 8,6 C 11,9 C 13,5 km/h (3 Bft) 96,44 %